     2.11           OBSERVATION DATA    G (GPS)             RINEX VERSION / TYPE
teqc 2010Oct21 OPUS Account 20111025 20:41:11UTC            PGM / RUN BY / DATE
G 1522                                                      MARKER NAME
1162                                                        MARKER NUMBER
CSMIDDLETON NGS                                             OBSERVER / AGENCY
4613K00970 TRIMBLE NETR5 4.17                               REC # / TYPE / VERS
60125046 TRM41249.00 NONE                                   ANT # / TYPE
  -738360.0737 -5493384.4115  3145315.0432                  APPROX POSITION XYZ
        2.0040        0.0000        0.0000                  ANTENNA: DELTA H/E/N
     1     1                                                WAVELENGTH FACT L1/2
     5    L1    L2    C1    P1    P2                        # / TYPES OF OBSERV
    15                                                      LEAP SECONDS
  2011     7    29    15    49   30.0000000     GPS         TIME OF FIRST OBS
                                                            END OF HEADER
 11  7 29 15 49 30.0000000  0 11G16G30G13G03G19G06G31G20G32G07G23
 106990092.93018  83368934.29356  20359538.719                    20359545.754
 113131103.96918  88154143.24355  21528133.453                    21528142.527
 116976159.08017  91150276.16254  22259823.594                    22259832.563
 116098780.69517  90466617.27054  22092863.719                    22092872.605
 127674409.61516  99486591.40253  24295632.906                    24295641.707
 118158290.24017  92071435.93954  22484775.602                    22484785.449
 129837628.20016 101172234.13916  24707289.680                    24707298.012
 113788660.51517  88666520.10155  21653261.656                    21653270.773
 117319510.11117  91417819.76555  22325160.328                    22325170.215
 129192881.90815 100669836.72616  24584591.281                    24584602.285
 108192934.46618  84306207.40556  20588431.211                    20588437.277
 11  7 29 15 50  0.0000000  0 11G16G30G13G03G19G06G31G20G32G07G23
 107021074.149 7  83393075.49746  20365433.961                    20365441.441
 113209655.607 7  88215352.27045  21543081.914                    21543090.598
 116892551.861 7  91085127.70444  22243913.117                    22243921.188
 116020774.021 7  90405832.86145  22078019.766                    22078028.434
 127582160.499 5  99414709.03443  24278077.133                    24278087.383
 118109949.401 7  92033767.78044  22475576.672                    22475586.230
 129903088.156 6 101223241.878 6  24719744.906                    24719754.816
 113848780.665 7  88713366.91945  21664702.852                    21664711.105
 117400686.608 6  91481074.11645  22340607.758                    22340617.324
 129129545.972 6 100620484.100 6  24572538.469                    24572550.512
 108141187.121 8  84265884.81046  20578583.758                    20578590.477
 11  7 29 15 50 30.0000000  0 11G16G30G13G03G19G06G31G20G32G07G23
 107052592.384 7  83417635.15846  20371432.219                    20371439.238
 113288559.076 8  88276835.46545  21558096.477                    21558105.414
 116809051.834 7  91020062.80044  22228024.742                    22228032.992
 115943062.571 7  90345278.51145  22063230.969                    22063240.813
 127489837.635 6  99342769.21243  24260509.820                    24260518.727
 118061991.549 7  91996398.04444  22466450.922                    22466460.016
 129968497.234 6 101274209.908 6  24732192.180                    24732201.734
 113909307.549 7  88760530.67545  21676221.180                    21676229.238
 117482128.034 7  91544534.90544  22356106.250                    22356115.141
 129066270.418 6 100571178.493 6  24560497.727                    24560509.398
 108089758.528 8  84225810.59046  20568797.836                    20568803.445
 11  7 29 15 51  0.0000000  0 11G16G30G13G03G19G06G31G20G32G07G23
 107084646.170 7  83442612.13846  20377531.406                    20377538.699
 113367812.031 8  88338590.96245  21573178.219                    21573186.930
 116725661.434 7  90955083.33344  22212155.281                    22212163.996
 115865650.021 7  90284957.05145  22048500.266                    22048509.754
 127397444.013 6  99270774.25143  24242926.664                    24242937.047
 118014419.635 7  91959329.07644  22457397.969                    22457407.258
 130033855.812 5 101325138.595 5  24744629.930                    24744639.547
 113970238.553 7  88808009.33845  21687815.781                    21687824.035
 117563831.888 7  91608200.19144  22371653.773                    22371662.977
 129003054.910 6 100521919.641 5  24548469.117                    24548479.133
 108038651.163 8  84185986.68046  20559072.227                    20559077.824
 11  7 29 15 51 30.0000000  0 11G16G30G13G03G19G06G31G20G32G07G23
 107117232.652 7  83468004.18646  20383732.742                    20383739.910
 113447410.728 8  88400615.88245  21588325.172                    21588334.141
 116642382.290 7  90890190.48944  22196308.086                    22196315.770
 115788538.578 7  90224870.23745  22033825.953                    22033835.969
 127304981.545 6  99198725.63743  24225332.492                    24225342.105
 117967235.211 7  91922562.02044  22448418.727                    22448428.578
 130099163.526 5 101376027.662 6  24757055.172                    24757066.566
 114031570.289 7  88855800.26045  21699486.813                    21699495.414
 117645794.934 7  91672067.44345  22387250.641                    22387260.281
 128939898.036 6 100472706.549 6  24536450.891                    24536461.410
 107987866.643 8  84146414.34046  20549408.336                    20549414.391
 11  7 29 15 52  0.0000000  0 11G16G30G13G03G19G06G31G20G32G07G23
 107150351.422 8  83493811.01346  20390034.898                    20390042.305
 113527353.586 7  88462909.00445  21603538.281                    21603546.227
 116559217.194 7  90825386.58544  22180482.109                    22180491.016
 115711733.332 7  90165022.00445  22019211.156                    22019220.164
 127212454.351 6  99126626.59143  24207725.133                    24207735.055
 117920442.247 7  91886099.98044  22439515.070                    22439524.383
 130164421.564 5 101426878.024 5  24769475.797                    24769484.762
 114093301.490 7  88903902.46045  21711233.953                    21711242.285
 117728015.865 7  91736135.63045  22402896.875                    22402906.359
 128876800.784 6 100423539.952 6  24524442.750                    24524453.988
 107937408.804 8  84107096.56246  20539806.688                    20539812.465
 11  7 29 15 52 30.0000000  0 11G16G30G13G03G19G06G31G20G32G07G23
 107183999.597 7  83520030.35946  20396437.750                    20396444.844
 113607636.908 7  88525467.40045  21618815.195                    21618824.113
 116476168.058 7  90760673.01544  22164678.047                    22164686.809
 115635236.220 7  90105413.89945  22004654.078                    22004663.570
 127119864.273 6  99054478.51343  24190105.523                    24190115.090
 117874042.261 7  91849944.17344  22430685.391                    22430694.945
 130229629.644 5 101477689.483 5  24781883.945                    24781893.598
 114155428.970 7  88952313.44045  21723056.156                    21723064.668
 117810490.967 7  91800401.89144  22418591.461                    22418600.699
 128813761.946 6 100374418.805 5  24512447.438                    24512457.723
 107887278.967 8  84068034.36946  20530266.797                    20530272.902
 11  7 29 15 53  0.0000000  0 11G16G30G13G03G19G06G31G20G32G07G23
 107218175.764 8  83546661.12446  20402941.336                    20402948.344
 113688258.440 7  88588289.32345  21634157.102                    21634165.609
 116393236.927 7  90696051.38444  22148896.977                    22148905.824
 115559051.405 7  90046049.13644  21990157.219                    21990165.637
 127027214.970 6  98982284.34143  24172474.453                    24172483.848
 117828038.196 7  91814096.87844  22421930.617                    22421940.852
 130294788.263 6 101528462.446 6  24794283.023                    24794293.500
 114217950.202 7  89001031.23145  21734953.898                    21734962.309
 117893218.273 7  91864864.65145  22434333.641                    22434343.352
 128750781.016 6 100325342.834 5  24500461.961                    24500472.770
 107837479.681 8  84029229.74746  20520790.539                    20520796.355
 11  7 29 15 53 30.0000000  0 11G16G30G13G03G19G06G31G20G32G07G23
 107252877.033 8  83573701.06146  20409544.984                    20409552.203
 113769214.576 8  88651371.99745  21649562.469                    21649571.477
 116310425.439 7  90631523.00244  22133137.953                    22133146.992
 115483180.783 7  89986929.20645  21975718.922                    21975728.203
 126934508.199 6  98910045.35043  24154833.609                    24154842.852
 117782431.725 7  91778559.37744  22413252.594                    22413261.902
 130359896.913 6 101579196.378 6  24806673.508                    24806683.676
 114280861.829 7  89050053.24545  21746925.727                    21746934.211
 117976194.403 7  91929521.31244  22450123.352                    22450133.215
 128687857.348 6 100276311.474 5  24488488.313                    24488499.047
 107788012.752 8  83990684.09846  20511377.391                    20511383.441
 11  7 29 15 54  0.0000000  0 11G16G30G13G03G19G06G31G20G32G07G23
 107288102.501 8  83601149.46546  20416247.852                    20416255.285
 113850503.461 7  88714713.96145  21665031.359                    21665040.242
 116227736.160 7  90567089.83444  22117403.086                    22117411.750
 115407628.603 7  89928057.39545  21961341.391                    21961350.676
 126841747.839 6  98837764.62743  24137181.672                    24137191.586
 117737226.130 7  91743334.26144  22404649.586                    22404659.012
 130424956.745 5 101629892.284 6  24819053.656                    24819064.547
 114344161.862 7  89099377.90145  21758971.094                    21758979.168
 118059417.411 7  91994370.34044  22465960.391                    22465970.430
 128624991.102 6 100227324.824 6  24476525.453                    24476536.406
 107738880.823 8  83952399.47846  20502027.773                    20502033.609
 11  7 29 15 54 30.0000000  0 11G16G30G13G03G19G06G31G20G32G07G23
 107323849.732 7  83629004.44246  20423050.367                    20423057.637
 113932122.242 7  88778312.97645  21680562.984                    21680571.801
 116145171.290 7  90502753.60144  22101691.156                    22101699.719
 115332397.588 7  89869435.85045  21947025.711                    21947035.141
 126748936.567 6  98765444.25443  24119519.813                    24119529.391
 117692423.860 7  91708423.40844  22396124.641                    22396133.504
 130489967.962 6 101680550.360 6  24831425.516                    24831435.969
 114407847.883 7  89149003.34645  21771090.188                    21771097.973
 118142884.648 7  92059409.67944  22481843.938                    22481853.395
 128562181.451 6 100178382.251 5  24464573.828                    24464583.887
 107690086.619 8  83914378.03746  20492742.617                    20492748.820
 11  7 29 15 55  0.0000000  0 11G16G30G13G03G19G06G31G20G32G07G23
 107360116.498 7  83657264.24946  20429951.703                    20429959.188
 114014067.613 7  88842166.46445  21696157.438                    21696166.035
 116062732.395 7  90438515.51544  22086004.063                    22086012.449
 115257490.967 7  89811067.09045  21932771.516                    21932780.570
 126656076.803 6  98693086.04944  24101849.695                    24101859.570
 117648026.926 7  91673828.42344  22387675.680                    22387684.832
 130554930.437 6 101731170.419 6  24843786.578                    24843797.477
 114471916.861 7  89198927.17045  21783281.898                    21783290.672
 118226593.164 7  92124637.02344  22497773.320                    22497782.723
 128499428.073 6 100129483.538 5  24452631.453                    24452641.828
 107641631.998 8  83876621.19946  20483522.039                    20483527.879
 11  7 29 15 55 30.0000000  0 11G16G30G13G03G19G06G31G20G32G07G23
 107396900.991 8  83685927.47946  20436952.039                    20436959.254
 114096337.048 7  88906272.47745  21711812.055                    21711820.891
 115980422.111 7  90374377.68844  22070340.336                    22070349.879
 115182912.511 7  89752954.02945  21918579.367                    21918589.328
 126563171.837 6  98620692.66143  24084170.055                    24084180.184
 117604037.942 7  91639551.30644  22379304.703                    22379314.402
 130619844.502 6 101781752.779 6  24856139.805                    24856150.379
 114536366.126 7  89249147.32345  21795546.391                    21795554.969
 118310540.611 7  92190050.54044  22513747.922                    22513757.414
 128436730.464 6 100080628.305 6  24440700.820                    24440711.168
 107593519.585 8  83839130.99946  20474366.203                    20474372.254
 11  7 29 15 56  0.0000000  0 11G16G30G13G03G19G06G31G20G32G07G23
 107434201.057 8  83714992.45746  20444049.547                    20444056.945
 114178927.412 7  88970628.57145  21727527.953                    21727537.559
 115898242.417 7  90310341.59844  22054702.180                    22054711.316
 115108664.697 7  89695098.60945  21904451.203                    21904460.438
 126470224.178 6  98548265.96343  24066483.211                    24066492.469
 117560459.068 7  91605593.75545  22371012.102                    22371021.434
 130684710.485 6 101832297.643 6  24868483.961                    24868493.730
 114601192.623 7  89299661.44645  21807882.414                    21807890.926
 118394723.865 7  92255647.81344  22529767.359                    22529776.988
 128374088.051 5 100031816.079 5  24428778.813                    24428790.816
 107545751.217 8  83801908.90046  20465276.352                    20465282.441
 11  7 29 15 56 30.0000000  0 10G16G30G13G03G19G06G20G32G07G23
 107472015.078 7  83744457.92146  20451245.422                    20451252.875
 114261836.792 7  89035233.24145  21743305.477                    21743314.898
 115816196.049 7  90246409.39644  22039089.086                    22039098.027
 115034751.326 7  89637503.79945  21890385.688                    21890393.992
 126377237.251 6  98475808.73443  24048787.641                    24048797.148
 117517293.186 7  91571958.04045  22362797.820                    22362807.445
 114666394.349 7  89350467.94645  21820289.805                    21820298.410
 118479141.061 7  92321427.36944  22545831.641                    22545841.469
 128311500.928 5  99983046.931 6  24416869.078                    24416880.645
 107498329.896 8  83764957.23746  20456252.398                    20456258.559
 11  7 29 15 57  0.0000000  0 10G16G30G13G03G19G06G20G32G07G23
 107510341.318 7  83774322.51846  20458538.656                    20458546.031
 114345062.102 7  89100084.08445  21759142.641                    21759151.867
 115734284.645 7  90182582.36744  22023501.906                    22023510.281
 114961176.000 7  89580172.39545  21876384.586                    21876393.422
 126284214.291 6  98403323.39043  24031086.406                    24031095.359
 117474542.706 7  91538646.00344  22354662.797                    22354671.895
 114731968.759 7  89401564.85145  21832768.352                    21832777.367
 118563789.439 7  92387387.08544  22561939.508                    22561949.539
 128248968.455 5  99934320.361 6  24404969.289                    24404981.527
 107451257.882 8  83728277.75646  20447294.945                    20447300.691
 11  7 29 15 57 30.0000000  0 10G16G30G13G03G19G06G20G32G07G23
 107549175.866 8  83804583.18746  20465929.102                    20465935.785
 114428600.044 7  89165178.53745  21775039.664                    21775048.715
 115652510.244 7  90118862.09144  22007940.852                    22007949.840
 114887940.848 7  89523106.07645  21862448.078                    21862457.207
 126191157.077 6  98330811.30243  24013378.742                    24013386.813
 117432209.463 7  91505659.09544  22346606.961                    22346616.379
 114797912.318 7  89452949.40045  21845317.352                    21845325.746
 118648665.607 7  92453524.28344  22578091.938                    22578100.570
 128186489.654 6  99885635.643 6  24393080.727                    24393092.676
 107404536.790 8  83691871.72046  20438404.367                    20438410.207
 11  7 29 15 58  0.0000000  0 10G16G30G13G03G19G06G20G32G07G23
 107588518.157 8  83835239.50546  20473415.219                    20473422.512
 114512448.383 7  89230514.86945  21790995.445                    21791004.223
 115570875.347 7  90055250.51644  21992406.039                    21992414.914
 114815049.807 7  89466307.88945  21848577.852                    21848586.148
 126098069.327 6  98258275.48243  23995663.766                    23995673.086
 117390296.194 7  91472999.43844  22338631.313                    22338640.098
 114864222.735 7  89504619.80845  21857935.609                    21857944.645
 118733767.575 7  92519837.44744  22594285.188                    22594295.258
 128124064.564 6  99836992.745 6  24381200.797                    24381213.387
 107358169.347 8  83655741.25246  20429581.023                    20429586.906
 11  7 29 15 58 30.0000000  0 10G16G30G13G03G19G06G20G32G07G23
 107628366.384 7  83866290.05546  20480998.195                    20481005.406
 114596604.651 7  89296091.14145  21807009.805                    21807018.922
 115489382.618 7  89991749.72545  21976898.578                    21976907.242
 114742506.159 7  89409780.39345  21834773.008                    21834781.953
 126004954.303 6  98185718.33043  23977945.109                    23977953.188
 117348805.474 7  91440669.04344  22330735.609                    22330745.070
 114930897.592 7  89556574.19745  21870623.164                    21870631.699
 118819093.051 7  92586324.75444  22610522.250                    22610532.281
 128061692.939 6  99788391.441 6  24369332.500                    24369344.164
 107312158.368 8  83619888.54846  20420825.219                    20420830.957
 11  7 29 15 59  0.0000000  0 10G16G30G13G03G19G06G20G32G07G23
 107668717.185 8  83897732.22346  20488676.492                    20488683.984
 114681065.189 7  89361904.51345  21823082.391                    21823091.227
 115408033.270 7  89928360.67045  21961418.367                    21961427.117
 114670312.120 7  89353525.35145  21821034.430                    21821043.887
 125911814.272 6  98113141.77343  23960221.555                    23960229.879
 117307738.817 7  91408669.08745  22322921.633                    22322930.066
 114997933.331 7  89608809.79145  21883380.195                    21883388.668
 118904638.291 7  92652983.29544  22626801.727                    22626811.047
 127999373.684 6  99739831.011 6  24357473.125                    24357484.723
 107266505.141 8  83584314.61846  20412137.586                    20412143.371
 11  7 29 15 59 30.0000000  0 10G16G30G13G03G19G06G20G32G07G23
 107709568.884 8  83929564.70046  20496450.523                    20496457.824
 114765827.372 7  89427952.92545  21839212.305                    21839221.336
 115326829.826 7  89865085.29745  21945965.813                    21945974.121
 114598471.378 7  89297545.58045  21807364.063                    21807372.852
 125818652.396 6  98040548.10843  23942492.734                    23942501.293
 117267098.726 7  91377001.49745  22315187.805                    22315196.355
 115065327.527 7  89661324.68645  21896205.000                    21896212.992
 118990401.038 7  92719811.34644  22643121.586                    22643131.293
 127937106.711 6  99691311.335 6  24345624.984                    24345635.672
 107221212.151 8  83549021.38246  20403518.766                    20403524.652
 11  7 29 16  0  0.0000000  0 10G16G30G13G03G19G06G20G32G07G23
 107750919.369 7  83961785.83346  20504319.180                    20504326.492
 114850888.859 7  89494234.56145  21855398.422                    21855408.238
 115245774.725 7  89801925.50645  21930541.609                    21930550.250
 114526987.355 7  89241843.77145  21793760.734                    21793770.285
 125725471.854 6  97967939.94543  23924760.969                    23924770.461
 117226887.880 7  91345668.38145  22307535.414                    22307544.816
 115133077.489 7  89714116.81745  21909097.422                    21909105.820
 119076378.888 7  92786807.00444  22659482.719                    22659492.180
 127874891.833 6  99642832.209 6  24333786.078                    24333796.555
 107176282.311 8  83514011.11946  20394968.883                    20394974.941
 11  7 29 16  0 30.0000000  0 10G16G30G13G03G19G06G20G32G07G23
 107792766.296 8  83994393.81546  20512282.516                    20512289.598
 114936246.469 7  89560746.94045  21871641.219                    21871651.262
 115164869.976 7  89738882.88245  21915145.828                    21915154.656
 114455863.239 7  89186422.43345  21780226.813                    21780235.738
 125632275.036 6  97895319.11943  23907026.953                    23907035.773
 117187108.165 7  91314671.21645  22299965.875                    22299975.461
 115201180.552 7  89767184.08845  21922057.172                    21922065.391
 119162568.849 7  92853967.93044  22675883.844                    22675894.375
 127812727.824 6  99594392.729 6  24321956.547                    24321967.672
 107131717.218 8  83479285.07146  20386488.430                    20386494.676
 11  7 29 16  1  0.0000000  0 10G16G30G13G03G19G06G20G32G07G23
 107835108.464 8  84027387.69246  20520339.969                    20520347.129
 115021898.297 7  89627488.57045  21887940.656                    21887949.660
 115084118.403 7  89675959.61245  21899779.023                    21899787.984
 114385102.600 7  89131284.30145  21766761.078                    21766770.113
 125539066.065 6  97822688.80844  23889289.391                    23889298.723
 117147762.903 7  91284012.60744  22292478.234                    22292487.816
 115269634.430 7  89820524.73545  21935082.922                    21935092.285
 119248969.211 7  92921292.79244  22692326.063                    22692335.652
 127750615.301 6  99545993.389 6  24310137.117                    24310147.863
 107087520.013 8  83444845.69446  20378078.125                    20378083.680
 11  7 29 16  1 30.0000000  0 10G16G30G13G03G19G06G20G32G07G23
 107877942.732 7  84060765.02346  20528491.234                    20528498.363
 115107840.547 7  89694456.52245  21904295.258                    21904304.020
 115003521.609 7  89613156.95145  21884442.266                    21884451.004
 114314707.607 7  89076431.09245  21753365.203                    21753374.563
 125445846.771 6  97750050.42943  23871549.992                    23871559.512
 117108852.935 7  91253693.18545  22285074.219                    22285084.000
 115338435.488 7  89874135.89245  21948175.641                    21948183.770
 119335576.114 7  92988778.62844  22708805.813                    22708816.250
 127688553.031 6  99497633.232 6  24298327.102                    24298338.031
 107043692.355 8  83410694.27346  20369738.000                    20369743.855
 11  7 29 16  2  0.0000000  0 10G16G30G13G03G19G06G20G32G07G23
 107921266.614 8  84094523.88246  20536735.383                    20536742.637
 115194070.774 7  89761648.88045  21920704.102                    21920713.660
 114923081.924 7  89550476.71945  21869135.055                    21869143.547
 114244681.682 7  89021865.45145  21740039.477                    21740049.195
 125352620.468 6  97677406.65943  23853809.383                    23853818.781
 117070381.035 7  91223715.10445  22277753.391                    22277762.512
 115407580.934 7  89928015.39645  21961333.641                    21961341.973
 119422387.301 7  93056423.62944  22725325.633                    22725335.332
 127626540.697 6  99449311.995 6  24286526.563                    24286537.094
 107000236.352 8  83376832.45546  20361468.609                    20361474.152
 11  7 29 16  2 30.0000000  0 10G16G30G13G03G19G06G20G32G07G23
 107965077.855 8  84128662.49746  20545072.492                    20545079.559
 115280586.028 7  89829063.32545  21937167.563                    21937176.855
 114842801.810 7  89487920.81145  21853858.180                    21853867.000
 114175027.740 7  88967589.68845  21726785.531                    21726794.453
 125259390.268 6  97604759.83544  23836068.563                    23836077.363
 117032348.989 7  91194079.76244  22270516.328                    22270524.895
 115477067.990 7  89982161.10345  21974556.508                    21974564.977
 119509399.703 7  93124225.39844  22741884.164                    22741893.762
 127564577.821 6  99401029.318 6  24274734.406                    24274745.910
 106957154.171 8  83343261.93046  20353270.352                    20353276.230
 11  7 29 16  3  0.0000000  0 10G16G30G13G03G19G06G20G32G07G23
 108009374.639 8  84163179.45546  20553502.180                    20553509.363
 115367383.868 7  89896697.96045  21953684.281                    21953694.004
 114762683.188 7  89425490.73545  21838611.984                    21838620.953
 114105749.482 7  88913606.66145  21713602.023                    21713611.281
 125166159.320 6  97532112.39943  23818327.117                    23818336.406
 116994759.473 7  91164789.24544  22263362.844                    22263372.059
 115546894.066 7  90036570.97745  21987844.398                    21987853.188
 119596611.008 7  93192182.19544  22758479.695                    22758489.621
 127502664.230 6  99352785.027 6  24262952.688                    24262964.188
 106914448.607 8  83309984.86346  20345143.281                    20345149.324
 11  7 29 16  3 30.0000000  0 10G16G30G13G03G19G06G20G32G07G23
 108054154.370 8  84198072.72646  20562023.148                    20562030.402
 115454461.087 7  89964550.27145  21970254.094                    21970263.805
 114682728.989 7  89363188.79645  21823397.703                    21823405.930
 114036849.151 7  88859918.12345  21700490.391                    21700499.852
 125072930.051 6  97459466.28244  23800585.758                    23800595.660
 116957614.055 7  91135844.78744  22256294.570                    22256303.348
 115617055.781 7  90091242.40145  22001195.680                    22001203.938
 119684018.106 7  93260291.55444  22775112.984                    22775122.805
 127440798.876 6  99304578.335 6  24251179.797                    24251190.883
 106872121.233 8  83277002.51146  20337088.930                    20337094.637
 11  7 29 16  4  0.0000000  0 10G16G30G13G03G19G06G20G32G07G23
 108099415.135 8  84233340.83446  20570635.961                    20570643.160
 115541815.243 7  90032618.39444  21986878.164                    21986886.766
 114602940.639 7  89301016.10545  21808214.117                    21808223.184
 113968330.380 7  88806526.91945  21687451.781                    21687460.586
 124979706.242 6  97386824.43744  23782846.156                    23782855.617
 116920915.420 7  91107248.47144  22249310.555                    22249320.297
 115687550.859 7  90146173.56645  22014610.016                    22014618.988
 119771618.619 7  93328551.61144  22791782.453                    22791792.855
 127378981.967 6  99256409.346 6  24239416.477                    24239427.324
 106830174.647 8  83244316.86246  20329106.359                    20329112.477
 11  7 29 16  4 30.0000000  0 10G16G30G13G03G19G06G20G32G07G23
 108145155.504 8  84268982.65446  20579340.445                    20579347.648
 115629444.416 7  90100900.81345  22003552.977                    22003561.938
 114523321.318 7  89238975.09745  21793063.117                    21793071.504
 113900197.022 7  88753436.02745  21674486.148                    21674495.598
 124886491.342 7  97314189.48844  23765108.563                    23765116.504
 116884666.318 7  91079002.42144  22242412.781                    22242421.727
 115758377.234 7  90201362.88745  22028088.367                    22028097.320
 119859410.766 7  93396961.00844  22808489.164                    22808499.805
 127317213.361 6  99208278.088 6  24227661.883                    24227673.559
 106788611.913 8  83211930.31746  20321197.594                    20321203.195
 11  7 29 16  5  0.0000000  0 10G16G30G13G03G19G06G20G32G07G23
 108191371.750 8  84304995.28946  20588134.281                    20588142.035
 115717345.160 7  90169394.85645  22020280.320                    22020288.953
 114443872.877 7  89177067.25145  21777944.328                    21777953.367
 113832451.795 7  88700647.57345  21661594.570                    21661603.801
 124793287.699 6  97241563.32643  23747371.805                    23747380.594
 116848868.139 7  91051107.76544  22235600.477                    22235609.520
 115829531.231 7  90256807.51345  22041628.242                    22041636.762
 119947391.058 7  93465516.98944  22825230.961                    22825241.813
 127255492.071 6  99160183.627 6  24215917.516                    24215928.078
 106747434.792 8  83179844.25346  20313361.906                    20313367.672
 11  7 29 16  5 30.0000000  0 10G16G30G13G03G19G06G20G32G07G23
 108238061.718 7  84341377.06146  20597019.648                    20597026.805
 115805514.349 7  90238098.07745  22037058.070                    22037067.563
 114364597.598 7  89115294.34545  21762858.539                    21762867.570
 113765097.182 7  88648163.47745  21648777.531                    21648786.645
 124700098.077 6  97168948.06544  23729638.539                    23729647.152
 116813522.755 7  91023565.93245  22228874.688                    22228883.719
 115901009.387 7  90312504.71345  22055230.398                    22055238.535
 120035556.314 7  93534217.10544  22842008.727                    22842019.297
 127193817.423 6  99112125.503 6  24204180.836                    24204191.723
 106706644.691 8  83148059.76646  20305599.578                    20305605.859
 11  7 29 16  6  0.0000000  0 10G16G30G13G03G19G06G20G32G07G23
 108285223.632 8  84378126.58046  20605994.484                    20606001.762
 115893949.544 7  90307008.56745  22053887.039                    22053896.676
 114285497.958 8  89053658.29645  21747806.672                    21747815.207
 113698136.532 7  88595986.36145  21636035.570                    21636045.086
 124606925.650 6  97096346.21344  23711908.641                    23711917.090
 116778632.855 7  90996379.01445  22222235.023                    22222244.543
 115972809.737 7  90368452.98045  22068893.586                    22068902.117
 120123904.639 7  93603059.88344  22858821.320                    22858830.770
 127132189.297 6  99064103.588 6  24192453.211                    24192463.879
 106666244.751 8  83116579.29246  20297912.234                    20297917.738
 11  7 29 16  6 30.0000000  0 10G16G30G13G03G19G06G20G32G07G23
 108332854.966 7  84415241.88246  20615058.281                    20615065.465
 115982648.093 7  90376124.26145  22070765.859                    22070775.230
 114206576.380 7  88992160.97845  21732788.328                    21732796.836
 113631572.723 7  88544118.49845  21623368.500                    21623378.012
 124513774.265 6  97023760.77444  23694182.680                    23694190.914
 116744200.264 7  90969548.44744  22215682.906                    22215691.844
 116044929.270 7  90424649.95745  22082617.219                    22082625.852
 120212433.033 7  93672042.95244  22875667.023                    22875677.266
 127070607.482 6  99016117.820 6  24180734.320                    24180744.934
 106626236.955 8  83085404.40246  20290298.672                    20290304.566
 11  7 29 16  7  0.0000000  0 10G16G30G13G03G19G06G20G32G07G23
 108380952.836 8  84452720.71046  20624210.641                    20624218.352
 116071606.634 7  90445442.56345  22087693.469                    22087703.707
 114127834.594 7  88930803.78445  21717804.422                    21717813.008
 113565408.521 7  88492561.99945  21610777.945                    21610787.500
 124420646.001 6  96951193.34943  23676460.695                    23676469.789
 116710226.482 7  90943075.38244  22209217.703                    22209226.859
 116117364.726 7  90481093.11245  22096401.234                    22096409.953
 120301138.191 7  93741163.76544  22892547.328                    22892557.641
 127009070.835 6  98968167.261 6  24169024.359                    24169035.441
 106586623.073 8  83054536.42846  20282760.273                    20282766.430
 11  7 29 16  7 30.0000000  0 10G16G30G13G03G19G06G20G32G07G23
 108429516.352 8  84490562.38846  20633452.438                    20633459.355
 116160823.584 7  90514962.21445  22104671.406                    22104680.906
 114049275.967 7  88869589.29445  21702855.172                    21702863.602
 113499647.899 7  88441319.97845  21598264.148                    21598273.582
 124327544.610 6  96878646.83943  23658743.125                    23658752.324
 116676714.606 7  90916962.24944  22202840.781                    22202848.996
 116190113.934 7  90537780.75845  22110245.094                    22110253.762
 120390018.711 7  93810421.21344  22909460.672                    22909470.934
 126947579.837 6  98920252.225 6  24157323.727                    24157334.332
 106547406.146 8  83023977.78846  20275297.750                    20275303.793
 11  7 29 16  8  0.0000000  0 10G16G30G13G03G19G06G20G32G07G23
 108478541.807 8  84528764.01846  20642781.375                    20642788.758
 116250295.414 7  90584680.48945  22121697.453                    22121706.930
 113970902.283 7  88808518.92245  21687941.039                    21687949.129
 113434293.075 7  88390394.15845  21585827.602                    21585837.191
 124234472.856 6  96806123.45044  23641033.414                    23641041.516
 116643666.067 7  90891210.15945  22196551.844                    22196560.688
 116263173.178 7  90594709.97445  22124148.266                    22124156.391
 120479071.099 7  93879812.59344  22926407.125                    22926417.293
 126886133.436 6  98872371.962 6  24145631.234                    24145641.180
 106508587.770 8  82993729.69746  20267910.852                    20267916.676
 11  7 29 16  8 30.0000000  0 10G16G30G13G03G19G06G20G32G07G23
 108528026.863 8  84567323.77846  20652198.375                    20652205.645
 116340019.117 7  90654595.02145  22138771.734                    22138780.672
 113892715.638 8  88747594.28945  21673062.609                    21673071.055
 113369347.204 7  88339787.01345  21573468.766                    21573477.875
 124141433.545 6  96733625.36543  23623327.313                    23623336.684
 116611082.508 7  90865820.40244  22190351.094                    22190360.566
 116336539.728 7  90651878.66145  22138109.172                    22138117.445
 120568292.282 7  93949335.47944  22943385.852                    22943395.992
 126824731.184 6  98824526.092 6  24133946.523                    24133956.648
 106470170.126 8  82963793.87846  20260600.094                    20260605.934
 11  7 29 16  9  0.0000000  0 10G16G30G13G03G19G06G20G32G07G23
 108577969.509 7  84606240.10446  20661702.203                    20661709.250
 116429992.463 7  90724704.09345  22155892.797                    22155902.148
 113814718.464 7  88686817.29445  21658220.438                    21658228.379
 113304813.596 7  88289501.10245  21561188.117                    21561197.484
 124048430.589 6  96661155.60344  23605629.836                    23605638.922
 116578966.250 7  90840794.77745  22184239.914                    22184248.766
 116410211.033 7  90709284.82045  22152128.578                    22152137.395
 120657680.066 7  94018988.23044  22960395.156                    22960405.586
 126763372.865 6  98776714.444 6  24122270.492                    24122280.391
 106432155.601 8  82934172.16946  20253366.125                    20253372.180
 11  7 29 16  9 30.0000000  0 10G16G30G13G03G19G06G20G32G07G23
 108628367.523 7  84645511.26046  20671292.578                    20671299.813
 116520212.901 7  90795005.69544  22173060.945                    22173070.855
 113736913.420 7  88626190.00345  21643414.211                    21643422.723
 113240695.160 7  88239538.71445  21548987.227                    21548996.457
 123955466.948 6  96588716.45944  23587939.555                    23587948.445
 116547319.499 7  90816134.97645  22178218.039                    22178227.258
 116484184.244 7  90766926.21745  22166205.102                    22166213.957
 120747232.003 7  94088768.84144  22977436.813                    22977447.582
 126702058.122 6  98728936.791 6  24110602.211                    24110612.660
 106394546.700 8  82904866.53646  20246209.625                    20246215.016
 11  7 29 16 10  0.0000000  0 10G16G30G13G03G19G06G20G32G07G23
 108679218.104 7  84685135.06646  20680968.930                    20680976.578
 116610677.265 7  90865497.37144  22190275.641                    22190285.246
 113659302.862 7  88565714.27045  21628645.742                    21628654.402
 113176994.918 7  88189902.19045  21536865.266                    21536875.043
 123862545.567 6  96516310.23444  23570256.773                    23570265.727
 116516143.907 7  90791842.34145  22172285.234                    22172294.547
 116558456.171 7  90824800.38645  22180338.875                    22180347.777
 120836944.861 7  94158674.88444  22994508.305                    22994518.719
 126640786.440 6  98681192.695 6  24098943.195                    24098953.063
 106357345.365 8  82875878.49046  20239129.930                    20239135.980
 11  7 29 16 10 30.0000000  0 10G16G30G13G03G19G06G20G32G07G23
 108730519.062 8  84725109.81646  20690731.094                    20690738.188
 116701383.048 7  90936177.14444  22207536.391                    22207546.387
 113581889.142 7  88505391.92645  21613914.195                    21613922.801
 113113715.593 7  88140593.63145  21524824.078                    21524832.680
 123769669.139 6  96443939.07244  23552583.359                    23552592.566
 116485441.443 7  90767918.35845  22166442.719                    22166451.844
 116633024.067 7  90882905.19845  22194528.461                    22194537.730
 120926816.298 7  94228704.48444  23011610.508                    23011621.027
 126579557.409 6  98633481.825 6  24087290.188                    24087301.359
 106320553.474 8  82847209.48746  20232129.148                    20232135.004
 11  7 29 16 11  0.0000000  0 10G16G30G13G03G19G06G20G32G07G23
 108782267.711 7  84765433.40746  20700579.063                    20700586.156
 116792327.456 7  91007042.86445  22224842.680                    22224852.848
 113504674.241 7  88445224.48845  21599220.977                    21599229.164
 113050859.869 7  88091615.16445  21512862.031                    21512871.711
 123676841.253 6  96371605.69644  23534919.047                    23534927.766
 116455213.820 7  90744364.39645  22160690.281                    22160700.145
 116707884.566 7  90941237.98745  22208774.148                    22208783.055
 121016842.978 7  94298855.06444  23028742.531                    23028751.672
 126518370.479 6  98585803.730 6  24075647.242                    24075658.016
 106284173.115 8  82818861.15246  20225206.016                    20225212.258
 11  7 29 16 11 30.0000000  0 10G16G30G13G03G19G06G20G32G07G23
 108834461.422 8  84806103.81346  20710511.063                    20710518.336
 116883508.109 7  91078092.67344  22242194.000                    22242203.469
 113427660.764 7  88385214.00645  21584565.648                    21584573.637
 112988431.010 7  88042969.32245  21500982.461                    21500992.059
 123584064.924 6  96299312.51444  23517264.117                    23517272.719
 116425463.152 7  90721182.07744  22155028.734                    22155038.543
 116783035.175 7  90999796.83545  22223074.781                    22223084.035
 121107022.686 7  94369124.85844  23045903.180                    23045913.824
 126457225.515 6  98538158.332 6  24064011.828                    24064022.660
 106248206.938 8  82790835.56946  20218361.867                    20218367.676
 11  7 29 16 12  0.0000000  0 10G16G30G13G03G19G06G20G32G07G23
 108887098.221 7  84847119.47746  20720527.336                    20720534.926
 116974922.065 7  91149324.29444  22259589.781                    22259598.711
 113350851.444 7  88325362.61045  21569948.883                    21569957.422
 112926432.395 7  87994658.73345  21489184.844                    21489193.563
 123491343.362 6  96227062.00744  23499620.734                    23499628.207
 116396191.204 7  90698372.78444  22149458.391                    22149468.203
 116858472.930 7  91058579.43545  22237430.344                    22237438.969
 121197352.782 6  94439511.84444  23063092.625                    23063101.930
 126396121.736 6  98490545.076 6  24052384.016                    24052394.777
 106212656.671 8  82763134.07046  20211596.953                    20211603.395
 11  7 29 16 12 30.0000000  0 10G16G30G13G03G19G06G20G32G07G23
 108940175.624 7  84888478.47446  20730627.672                    20730635.012
 117066566.690 7  91220735.62744  22277028.930                    22277038.391
 113274248.598 7  88265672.11545  21555371.570                    21555380.570
 112864866.759 7  87946685.53045  21477468.836                    21477478.070
 123398679.875 6  96154856.71643  23481986.281                    23481995.047
 116367399.957 7  90675938.08944  22143979.656                    22143989.734
 116934194.862 7  91117583.45245  22251839.320                    22251848.145
 121287830.581 7  94510013.96044  23080309.398                    23080319.453
 126335059.024 6  98442963.785 6  24040764.242                    24040774.895
 106177524.835 8  82735758.62646  20204911.617                    20204917.578
 11  7 29 16 13  0.0000000  0 10G16G30G13G03G19G06G20G32G07G23
 108993691.099 7  84930178.81646  20740811.430                    20740818.641
 117158439.212 7  91292324.54844  22294512.023                    22294521.078
 113197854.691 7  88206144.42545  21540835.188                    21540843.375
 112803736.899 7  87899051.87645  21465836.383                    21465845.430
 123306077.439 6  96082699.02443  23464364.125                    23464372.992
 116339091.187 7  90653879.31645  22138592.914                    22138601.910
 117010198.034 7  91176806.63245  22266302.078                    22266311.195
 121378453.049 7  94580628.75244  23097554.734                    23097565.059
 126274036.934 6  98395414.120 6  24029152.469                    24029162.355
 106142813.452 8  82708710.79846  20198306.352                    20198311.863
 11  7 29 16 13 30.0000000  0 10G16G30G13G03G19G06G20G32G07G23
 109047641.971 7  84972218.43446  20751077.711                    20751085.238
 117250536.697 7  91364088.78044  22312036.992                    22312046.570
 113121671.692 7  88146781.08245  21526337.711                    21526346.313
 112743044.960 7  87851759.48345  21454286.820                    21454296.164
 123213538.870 6  96010591.11043  23446755.008                    23446763.582
 116311266.234 7  90632197.54945  22133298.219                    22133307.848
 117086479.122 7  91236246.36745  22280818.477                    22280827.547
 121469217.530 7  94651354.22344  23114826.609                    23114836.633
 126213054.595 6  98347895.459 6  24017547.719                    24017558.613
 106108524.168 8  82681991.87646  20191780.906                    20191786.980
 11  7 29 16 14  0.0000000  0 10G16G30G13G03G19G06G20G32G07G23
 109102025.501 8  85014595.19846  20761426.836                    20761433.867
 117342856.473 7  91436026.19144  22329605.078                    22329614.375
 113045701.994 7  88087583.94645  21511880.844                    21511889.352
 112682794.302 7  87804810.94345  21442821.547                    21442831.301
 123121067.362 6  95938535.44843  23429157.844                    23429166.402
 116283927.205 7  90610894.42845  22128094.977                    22128104.953
 117163035.238 7  91295900.42344  22295386.016                    22295395.559
 121560121.041 6  94722188.02444  23132124.523                    23132135.445
 126152111.904 6  98300407.709 6  24005950.453                    24005961.055
 106074659.256 8  82655603.63846  20185336.586                    20185342.797
 11  7 29 16 14 30.0000000  0 10G16G30G13G03G19G06G20G32G07G23
 109156839.870 7  85057307.66746  20771857.539                    20771864.926
 117435396.187 7  91508135.00744  22347215.430                    22347224.570
 112969948.512 7  88028555.28145  21497465.383                    21497473.969
 112622988.203 7  87758208.80645  21431441.258                    21431450.645
 123028666.524 6  95866534.82243  23411574.773                    23411582.551
 116257076.109 7  90589971.51845  22122985.602                    22122995.281
 117239863.983 7  91355766.90245  22310006.727                    22310015.715
 121651161.575 6  94793128.58644  23149448.703                    23149460.063
 126091208.604 6  98252950.653 6  23994361.516                    23994371.953
 106041221.189 8  82629548.00146  20178973.992                    20178980.020
 11  7 29 16 15  0.0000000  0 10G16G30G13G03G19G06G20G32G07G23
 109212082.023 7  85100353.47946  20782369.781                    20782376.914
 117528153.021 7  91580413.00144  22364866.391                    22364875.988
 112894413.415 7  87969696.79545  21483091.117                    21483100.320
 112563629.226 7  87711955.06945  21420145.430                    21420154.508
 122936339.299 6  95794591.58744  23394005.914                    23394013.875
 116230714.355 7  90569429.89844  22117968.938                    22117978.719
 117316961.682 7  91415842.96645  22324677.695                    22324687.344
 121742335.947 6  94864173.44444  23166799.141                    23166809.816
 126030344.068 6  98205523.806 6  23982779.289                    23982789.789
 106008211.739 8  82603826.34846  20172692.414                    20172698.051
 11  7 29 16 15 30.0000000  0 10G16G30G13G03G19G06G20G32G07G23
 109267749.756 7  85143730.91146  20792963.094                    20792970.082
 117621124.319 7  91652858.10444  22382558.000                    22382567.305
 112819099.257 7  87911010.46445  21468759.734                    21468768.453
 112504720.235 7  87666051.97645  21408935.289                    21408944.770
 122844089.065 6  95722708.35244  23376451.016                    23376459.848
 116204843.830 7  90549271.06145  22113046.164                    22113056.203
 117394325.635 7  91476126.48844  22339400.047                    22339408.965
 121833641.657 6  94935320.65344  23184174.063                    23184184.832
 125969517.766 6  98158126.744 6  23971204.461                    23971214.449
 105975633.009 8  82578440.31846  20166493.063                    20166498.824
 11  7 29 16 16  0.0000000  0 10G16G30G13G03G19G06G20G32G07G23
 109323840.289 7  85187437.80246  20803636.727                    20803643.781
 117714307.189 7  91725468.09444  22400290.195                    22400300.211
 112744008.318 7  87852498.06645  21454470.414                    21454478.734
 112446263.900 7  87620501.61745  21397811.602                    21397820.977
 122751918.892 6  95650887.48644  23358911.172                    23358919.996
 116179466.092 7  90529496.22344  22108216.547                    22108226.844
 117471953.199 7  91536615.42844  22354171.898                    22354180.738
 121925075.500 6  95006567.69344  23201574.227                    23201584.176
 125908729.624 6  98110759.414 6  23959635.734                    23959646.691
 105943487.277 8  82553391.69546  20160375.891                    20160381.656
 11  7 29 16 16 30.0000000  0 10G16G30G13G03G19G06G20G32G07G23
 109380351.121 7  85231472.20046  20814390.383                    20814397.711
 117807699.115 7  91798240.96544  22418062.484                    22418072.102
 112669143.210 7  87794161.63545  21440224.203                    21440232.523
 112388262.848 7  87575305.99945  21386774.391                    21386783.441
 122659831.911 7  95579131.45644  23341387.891                    23341396.676
 116154582.750 7  90510106.63444  22103481.586                    22103491.523
 117549840.907 7  91597307.07344  22368993.281                    22369002.332
 122016635.224 6  95077912.82844  23218997.211                    23219007.629
 125847979.272 6  98063421.565 6  23948076.141                    23948086.793
 105911776.465 8  82528681.96546  20154341.141                    20154346.844
 11  7 29 16 17  0.0000000  0 10G16G30G13G03G19G06G20G32G07G23
 109437279.946 7  85275832.29646  20825224.008                    20825230.980
 117901297.839 7  91871174.98544  22435873.469                    22435883.055
 112594506.471 7  87736003.15045  21426021.430                    21426029.422
 112330720.328 7  87530467.70645  21375824.484                    21375833.891
 122567831.496 6  95507442.85944  23323881.125                    23323890.184
 116130195.709 7  90491103.75845  22098841.313                    22098850.969
 117627986.095 7  91658199.36144  22383863.852                    22383873.207
 122108318.175 6  95149353.99644  23236444.148                    23236454.840
 125787266.278 6  98016112.790 6  23936522.992                    23936533.488
 105880502.810 8  82504312.87246  20148390.125                    20148395.941
 11  7 29 16 17 30.0000000  0 10G16G30G13G03G19G06G20G32G07G23
 109494624.790 7  85320516.57346  20836135.813                    20836143.398
 117995100.873 7  91944268.20644  22453723.273                    22453732.980
 112520100.657 7  87678024.60745  21411862.305                    21411870.641
 112273639.583 7  87485989.21445  21364962.383                    21364971.527
 122475921.187 6  95435824.51144  23306390.367                    23306399.391
 116106307.009 7  90472489.20945  22094294.930                    22094305.160
 117706386.178 7  91719290.25044  22398782.625                    22398792.418
 122200121.988 6  95220889.33944  23253913.984                    23253923.660
 125726590.446 6  97968832.995 6  23924974.789                    23924986.723
 105849668.600 8  82480286.21146  20142522.664                    20142528.605
 11  7 29 16 18  0.0000000  0 11G16G30G13G03G19G06G10G20G32G07G23
 109552381.958 7  85365522.12946  20847126.609                    20847134.512
 118089105.190 7  92017518.26044  22471612.766                    22471621.711
 112445927.866 8  87620227.64745  21397747.703                    21397756.031
 112217022.546 7  87441872.05745  21354188.523                    21354197.555
 122384103.418 6  95364278.26844  23288918.211                    23288927.172
 116082917.717 7  90454263.79845  22089844.227                    22089854.047
 129219983.18116 100690966.75452  24589752.539                    24589762.902
 117785037.844 7  91780577.18244  22413749.977                    22413759.336
 122292043.133 6  95292516.07144  23271405.656                    23271416.621
 125665950.910 6  97921581.493 6  23913436.180                    23913447.680
 105819275.286 7  82456603.10746  20136738.813                    20136744.766
 11  7 29 16 18 30.0000000  0 11G16G30G13G03G19G06G10G20G32G07G23
 109610548.399 7  85410846.61046  20858195.820                    20858202.738
 118183307.304 7  92090922.44144  22489538.367                    22489547.684
 112371989.897 8  87562613.65045  21383677.727                    21383686.094
 112160871.456 7  87398117.98245  21343503.211                    21343512.555
 122292380.962 6  95292806.25844  23271463.570                    23271473.043
 116060028.508 7  90436428.06345  22085488.906                    22085498.715
 129158210.232 5 100642831.93942  24577996.922                    24578008.293
 117863936.996 7  91842056.96845  22428764.195                    22428773.563
 122384078.439 6  95364231.77043  23288920.086                    23288930.098
 125605346.490 6  97874357.330 6  23901903.633                    23901915.449
 105789324.144 8  82433264.55146  20131039.609                    20131045.500
 11  7 29 16 19  0.0000000  0 11G16G30G13G03G19G06G10G20G32G07G23
 109669121.668 7  85456488.09646  20869341.805                    20869349.734
 118277704.549 7  92164478.69444  22507501.430                    22507510.781
 112298289.052 8  87505184.43045  21369652.805                    21369661.324
 112105188.797 7  87354728.91145  21332907.078                    21332916.289
 122200756.761 6  95221410.83544  23254027.930                    23254037.008
 116037641.045 7  90418983.30845  22081228.484                    22081238.488
 129096866.278 6 100595031.44542  24566324.305                    24566335.293
 117943080.663 7  91903727.27544  22443824.984                    22443833.453
 122476225.067 6  95436034.23143  23306454.453                    23306465.543
 125544776.778 6  97827160.218 6  23890377.703                    23890388.684
 105759817.317 8  82410272.20946  20125424.469                    20125430.176
 11  7 29 16 19 30.0000000  0 11G16G30G13G03G19G06G10G20G32G07G23
 109728100.935 7  85502445.94746  20880565.297                    20880572.891
 118372296.243 7  92238186.43244  22525501.906                    22525511.488
 112224829.860 7  87447943.51445  21355674.172                    21355682.652
 112049979.310 7  87311708.54945  21322400.828                    21322410.039
 122109235.770 6  95150095.82144  23236612.453                    23236621.125
 116015758.662 7  90401932.11145  22077064.391                    22077074.453
 129035954.757 5 100547567.88442  24554732.781                    24554744.641
 118022467.849 7  91965587.36344  22458932.008                    22458941.066
 122568482.227 6  95507922.82743  23324010.563                    23324021.605
 125484243.162 6  97779991.187 6  23878858.719                    23878869.137
 105730758.726 8  82387629.14046  20119895.023                    20119900.656
 11  7 29 16 20  0.0000000  0 11G16G30G13G03G19G06G10G20G32G07G23
 109787482.739 7  85548717.45846  20891864.844                    20891873.246
 118467078.816 7  92312042.90844  22543539.188                    22543547.480
 112151613.819 8  87390892.07945  21341741.484                    21341750.441
 111995244.648 7  87269058.18145  21311985.297                    21311994.895
 122017820.928 6  95078863.55944  23219216.320                    23219225.535
 115994382.106 7  90385275.06745  22072996.211                    22073006.555
 128975476.898 5 100500442.25442  24543224.156                    24543236.656
 118102094.687 7  92027634.18344  22474083.758                    22474093.938
 122660846.431 6  95579894.79843  23341586.805                    23341597.641
 125423744.667 6  97732849.484 6  23867346.305                    23867356.852
 105702149.215 8  82365336.01646  20114450.547                    20114456.516
 11  7 29 16 20 30.0000000  0 11G16G30G13G03G19G06G10G20G32G07G23
 109847264.258 7  85595300.43446  20903240.898                    20903248.547
 118562049.284 7  92386045.81544  22561610.203                    22561619.516
 112078643.002 7  87334031.71845  21327855.797                    21327863.973
 111940987.088 7  87226779.56845  21301660.367                    21301669.605
 121926514.800 6  95007715.96944  23201842.227                    23201850.621
 115973512.472 7  90369013.01545  22069025.266                    22069035.520
 128915433.692 5 100453655.37242  24531798.063                    24531810.094
 118181957.614 7  92089864.96544  22489281.930                    22489291.242
 122753314.409 6  95651947.64843  23359183.430                    23359193.727
 125363280.335 6  97685734.427 6  23855840.680                    23855850.668
 105673990.587 8  82343394.21546  20109092.164                    20109098.277
 11  7 29 16 21  0.0000000  0 11G16G30G13G03G19G06G10G20G32G07G23
 109907443.061 7  85642192.98446  20914693.188                    20914701.016
 118657205.537 7  92460193.47144  22579718.141                    22579727.238
 112005920.466 8  87277364.82045  21314016.938                    21314025.617
 111887209.736 7  87184875.15045  21291427.117                    21291436.063
 121835320.987 7  94936655.87944  23184488.406                    23184496.336
 115953151.772 7  90353147.53345  22065150.398                    22065160.055
 128855827.385 6 100407208.96742  24520456.672                    24520467.910
 118262054.247 7  92152277.83444  22504524.125                    22504533.258
 122845883.819 6  95724079.54543  23376798.586                    23376808.973
 125302850.316 7  97638646.139 5  23844340.836                    23844350.480
 105646284.974 8  82321805.42546  20103820.211                    20103826.184
 11  7 29 16 21 30.0000000  0 11G16G30G13G03G19G06G10G20G32G07G23
 109968016.090 7  85689392.71746  20926219.891                    20926227.258
 118752544.106 7  92534483.22244  22597860.984                    22597870.102
 111933447.975 7  87220892.77745  21300225.750                    21300234.406
 111833914.666 7  87143346.52445  21281285.453                    21281294.426
 121744242.167 6  94865685.41344  23167157.125                    23167165.336
 115933300.564 7  90337679.05545  22061373.609                    22061382.707
 128796659.237 6 100361103.89442  24509196.258                    24509207.980
 118342380.636 7  92214869.75444  22519809.383                    22519818.121
 122938551.433 6  95796287.96443  23394432.711                    23394443.355
 125242453.424 6  97591583.622 5  23832847.844                    23832857.340
 105619033.757 8  82300570.70446  20098634.195                    20098640.359
 11  7 29 16 22  0.0000000  0 11G16G30G13G03G19G06G10G20G32G07G23
 110028981.512 7  85736898.21246  20937820.469                    20937828.160
 118848063.492 6  92608913.86244  22616037.641                    22616047.121
 111861229.092 7  87164618.35445  21286483.031                    21286491.340
 111781105.522 7  87102196.55145  21271235.961                    21271245.582
 121653282.377 7  94794807.67344  23149847.898                    23149855.559
 115913961.435 7  90322609.59945  22057693.531                    22057702.387
 128737931.570 6 100315341.99842  24498020.688                    24498032.305
 118422934.921 7  92277639.25144  22535138.555                    22535147.703
 123031315.552 6  95868571.54943  23412085.313                    23412095.770
 125182090.310 7  97544547.431 5  23821361.375                    23821370.402
 105592239.896 8  82279692.37146  20093535.508                    20093541.305
 11  7 29 16 22 30.0000000  0 11G16G30G13G03G19G06G10G20G32G07G23
 110090336.450 7  85784707.23446  20949496.508                    20949504.168
 118943760.810 6  92683483.16044  22634247.227                    22634257.367
 111789265.801 8  87108543.07745  21272789.367                    21272797.449
 111728784.606 7  87061427.01445  21261279.289                    21261289.359
 121562444.854 7  94724025.22644  23132561.766                    23132570.227
 115895135.390 7  90307939.93845  22054110.844                    22054120.004
 128679645.488 5 100269924.26542  24486928.570                    24486940.891
 118503713.703 7  92340583.68144  22550509.656                    22550519.535
 123124172.820 6  95940927.73043  23429755.602                    23429766.160
 125121760.152 6  97497536.908 6  23809880.680                    23809889.957
 105565904.911 8  82259171.60146  20088524.141                    20088530.066
 11  7 29 16 23  0.0000000  0 11G16G30G13G03G19G06G10G20G32G07G23
 110152078.505 7  85832817.89846  20961245.820                    20961253.293
 119039633.264 6  92758188.90644  22652491.586                    22652501.832
 111717560.346 7  87052668.73345  21259143.414                    21259152.215
 111676954.299 7  87021039.77345  21251416.461                    21251426.168
 121471732.372 6  94653340.23144  23115299.430                    23115308.344
 115876823.858 7  90293671.21045  22050626.523                    22050635.184
 128621802.788 5 100224852.03842  24475922.258                    24475933.508
 118584713.899 7  92403700.64244  22565924.039                    22565933.617
 123217120.825 6  96013354.61443  23447442.781                    23447453.422
 125061462.866 7  97450552.045 6  23798406.938                    23798415.902
 105540030.857 8  82239009.99046  20083600.539                    20083606.469
 11  7 29 16 23 30.0000000  0 11G16G30G13G03G19G06G10G20G32G07G23
 110214204.873 7  85881228.02646  20973067.703                    20973075.371
 119135678.517 7  92833029.32944  22670769.492                    22670778.559
 111646115.658 8  86996997.57745  21245548.531                    21245556.844
 111625617.529 7  86981037.09545  21241647.234                    21241657.102
 121381148.319 7  94582755.33244  23098062.320                    23098070.309
 115859028.227 7  90279804.49545  22047239.727                    22047248.297
 128564405.532 5 100180126.81642  24464999.766                    24465011.855
 118665932.750 7  92466987.97844  22581379.320                    22581388.969
 123310156.978 6  96085850.18943  23465147.602                    23465158.156
 125001197.929 6  97403592.398 6  23786938.523                    23786948.754
 105514619.750 8  82219209.12846  20078765.055                    20078770.855
 11  7 29 16 24  0.0000000  0 11G16G30G13G03G19G06G10G20G32G07G23
 110276713.005 7  85929935.63646  20984962.844                    20984970.336
 119231894.198 7  92908002.53344  22689078.055                    22689088.203
 111574934.166 7  86941531.50945  21232003.359                    21232011.398
 111574776.825 7  86941420.98745  21231972.828                    21231982.461
 121290696.095 6  94512273.12244  23080849.070                    23080857.848
 115841749.962 7  90266340.90945  22043951.867                    22043960.805
 128507455.177 5 100135749.91942  24454162.633                    24454174.738
 118747367.356 7  92530443.43344  22596875.977                    22596884.957
 123403278.393 6  96158412.20343  23482868.156                    23482878.699
 124940964.850 6  97356657.594 6  23775475.891                    23775486.641
 105489673.366 8  82199770.38346  20074017.516                    20074023.613
 11  7 29 16 24 30.0000000  0 11G16G30G13G03G19G06G10G20G32G07G23
 110339600.294 7  85978938.69546  20996930.016                    20996937.477
 119328277.635 7  92983106.44344  22707419.500                    22707429.262
 111504018.591 8  86886272.63845  21218508.047                    21218516.582
 111524434.465 7  86902193.18545  21222393.023                    21222402.000
 121200379.081 6  94441896.30044  23063662.539                    23063671.223
 115824990.249 7  90253281.40245  22040762.805                    22040771.648
 128450952.906 5 100091722.21643  24443410.172                    24443423.055
 118829014.595 7  92594064.57344  22612413.125                    22612422.113
 123496482.442 6  96231038.62043  23500604.117                    23500614.559
 124880763.636 6  97309747.582 6  23764019.789                    23764030.707
 105465193.572 8  82180695.20946  20069359.602                    20069365.195
 11  7 29 16 25  0.0000000  0 11G16G30G13G03G19G06G10G20G32G07G23
 110402863.573 7  86028234.72346  21008968.586                    21008975.977
 119424825.681 7  93058338.62344  22725791.953                    22725802.324
 111433370.652 8  86831222.31445  21205064.484                    21205072.602
 111474592.738 7  86863355.50045  21212908.258                    21212917.781
 121110199.811 7  94371626.81444  23046501.938                    23046510.406
 115808749.857 7  90240626.55245  22037672.313                    22037681.090
 128394899.977 5 100048044.60343  24432744.297                    24432756.180
 118910870.538 7  92657848.34944  22627989.711                    22627999.156
 123589765.770 6  96303726.78943  23518355.242                    23518366.422
 124820593.259 6  97262861.631 6  23752569.727                    23752580.848
 105441181.539 8  82161984.52546  20064790.313                    20064796.121
 11  7 29 16 25 30.0000000  0 11G16G30G13G03G19G06G10G20G32G07G23
 110466500.630 7  86077822.01546  21021078.266                    21021085.590
 119521536.514 6  93133697.63444  22744195.266                    22744205.234
 111362993.907 8  86776383.31045  21191672.578                    21191680.305
 111425254.923 7  86824910.45845  21203519.969                    21203529.031
 121020162.385 6  94301467.85644  23029368.008                    23029376.867
 115793030.785 7  90228377.92445  22034681.000                    22034689.668
 128339298.641 5 100004718.91043  24422163.820                    24422175.148
 118992933.200 7  92721793.19944  22643605.609                    22643614.652
 123683126.507 6  96376475.24744  23536121.766                    23536132.473
 124760453.846 6  97215999.781 6  23741125.789                    23741136.211
 105417640.062 8  82143640.52046  20060310.516                    20060316.359
 11  7 29 16 26  0.0000000  0 11G16G30G13G03G19G06G10G20G32G07G23
 110530508.846 7  86127698.50846  21033258.719                    21033266.188
 119618407.153 6  93209181.18444  22762628.563                    22762638.453
 111292890.270 8  86721757.10945  21178331.711                    21178340.012
 111376422.770 8  86786859.43645  21194227.586                    21194236.629
 120930269.829 6  94231421.76244  23012262.164                    23012271.273
 115777834.171 7  90216536.41545  22031788.938                    22031798.129
 128284150.128 5  99961746.10142  24411668.711                    24411681.102
 119075199.488 7  92785896.72044  22659260.711                    22659270.543
 123776561.678 6  96449281.77443  23553902.281                    23553913.078
 124700345.015 6  97169161.785 6  23729687.414                    23729698.164
 105394570.704 8  82125664.38846  20055920.438                    20055926.457
 11  7 29 16 26 30.0000000  0 11G16G30G13G03G19G06G10G20G32G07G23
 110594886.035 8  86177862.52545  21045509.313                    21045516.426
 119715435.715 6  93284787.79944  22781093.188                    22781102.004
 111223062.661 7  86667346.01945  21165043.602                    21165052.137
 111328099.492 7  86749204.94045  21185031.664                    21185040.859
 120840525.502 7  94161491.16544  22995184.219                    22995193.191
 115763161.494 7  90205103.15845  22028997.125                    22029005.789
 128229456.219 5  99919127.44042  24401261.391                    24401273.016
 119157666.462 7  92850156.61144  22674953.859                    22674963.320
 123870069.184 6  96522144.62143  23571695.594                    23571707.398
 124640266.796 6  97122347.660 6  23718254.750                    23718266.234
 105371975.411 8  82108057.65146  20051620.719                    20051626.285
 11  7 29 16 27  0.0000000  0 11G16G30G13G03G19G06G10G20G32G07G23
 110659628.830 7  86228311.42346  21057829.516                    21057836.461
 119812619.197 7  93360515.11544  22799586.313                    22799596.449
 111153513.106 7  86613151.57245  21151808.664                    21151817.270
 111280287.376 8  86711948.76945  21175933.664                    21175942.738
 120750932.387 6  94091678.41944  22978135.703                    22978144.063
 115749013.398 7  90194078.67345  22026304.805                    22026313.418
 128175217.771 5  99876863.73742  24390940.352                    24390952.012
 119240330.314 7  92914569.94544  22690683.875                    22690693.848
 123963645.477 6  96595061.07143  23589502.781                    23589513.738
 124580218.191 6  97075556.606 6  23706828.383                    23706838.977
 105349855.733 8  82090821.53746  20047411.570                    20047417.004
 11  7 29 16 27 30.0000000  0 11G16G30G13G03G19G06G10G20G32G07G23
 110724734.963 8  86279043.43345  21070218.797                    21070226.027
 119909955.539 6  93436361.54244  22818109.797                    22818118.984
 111084244.769 8  86559176.25945  21138627.773                    21138636.133
 111232988.593 7  86675092.58245  21166932.727                    21166942.152
 120661494.433 7  94021986.56444  22961116.305                    22961124.504
 115735391.728 7  90183464.38245  22023712.242                    22023721.512
 128121437.275 5  99834956.83942  24380706.578                    24380718.344
 119323189.168 7  92979135.19044  22706451.398                    22706461.109
 124057288.323 6  96668029.37943  23607322.656                    23607333.375
 124520199.291 6  97028788.676 6  23695407.352                    23695417.211
 105328213.945 8  82073957.79546  20043293.148                    20043299.105
 11  7 29 16 28  0.0000000  0 11G16G30G13G03G19G06G10G20G32G07G23
 110790201.757 7  86330056.48445  21082676.938                    21082684.043
 120007441.450 7  93512324.54044  22836660.406                    22836670.102
 111015259.518 7  86505421.54745  21125500.172                    21125508.535
 111186205.317 7  86638638.09645  21158030.063                    21158039.523
 120572213.880 7  93952417.33544  22944126.547                    22944134.938
 115722296.805 7  90173260.55845  22021220.344                    22021229.867
 128068114.92415  99793406.94453  24370559.461                    24370571.578
 119406238.998 7  93043849.26244  22722256.094                    22722265.227
 124150994.696 6  96741047.18743  23625154.125                    23625165.395
 124460209.324 6  96982043.327 6  23683990.883                    23684001.547
 105307051.101 8  82057467.26146  20039265.906                    20039271.734
 11  7 29 16 28 30.0000000  0 11G16G30G13G03G19G06G10G20G32G07G23
 110856025.447 7  86381347.63746  21095202.445                    21095210.344
 120105074.317 7  93588402.05344  22855238.992                    22855248.422
 110946559.594 8  86451889.16445  21112427.172                    21112435.445
 111139939.463 7  86602586.79645  21149225.805                    21149235.461
 120483094.084 7  93882973.37544  22927167.289                    22927175.547
 115709729.737 7  90163468.04345  22018829.055                    22018837.969
 128015252.325 6  99752215.34142  24360499.414                    24360512.145
 119489476.677 7  93108709.70944  22738095.273                    22738104.719
 124244761.499 6  96814112.10143  23642997.547                    23643009.070
 124400247.630 6  96935320.020 6  23672580.258                    23672591.152
 105286368.512 8  82041350.94946  20035330.266                    20035336.031
 11  7 29 16 29  0.0000000  0 11G16G30G13G03G19G06G10G20G32G07G23
 110922204.448 7  86432915.64646  21107795.641                    21107803.305
 120202852.432 7  93664592.75744  22873846.164                    22873855.406
 110878148.285 7  86398581.67645  21099408.695                    21099417.074
 111094194.428 7  86566941.32245  21140521.125                    21140530.563
 120394138.960 7  93813657.75145  22910240.148                    22910248.223
 115697692.321 7  90154088.23944  22016539.070                    22016546.906
 127962851.669 6  99711383.68843  24350528.875                    24350539.574
 119572899.792 7  93173714.66444  22753969.469                    22753979.734
 124338587.016 6  96887222.72943  23660851.797                    23660863.109
 124340314.687 6  96888619.073 6  23661175.914                    23661186.191
 105266169.077 8  82025611.12146  20031486.445                    20031491.980
 11  7 29 16 29 30.0000000  0 11G16G30G13G03G19G06G10G20G32G07G23
 110988736.721 8  86484758.94645  21120456.938                    21120464.012
 120300773.282 7  93740894.67244  22892479.602                    22892489.566
 110810027.811 8  86345500.81445  21086446.000                    21086453.609
 111048972.552 7  86531703.51245  21131915.523                    21131924.918
 120305351.838 7  93744473.02544  22893344.297                    22893352.465
 115686185.678 7  90145122.03445  22014348.781                    22014357.129
 127910914.165 6  99670912.96343  24340644.609                    24340656.590
 119656505.113 7  93238861.57844  22769880.125                    22769889.660
 124432468.288 6  96960376.82343  23678716.523                    23678727.914
 124280410.080 6  96841940.189 6  23649776.305                    23649786.785
 105246454.385 8  82010249.01346  20027734.938                    20027740.492
 11  7 29 16 30  0.0000000  0 11G16G30G13G03G19G06G10G20G32G07G23
 111055618.844 7  86536874.85545  21133183.656                    21133191.395
 120398834.324 6  93817305.81844  22911140.281                    22911149.809
 110742201.093 8  86292648.85445  21073538.945                    21073546.918
 111004276.266 7  86496875.24845  21123410.289                    21123419.156
 120216735.611 7  93675421.47144  22876481.398                    22876489.215
 115675210.675 7  90136570.05344  22012260.148                    22012268.465
 127859441.169 6  99630804.13343  24330850.516                    24330861.488
 119740289.961 7  93304148.38444  22785823.898                    22785832.926
 124526402.903 6  97033572.48043  23696592.953                    23696603.535
 124220533.717 6  96795283.335 6  23638382.016                    23638392.922
 105227226.299 8  81995266.07846  20024075.844                    20024081.734
 11  7 29 16 30 30.0000000  0 11G16G30G13G03G19G06G10G20G32G07G23
 111122848.092 7  86589261.24545  21145977.539                    21145984.320
 120497032.958 6  93893824.19844  22929826.180                    22929837.203
 110674670.368 7  86240027.53245  21060688.391                    21060696.352
 110960107.305 7  86462457.88645  21115004.969                    21115014.645
 120128293.831 7  93606505.84744  22859651.602                    22859659.410
 115664768.427 7  90128433.23545  22010273.242                    22010282.551
 127808434.116 6  99591058.43943  24321143.531                    24321155.313
 119824250.975 6  93369572.45544  22801800.820                    22801810.957
 124620387.846 6  97106807.35143  23714477.523                    23714488.742
 124160684.805 6  96748647.867 6  23626993.211                    23627003.836
 105208486.029 8  81980663.26046  20020509.719                    20020515.402
 11  7 29 16 31  0.0000000  0 11G16G30G13G03G19G06G10G20G32G07G23
 111190421.377 7  86641915.72245  21158835.695                    21158843.793
 120595366.487 6  93970447.64744  22948538.633                    22948549.363
 110607438.470 7  86187639.06445  21047894.352                    21047902.734
 110916467.955 7  86428453.20745  21106700.711                    21106709.742
 120040029.129 7  93537728.20344  22842855.039                    22842863.098
 115654859.371 7  90120711.90445  22008387.484                    22008397.457
 127757894.210 6  99551676.74143  24311526.016                    24311537.891
 119908384.913 7  93435131.27744  22817811.203                    22817820.668
 124714419.989 6  97180079.01043  23732371.961                    23732382.441
 124100862.452 7  96702033.090 6  23615609.820                    23615620.117
 105190235.018 8  81966441.68046  20017036.859                    20017042.617
 11  7 29 16 31 30.0000000  0 11G16G30G13G03G19G06G10G20G32G07G23
 111258336.542 7  86694836.60645  21171759.750                    21171767.664
 120693832.764 6  94047174.56444  22967275.133                    22967286.352
 110540507.570 7  86135485.14245  21035157.898                    21035165.789
 110873360.892 8  86394863.28245  21098497.781                    21098506.660
 119951945.556 7  93469091.72744  22826093.094                    22826101.457
 115645485.064 7  90113407.25845  22006603.383                    22006613.367
 127707822.901 6  99512660.19443  24301997.875                    24302009.430
 119992689.157 6  93500822.83144  22833853.656                    22833863.191
 124808497.346 6  97253385.87343  23750273.641                    23750285.445
 124041067.178 7  96655439.435 6  23604230.430                    23604241.164
 105172475.455 8  81952603.05046  20013656.938                    20013662.973
 11  7 29 16 32  0.0000000  0 11G16G30G13G03G19G06G10G20G32G07G23
 111326591.056 7  86748021.90545  21184748.500                    21184755.613
 120792429.452 6  94124003.06944  22986039.414                    22986049.063
 110473880.212 7  86083567.72745  21022479.008                    21022487.043
 110830788.277 7  86361689.82545  21090396.414                    21090405.305
 119864046.248 6  93400598.83544  22809365.984                    22809374.570
 115636646.485 7  90106520.05444  22004922.164                    22004930.840
 127658221.008 6  99474009.40043  24292558.711                    24292571.098
 120077160.526 6  93566644.58544  22849928.203                    22849937.578
 124902616.954 6  97326725.66843  23768184.141                    23768196.035
 123981298.422 6  96608866.428 6  23592856.711                    23592867.480
 105155208.963 8  81939148.62546  20010371.555                    20010377.570
 11  7 29 16 32 30.0000000  0 11G16G30G13G03G19G06G10G20G32G07G23
 111395183.141 7  86801470.24745  21197801.016                    21197808.625
 120891154.459 7  94200931.59344  23004825.563                    23004835.598
 110407559.402 8  86031889.18645  21009858.758                    21009866.742
 110788752.637 7  86328934.78645  21082396.906                    21082406.391
 119776334.752 7  93332252.28944  22792675.039                    22792683.793
 115628344.856 7  90100051.25745  22003341.523                    22003351.082
 127609090.679 6  99435726.02343  24283210.414                    24283221.211
 120161796.565 7  93632594.63844  22866034.117                    22866043.730
 124996776.739 6  97400096.78043  23786102.430                    23786114.016
 123921556.501 7  96562314.329 6  23581488.406                    23581498.445
 105138437.544 8  81926079.97446  20007179.867                    20007186.098
 11  7 29 16 33  0.0000000  0 11G16G30G13G03G19G06G10G20G32G07G23
 111464109.30417  86855179.14355  21210916.805                    21210924.441
 120990003.83417  94277956.80354  23023636.664                    23023646.652
 110341547.243 7  85980451.15645  20997296.992                    20997304.898
 110747255.482 7  86296599.34945  21074500.984                    21074509.762
 119688813.897 7  93264054.27044  22776020.773                    22776028.477
 115620580.629 7  90094001.22745  22001864.055                    22001874.043
 127560432.415 6  99397810.57443  24273950.656                    24273962.047
 120246593.343 7  93698669.96344  22882170.039                    22882180.195
 125090973.438 6  97473496.67043  23804027.875                    23804038.965
 123861840.462 7  96515782.371 6  23570125.117                    23570134.465
 105122162.173 8  81913397.85646  20004083.094                    20004088.957
 11  7 29 16 33 30.0000000  0 11G16G30G13G03G19G06G10G20G32G07G23
 111533365.791 7  86909145.20045  21224096.094                    21224103.746
 121088977.615 7  94355079.16444  23042470.570                    23042480.457
 110275846.558 8  85929255.83645  20984794.516                    20984802.773
 110706299.459 7  86264685.56845  21066706.672                    21066716.016
 119601487.556 7  93196007.81444  22759402.867                    22759411.035
 115613355.214 7  90088371.02345  22000489.969                    22000498.473
 127512248.329 6  99360264.54343  24264781.391                    24264792.695
 120331548.567 7  93764868.74744  22898336.555                    22898346.367
 125185204.819 6  97546923.56543  23821959.297                    23821970.664
 123802150.509 7  96469270.759 6  23558766.828                    23558776.230
 105106385.050 8  81901103.98446  20001080.742                    20001086.176
 11  7 29 16 34  0.0000000  0 11G16G30G13G03G19G06G10G20G32G07G23
 111602950.545 7  86963367.05445  21237337.844                    21237345.539
 121188071.760 7  94432295.34444  23061327.477                    23061337.367
 110210459.629 8  85878304.99545  20972351.797                    20972359.934
 110665886.491 7  86233194.94945  21059017.117                    21059026.148
 119514358.254 7  93128114.89945  22742823.195                    22742830.898
 115606668.813 7  90083160.83945  21999216.773                    21999226.270
 127464538.910 6  99323088.36243  24255702.875                    24255713.875
 120416658.701 7  93831188.22544  22914532.883                    22914542.637
 125279467.746 6  97620375.02943  23839896.961                    23839908.484
 123742485.588 7  96422778.672 6  23547412.641                    23547421.660
 105091107.120 8  81889199.09046  19998173.430                    19998179.309
 11  7 29 16 34 30.0000000  0 11G16G30G13G03G19G06G10G20G32G07G23
 111672861.125 7  87017842.80645  21250641.234                    21250648.859
 121287284.176 7  94509603.67144  23080207.164                    23080216.770
 110145388.906 8  85827600.55745  20959969.063                    20959977.031
 110626019.059 8  86202129.41845  21051430.188                    21051439.066
 119427429.433 7  93060378.19145  22726280.641                    22726288.637
 115600522.560 7  90078371.55544  21998047.797                    21998056.980
 127417305.462 6  99286283.12043  24246714.000                    24246725.793
 120501920.883 7  93897626.20944  22930757.813                    22930767.512
 125373759.709 6  97693849.13443  23857839.953                    23857852.160
 123682845.735 7  96376306.075 6  23536063.813                    23536073.145
 105076330.154 8  81877684.56046  19995361.375                    19995367.102
 11  7 29 16 35  0.0000000  0 11G16G30G13G03G19G06G10G20G32G07G23
 111743094.612 7  87072570.16445  21264006.266                    21264014.395
 121386612.359 7  94587002.19244  23099108.719                    23099118.195
 110080636.910 8  85777144.47045  20947647.203                    20947655.500
 110586698.856 7  86171490.29445  21043947.406                    21043956.590
 119340704.488 7  92992800.35444  22709777.711                    22709785.566
 115594917.042 7  90074003.61545  21996981.141                    21996990.141
 127370549.233 6  99249849.71543  24237817.633                    24237828.293
 120587331.921 7  93964180.15444  22947011.719                    22947020.871
 125468077.934 6  97767343.68943  23875788.594                    23875799.965
 123623230.629 7  96329852.828 6  23524719.039                    23524729.156
 105062055.800 8  81866561.66646  19992645.211                    19992650.969
 11  7 29 16 35 30.0000000  0 11G16G30G13G03G19G06G10G20G32G07G23
 111813649.088 7  87127547.63645  21277432.031                    21277440.199
 121486054.639 7  94664489.63743  23118032.242                    23118041.465
 110016207.075 8  85726939.41345  20935386.766                    20935394.555
 110547928.882 7  86141279.93345  21036569.680                    21036578.961
 119254187.351 7  92925384.44844  22693313.492                    22693321.852
 115589853.853 7  90070058.28044  21996017.727                    21996025.992
 127324271.992 6  99213789.58143  24229010.727                    24229022.699
 120672889.157 7  94030848.06244  22963292.422                    22963301.836
 125562420.523 6  97840857.23243  23893741.031                    23893752.988
 123563640.503 7  96283418.990 6  23513379.563                    23513389.176
 105048286.109 8  81855832.01246  19990024.852                    19990030.762
 11  7 29 16 36  0.0000000  0 11G16G30G13G03G19G06G10G20G32G07G23
 111884521.286 7  87182772.70745  21290919.125                    21290926.781
 121585607.951 7  94742063.58944  23136976.523                    23136985.988
 109952101.192 7  85676986.79345  20923187.992                    20923196.016
 110509710.278 7  86111499.20745  21029297.016                    21029306.715
 119167880.625 7  92858132.48944  22676890.297                    22676898.574
 115585333.031 7  90066535.57844  21995157.570                    21995166.180
 127278474.161 6  99178102.94343  24220296.289                    24220307.145
 120758589.636 7  94097627.57944  22979600.766                    22979610.313
 125656784.258 6  97914387.26243  23911698.813                    23911710.242
 123504074.454 7  96237003.953 6  23502043.844                    23502054.219
 105035021.989 8  81845496.32046  19987500.664                    19987506.797
 11  7 29 16 36 30.0000000  0 11G16G30G13G03G19G06G10G20G32G07G23
 111955708.647 8  87238243.34645  21304465.469                    21304473.098
 121685270.226 6  94819722.44243  23155941.094                    23155951.637
 109888321.891 8  85627288.65245  20911051.289                    20911058.957
 110472045.519 7  86082150.04545  21022130.063                    21022138.871
 119081787.789 7  92791047.20344  22660507.344                    22660515.176
 115581355.803 7  90063436.41845  21994399.859                    21994408.766
 127233156.923 5  99142790.84043  24211671.719                    24211683.809
 120844430.023 7  94164516.06144  22995935.953                    22995945.652
 125751166.607 6  97987931.76743  23929658.273                    23929670.852
 123444532.704 6  96190607.843 6  23490713.500                    23490724.309
 105022265.116 8  81835555.88246  19985073.156                    19985079.047
 11  7 29 16 37  0.0000000  0 11G16G30G13G03G19G06G10G20G32G07G23
 112027208.387 8  87293957.39445  21318071.406                    21318079.172
 121785038.998 6  94897464.26344  23174926.414                    23174936.980
 109824871.699 8  85577846.94346  20898976.570                    20898984.758
 110434936.420 7  86053233.86645  21015068.461                    21015077.105
 118995911.922 7  92724130.97044  22644165.164                    22644173.320
 115577922.485 7  90060761.08844  21993746.805                    21993755.855
 127188321.786 5  99107854.37943  24203141.133                    24203151.969
 120930407.690 7  94231511.53944  23012297.008                    23012306.586
 125845564.894 6  98061488.69843  23947622.492                    23947633.586
 123385014.718 6  96144230.212 6  23479387.820                    23479397.539
 105010017.016 8  81826011.88346  19982742.484                    19982748.465
 11  7 29 16 37 30.0000000  0 11G16G30G13G03G19G06G10G20G32G07G23
 112099018.331 8  87349913.16145  21331736.641                    21331744.461
 121884912.586 6  94975287.77943  23193932.047                    23193942.184
 109761753.878 7  85528664.24745  20886965.922                    20886973.773
 110398385.593 7  86024752.71045  21008112.609                    21008121.770
 118910257.337 7  92657387.17344  22627865.805                    22627873.590
 115575034.613 7  90058510.78745  21993197.586                    21993206.773
 127143969.968 5  99073294.50443  24194699.273                    24194711.676
 121016519.827 7  94298611.80044  23028683.141                    23028693.172
 125939976.964 6  98135056.34743  23965588.891                    23965600.605
 123325520.860 6  96097871.406 6  23468066.688                    23468076.676
 104998279.702 8  81816865.90546  19980508.859                    19980514.813
 11  7 29 16 38  0.0000000  0 11G16G30G13G03G19G06G10G20G32G07G23
 112171134.749 8  87406107.73146  21345459.938                    21345467.543
 121984887.457 7  95053190.19043  23212956.852                    23212966.488
 109698969.641 7  85479741.45946  20875018.313                    20875026.504
 110362394.320 7  85996707.54545  21001264.164                    21001273.082
 118824825.795 7  92590817.17644  22611608.383                    22611616.688
 115572691.564 7  90056685.01445  21992751.617                    21992760.504
 127100101.785 6  99039111.48842  24186352.211                    24186363.785
 121102762.178 6  94365813.50244  23045094.609                    23045104.473
 126034399.221 6  98208631.92543  23983556.438                    23983568.727
 123266049.739 6  96051530.343 6  23456749.305                    23456759.652
 104987053.404 8  81808118.12146  19978372.664                    19978378.996
 11  7 29 16 38 30.0000000  0 11G16G30G13G03G19G06G10G20G32G07G23
 112243555.679 8  87462539.58446  21359241.258                    21359248.695
 122084961.854 7  95131170.16644  23232000.563                    23232010.105
 109636522.419 7  85431081.29045  20863135.281                    20863143.547
 110326964.734 7  85969100.08545  20994521.578                    20994531.301
 118739621.354 7  92524424.13344  22595395.125                    22595402.777
 115570894.823 7  90055284.93645  21992409.438                    21992419.000
 127056719.119 5  99005306.87642  24178096.289                    24178108.668
 121189132.858 7  94433115.24044  23061530.711                    23061539.563
 126128829.792 6  98282214.01643  24001526.180                    24001538.109
 123206601.689 6  96005207.209 6  23445437.063                    23445446.980
 104976340.379 8  81799770.29346  19976334.305                    19976340.246
 11  7 29 16 39  0.0000000  0 11G16G30G13G03G19G06G10G20G32G07G23
 112316278.686 8  87519206.81545  21373080.102                    21373087.438
 122185133.831 6  95209226.18043  23251062.742                    23251072.027
 109574414.885 7  85382685.82045  20851316.461                    20851324.594
 110292099.159 7  85941932.10945  20987887.266                    20987896.711
 118654647.505 7  92458210.76644  22579224.867                    22579233.086
 115569645.214 7  90054311.18845  21992171.945                    21992180.902
 127013823.375 5  98971881.57343  24169934.094                    24169946.195
 121275629.252 6  94500514.91844  23077990.258                    23077999.953
 126223266.197 6  98355800.62843  24019497.047                    24019509.086
 123147176.770 6  95958902.128 6  23434129.359                    23434138.680
 104966142.538 8  81791823.89946  19974393.688                    19974399.184
 11  7 29 16 39 30.0000000  0 11G16G30G13G03G19G06G10G20G32G07G23
 112389300.480 8  87576106.87345  21386975.672                    21386983.332
 122285400.597 7  95287356.07943  23270143.133                    23270152.199
 109512648.772 7  85334556.39645  20839562.773                    20839570.617
 110257798.723 7  85915204.49945  20981360.156                    20981369.520
 118569907.352 7  92392179.52445  22563099.398                    22563107.895
 115568942.837 7  90053763.86845  21992038.133                    21992047.551
 126971414.317 5  98938835.59542  24161863.836                    24161876.184
 121362247.275 6  94568009.36244  23094472.852                    23094483.074
 126317705.261 6  98429389.34843  24037468.742                    24037480.277
 123087774.204 6  95912614.439 6  23422825.227                    23422834.836
 104956460.325 8  81784279.30146  19972551.195                    19972556.977
 11  7 29 16 40  0.0000000  0 11G16G30G13G03G19G06G10G20G32G07G23
 112462618.363 8  87633237.65245  21400927.422                    21400935.406
 122385760.002 7  95365558.14444  23289241.180                    23289251.047
 109451227.020 7  85286695.30546  20827874.438                    20827882.254
 110224065.645 7  85888918.99345  20974940.852                    20974950.535
 118485403.994 7  92326332.78845  22547019.195                    22547027.289
 115568788.252 6  90053643.40244  21992008.625                    21992018.188
 126929493.204 5  98906169.87842  24153885.781                    24153898.855
 121448984.188 6  94635596.46244  23110979.016                    23110988.660
 126412144.665 6  98502978.28943  24055440.516                    24055451.820
 123028393.887 6  95866344.110 6  23411524.984                    23411534.902
 104947294.856 8  81777137.36146  19970807.430                    19970813.031
 11  7 29 16 40 30.0000000  0 11G16G30G13G03G19G06G10G20G32G07G23
 112536230.352 8  87690597.61345  21414935.320                    21414942.863
 122486210.184 7  95443830.95644  23308356.047                    23308365.863
 109390152.488 7  85239104.77546  20816252.406                    20816260.039
 110190902.342 7  85863077.47645  20968630.023                    20968639.027
 118401141.157 7  92260673.48945  22530984.320                    22530992.270
 115569182.572 7  90053950.65845  21992083.727                    21992093.176
 126888061.862 5  98873885.65042  24146001.148                    24146014.230
 121535837.466 6  94703274.23444  23127505.922                    23127516.781
 126506581.948 6  98576565.59643  24073410.289                    24073422.730
 122969035.818 6  95820091.154 6  23400228.805                    23400239.477
 104938648.599 8  81770399.99946  19969161.844                    19969167.453
 11  7 29 16 41  0.0000000  0 11G16G30G13G03G19G06G10G20G32G07G23
 112610133.366 8  87748184.33945  21428998.680                    21429006.336
 122586748.688 6  95522172.56344  23327488.406                    23327498.121
 109329427.562 7  85191786.66545  20804696.578                    20804704.961
 110158310.704 7  85837681.39645  20962427.711                    20962437.246
 118317121.870 7  92195203.96245  22514995.711                    22515003.430
 115570125.992 7  90054685.76845  21992263.109                    21992272.887
 126847120.826 5  98841983.57242  24138211.156                    24138223.477
 121622803.856 6  94771040.14744  23144056.078                    23144065.859
 126601014.656 6  98650149.36043  24091380.617                    24091393.305
 122909699.804 6  95773855.333 6  23388937.891                    23388948.309
 104930522.708 8  81764068.12246  19967615.563                    19967621.305
 11  7 29 16 41 30.0000000  0 11G16G30G13G03G19G06G10G20G32G07G23
 112684325.095 8  87805996.04045  21443117.047                    21443124.438
 122687373.239 6  95600581.25344  23346635.977                    23346646.180
 109269054.897 7  85144743.04545  20793208.383                    20793216.629
 110126292.250 7  85812731.97345  20956335.430                    20956344.105
 118233349.485 7  92129926.82245  22499054.227                    22499062.020
 115571619.328 7  90055849.39145  21992547.617                    21992556.867
 126806671.040 5  98810464.34743  24130514.227                    24130526.020
 121709880.358 6  94838891.83944  23160626.391                    23160635.688
 126695440.043 6  98723727.40143  24109350.094                    24109361.746
 122850385.798 6  95727636.695 7  23377650.898                    23377661.375
 104922918.743 8  81758142.94146  19966168.641                    19966174.332
 11  7 29 16 42  0.0000000  0 11G16G30G13G03G19G06G10G20G32G07G23
 112758802.176 7  87864030.08545  21457289.508                    21457297.281
 122788081.252 7  95679054.96143  23365800.031                    23365809.754
 109209036.774 7  85097975.68846  20781787.141                    20781795.270
 110094848.498 7  85788230.35845  20950352.047                    20950360.340
 118149827.095 7  92064844.48445  22483160.250                    22483168.652
 115573662.545 7  90057441.51345  21992936.219                    21992945.965
 126766713.568 6  98779328.65342  24122910.633                    24122922.375
 121797064.182 6  94906827.15844  23177216.656                    23177226.637
 126789855.281 6  98797297.50543  24127316.289                    24127328.715
 122791093.173 6  95681434.720 6  23366367.828                    23366378.535
 104915837.512 8  81752625.08646  19964820.844                    19964827.078
 11  7 29 16 42 30.0000000  0 11G16G30G13G03G19G06G10G20G32G07G23
 112833562.188 7  87922284.60145  21471516.031                    21471522.910
 122888870.596 7  95757592.07044  23384979.727                    23384989.023
 109149375.498 8  85051486.38945  20770434.430                    20770442.125
 110063981.189 7  85764177.92345  20944477.430                    20944486.723
 118066557.950 7  91999959.51145  22467314.430                    22467322.863
 115576256.375 7  90059462.67245  21993429.789                    21993439.324
 126727248.898 6  98748576.96543  24115400.719                    24115411.586
 121884352.119 6  94974843.64144  23193827.117                    23193836.973
 126884257.976 6  98870857.85843  24145280.484                    24145292.766
 122731821.598 6  95635249.105 7  23355089.625                    23355099.281
 104909279.905 8  81747515.24946  19963572.805                    19963578.898
 11  7 29 16 43  0.0000000  0 11G16G30G13G03G19G06G10G20G32G07G23
 112908602.512 7  87980757.55145  21485795.805                    21485803.121
 122989739.105 7  95836190.86743  23404174.773                    23404184.117
 109090073.703 8  85005277.21746  20759149.180                    20759157.168
 110033692.105 7  85740576.04245  20938713.953                    20938723.293
 117983545.441 7  91935274.50245  22451517.609                    22451526.340
 115579401.033 7  90061913.04445  21994027.766                    21994037.441
 126688278.030 6  98718210.09342  24107984.734                    24107996.332
 121971741.069 6  95042938.82644  23210457.039                    23210467.023
 126978645.397 6  98944406.27843  24163241.508                    24163254.891
 122672570.877 6  95589079.781 6  23343813.492                    23343823.582
 104903247.466 8  81742814.62646  19962424.781                    19962431.215
 11  7 29 16 43 30.0000000  0 11G16G30G13G03G19G06G10G20G32G07G23
 112983920.562 7  88039446.89745  21500127.844                    21500135.578
 123090684.579 7  95914849.61844  23423384.578                    23423393.840
 109031134.380 8  84959350.47946  20747933.656                    20747941.621
 110003983.497 7  85717426.49845  20933060.539                    20933069.422
 117900792.801 7  91870791.97944  22435770.484                    22435778.250
 115583097.111 7  90064793.08945  21994731.891                    21994741.324
 126649801.777 6  98688228.64943  24100662.922                    24100673.844
 122059228.132 6  95111110.46944  23227105.078                    23227114.984
 127073015.015 6  99017940.82043  24181200.398                    24181213.469
 122613341.107 6  95542926.749 6  23332541.805                    23332552.305
 104897741.795 8  81738524.47846  19961377.305                    19961383.430
 11  7 29 16 44  0.0000000  0 11G16G30G13G03G19G06G10G20G32G07G23
 113059513.941 7  88098350.78545  21514512.852                    21514520.949
 123191705.028 7  95993566.78444  23442607.602                    23442617.656
 108972559.666 8  84913707.85446  20736787.266                    20736795.313
 109974857.330 7  85694730.78345  20927518.016                    20927526.859
 117818303.820 7  91806514.88644  22420073.625                    22420081.063
 115587345.312 7  90068103.37645  21995540.492                    21995549.449
 126611821.383 6  98658633.58143  24093435.094                    24093446.395
 122146810.991 6  95179356.76144  23243771.008                    23243781.563
 127167364.775 6  99091459.94343  24199154.961                    24199167.035
 122554132.383 7  95496790.151 6  23321275.344                    23321285.582
 104892764.262 8  81734645.86046  19960430.305                    19960436.566
 11  7 29 16 44 30.0000000  0 11G16G30G13G03G19G06G10G20G32G07G23
 113135379.683 7  88157466.91645  21528949.828                    21528957.250
 123292798.072 7  96072340.49743  23461844.602                    23461854.719
 108914352.247 7  84868351.43246  20725710.625                    20725718.043
 109946314.465 7  85672489.59645  20922086.445                    20922095.383
 117736081.209 7  91742445.37044  22404427.328                    22404435.059
 115592145.598 7  90071843.84045  21996454.023                    21996463.297
 126574337.480 6  98629425.39643  24086301.672                    24086314.109
 122234485.829 6  95247674.68743  23260456.109                    23260465.855
 127261691.741 6  99164961.25743  24217105.375                    24217117.172
 122494943.880 7  95450669.289 6  23310012.570                    23310022.020
 104888315.551 8  81731179.31546  19959583.484                    19959589.746
 11  7 29 16 45  0.0000000  0 11G16G30G13G03G19G06G10G20G32G07G23
 113211515.133 7  88216793.20045  21543437.617                    21543445.727
 123393961.462 7  96151169.03843  23481095.508                    23481105.793
 108856514.193 8  84823282.83246  20714704.211                    20714712.219
 109918356.488 7  85650704.16645  20916766.148                    20916775.500
 117654128.259 7  91678585.96845  22388831.906                    22388839.426
 115597498.226 7  90076014.72345  21997472.164                    21997481.676
 126537350.620 6  98600604.50443  24079263.977                    24079275.625
 122322249.779 6  95316062.07643  23277156.617                    23277166.988
 127355993.088 6  99238442.64143  24235049.195                    24235062.152
 122435775.809 6  95404564.341 6  23298752.844                    23298762.992
 104884397.034 8  81728125.91146  19958838.227                    19958844.422
 11  7 29 16 45 30.0000000  0 11G16G30G13G03G19G06G10G20G32G07G23
 113287917.672 7  88276327.58545  21557976.875                    21557984.656
 123495193.214 6  96230050.86743  23500359.211                    23500370.344
 108799048.512 8  84778504.38946  20703769.008                    20703776.820
 109890985.462 7  85629376.07745  20911557.922                    20911566.883
 117572448.409 7  91614939.37245  22373288.859                    22373296.770
 115603403.696 7  90080616.36645  21998595.805                    21998605.727
 126500861.849 6  98572171.72443  24072321.172                    24072331.527
 122410100.387 6  95384516.98344  23293874.516                    23293884.359
 127450266.462 6  99311902.22843  24252989.055                    24253002.113
 122376627.959 6  95358475.158 6  23287497.695                    23287507.996
 104881010.130 8  81725486.74346  19958193.375                    19958199.664
 11  7 29 16 46  0.0000000  0 11G16G30G13G03G19G06G10G20G32G07G23
 113364585.039 7  88336068.35645  21572565.891                    21572573.797
 123596491.337 6  96308984.37443  23519635.563                    23519646.066
 108741957.832 8  84734018.15146  20692904.945                    20692912.816
 109864202.927 7  85608506.55845  20906461.313                    20906470.605
 117491045.135 7  91551508.30145  22357798.250                    22357805.984
 115609862.637 7  90085649.29145  21999824.977                    21999834.902
 126464872.222 6  98544127.91643  24065472.133                    24065483.430
 122498034.699 6  95453037.10844  23310607.234                    23310617.648
 127544509.916 6  99385338.51943  24270924.016                    24270935.930
 122317500.455 6  95312401.817 6  23276245.609                    23276256.184
 104878156.137 8  81723262.84546  19957650.336                    19957656.762
 11  7 29 16 46 30.0000000  0 11G16G30G13G03G19G06G10G20G32G07G23
 113441513.709 7  88396012.74545  21587205.227                    21587212.785
 123697852.848 6  96387967.35643  23538923.867                    23538934.676
 108685243.830 8  84689825.43746  20682112.648                    20682120.715
 109838009.650 7  85588096.21845  20901477.141                    20901486.047
 117409921.162 7  91488294.87845  22342360.016                    22342368.527
 115616874.513 7  90091113.08645  22001159.258                    22001169.145
 126429381.531 6  98516472.88843  24058718.016                    24058729.020
 122586049.295 6  95521619.80744  23327356.984                    23327366.230
 127638719.903 6  99458748.68543  24288851.281                    24288864.262
 122258392.252 6  95266343.535 6  23264997.586                    23265008.246
 104875835.473 8  81721454.52846  19957208.703                    19957214.688
 11  7 29 16 47  0.0000000  0 11G16G30G13G03G19G06G10G20G32G07G23
 113518701.980 7  88456159.41545  21601893.500                    21601901.555
 123799276.555 6  96466998.76943  23558224.547                    23558234.418
 108628910.158 8  84645929.08646  20671392.516                    20671400.566
 109812408.550 7  85568147.28645  20896605.078                    20896614.043
 117329080.523 7  91425302.22745  22326977.203                    22326985.480
 115624440.482 7  90097008.62545  22002599.453                    22002608.977
 126394391.800 6  98489208.22143  24052059.234                    24052071.613
 122674141.777 6  95590263.17843  23344119.914                    23344129.625
 127732894.888 6  99532131.60743  24306772.320                    24306785.723
 122199304.101 6  95220300.861 6  23253753.781                    23253763.602
 104874050.136 8  81720063.34546  19956868.984                    19956874.938
 11  7 29 16 47 30.0000000  0 11G16G30G13G03G19G06G10G20G32G07G23
 113596146.220 7  88516505.53345  21616630.953                    21616638.805
 123900759.310 6  96546076.22743  23577535.734                    23577545.867
 108572958.103 8  84602330.10446  20660745.617                    20660753.207
 109787400.117 7  85548660.19945  20891846.336                    20891854.750
 117248525.309 7  91362531.98845  22311648.219                    22311656.473
 115632559.676 7  90103335.26645  22004143.805                    22004154.238
 126359902.637 6  98462333.58743  24045496.398                    24045508.461
 122762308.152 6  95658964.13443  23360897.172                    23360907.434
 127827031.233 6  99605484.35042  24324685.367                    24324699.023
 122140234.975 6  95174273.017 6  23242513.313                    23242523.125
 104872800.236 8  81719089.37646  19956631.211                    19956637.063
 11  7 29 16 48  0.0000000  0 11G16G30G13G03G19G06G10G20G32G07G23
 113673844.610 8  88577049.71145  21631416.539                    21631424.141
 124002299.813 7  96625198.65843  23596858.898                    23596868.777
 108517391.190 8  84559031.22646  20650171.289                    20650179.250
 109762986.558 7  85529636.64945  20887200.648                    20887209.598
 117168259.654 7  91299987.37045  22296373.844                    22296382.121
 115641233.126 7  90110093.77245  22005794.664                    22005804.414
 126325915.315 6  98435850.00443  24039028.727                    24039039.848
 122850546.317 6  95727721.04143  23377688.914                    23377698.828
 127921127.383 5  99678805.81043  24342591.172                    24342604.594
 122081185.516 6  95128260.490 6  23231276.578                    23231286.516
 104872087.666 8  81718534.11146  19956495.508                    19956501.805
 11  7 29 16 48 30.0000000  0 11G16G30G13G03G19G06G10G20G32G07G23
 113751794.368 7  88637789.73645  21646249.836                    21646257.688
 124103895.805 6  96704364.27843  23616191.313                    23616201.969
 108462211.382 8  84516033.98046  20639670.828                    20639678.727
 109739169.012 7  85511077.51345  20882668.047                    20882677.098
 117088286.584 7  91237670.74645  22281155.148                    22281163.785
 115650460.882 7  90117284.21245  22007550.813                    22007560.742
 126292430.223 6  98409757.78443  24032657.281                    24032668.406
 122938853.601 6  95796531.80743  23394493.047                    23394503.613
 128015180.467 5  99752093.74243  24360488.734                    24360503.023
 122022155.363 6  95082263.037 6  23220043.297                    23220053.203
 104871913.362 8  81718398.27246  19956462.656                    19956468.836
 11  7 29 16 49  0.0000000  0 11G16G30G13G03G19G06G10G20G32G07G23
 113829992.978 8  88698723.69345  21661130.602                    21661138.250
 124205545.372 6  96783571.66643  23635534.602                    23635544.641
 108407421.407 8  84473340.50046  20629244.508                    20629252.570
 109715949.221 7  85492984.16245  20878249.313                    20878258.336
 117008609.710 7  91175584.94245  22265993.602                    22266001.438
 115660243.243 7  90124906.82245  22009411.797                    22009422.211
 126259448.084 6  98384057.50043  24026379.844                    24026392.039
 123027227.095 6  95865394.12343  23411310.109                    23411320.234
 128109188.359 6  99825346.36743  24378378.742                    24378392.184
 121963144.540 7  95036280.610 6  23208814.164                    23208823.258
 104872278.271 8  81718682.59746  19956532.031                    19956537.895
 11  7 29 16 49 30.0000000  0 11G16G30G13G03G19G06G10G20G32G07G23
 113908437.603 8  88759849.32745  21676058.086                    21676065.930
 124307246.129 6  96862818.92843  23654888.313                    23654898.449
 108353023.855 8  84430952.80846  20618893.313                    20618901.277
 109693328.354 7  85475357.50245  20873944.820                    20873954.246
 116929231.885 7  91113732.13245  22250887.992                    22250896.508
 115670580.010 7  90132961.43645  22011379.453                    22011389.176
 126226969.386 6  98358749.44543  24020199.953                    24020211.371
 123115662.989 6  95934305.10543  23428139.078                    23428149.250
 128203148.262 6  99898561.71242  24396259.453                    24396271.828
 121904152.829 7  94990313.072 6  23197588.398                    23197598.426
 104873183.504 8  81719387.95146  19956704.328                    19956710.367
 11  7 29 16 50  0.0000000  0 11G16G30G13G03G19G06G10G20G32G07G23
 113987125.850 8  88821164.81145  21691031.867                    21691039.762
 124408996.207 6  96942104.63243  23674249.508                    23674261.297
 108299021.048 8  84388872.70946  20608616.727                    20608624.844
 109671308.004 7  85458198.78045  20869754.219                    20869763.309
 116850156.179 7  91052114.75945  22235840.563                    22235848.738
 115681471.485 7  90141448.28845  22013451.469                    22013461.980
 126194995.062 6  98333834.42143  24014115.141                    24014126.664
 123204159.354 6  96003263.19843  23444979.336                    23444989.730
 128297057.677 5  99971737.66043  24414130.141                    24414142.531
 121845180.290 7  94944360.494 6  23186366.102                    23186376.133
 104874630.107 8  81720515.15046  19956979.242                    19956985.766
 11  7 29 16 50 30.0000000  0 11G16G30G13G03G19G06G10G20G32G07G23
 114066054.886 7  88882667.91445  21706051.875                    21706059.516
 124510793.467 6  97021427.07143  23693621.078                    23693632.391
 108245415.249 8  84347101.95446  20598415.711                    20598423.988
 109649889.177 7  85441508.78345  20865678.977                    20865688.051
 116771386.296 7  90990735.66745  22220851.242                    22220859.461
 115692917.541 7  90150367.27545  22015630.563                    22015640.285
 126163525.363 6  98309312.59243  24008127.016                    24008137.719
 123292712.865 6  96072265.80443  23461830.891                    23461840.945
 128390914.070 5 100044872.29743  24431990.391                    24432003.539
 121786226.439 6  94898422.487 6  23175147.523                    23175157.648
 104876618.933 8  81722064.86946  19957358.219                    19957364.477
 11  7 29 16 51  0.0000000  0 11G16G30G13G03G19G06G10G20G32G07G23
 114145222.346 7  88944356.80945  21721116.617                    21721125.070
 124612635.883 6  97100784.75243  23713001.844                    23713011.629
 108192208.975 8  84305642.52546  20588290.977                    20588299.266
 109629073.405 7  85425288.69845  20861717.063                    20861726.875
 116692925.467 7  90929597.40545  22205920.563                    22205928.672
 115704918.555 7  90159718.70745  22017914.273                    22017924.086
 126132561.044 6  98285184.57943  24002234.953                    24002246.148
 123381320.679 6  96141310.74543  23478692.719                    23478702.469
 128484715.349 6 100117964.01043  24449839.984                    24449853.180
 121727291.542 7  94852499.240 7  23163932.758                    23163943.113
 104879151.183 8  81724038.02846  19957839.680                    19957846.129
 11  7 29 16 51 30.0000000  0 11G16G30G13G03G19G06G10G20G32G07G23
 114224625.198 7  89006229.11545  21736227.070                    21736234.527
 124714521.220 7  97180175.84743  23732391.320                    23732400.195
 108139404.611 8  84264496.27746  20578243.164                    20578251.195
 109608861.981 7  85409539.53145  20857871.633                    20857880.445
 116614776.565 7  90868702.20545  22191049.578                    22191057.363
 115717474.019 7  90169502.16445  22020303.266                    22020312.930
 126102102.460 6  98261450.66343  23996438.188                    23996449.980
 123469979.733 6  96210395.60343  23495563.563                    23495574.266
 128578458.714 6 100191010.53442  24467678.406                    24467691.871
 121668375.048 6  94806590.324 6  23152720.773                    23152730.723
 104882227.416 8  81726435.07146  19958425.344                    19958430.973
 11  7 29 16 52  0.0000000  0 11G16G30G13G03G19G06G10G20G32G07G23
 114304261.310 7  89068283.18645  21751381.328                    21751388.367
 124816447.824 7  97259599.11943  23751786.859                    23751795.773
 108087004.999 8  84223665.40946  20568271.688                    20568279.637
 109589256.179 7  85394262.28245  20854140.555                    20854150.125
 116536943.177 7  90808052.82945  22176238.438                    22176245.199
 115730584.350 7  90179718.00245  22022797.891                    22022807.602
 126072150.233 6  98238111.30443  23990739.320                    23990750.258
 123558687.691 6  96279518.55943  23512443.664                    23512454.816
 128672141.628 6 100264010.02142  24485506.578                    24485519.457
 121609477.137 6  94760695.913 7  23141512.984                    23141523.199
 104885848.800 8  81729256.91146  19959114.719                    19959120.484
 11  7 29 16 52 30.0000000  0 11G16G30G13G03G19G06G10G20G32G07G23
 114384127.882 7  89130516.84545  21766579.164                    21766586.910
 124918413.528 6  97339052.83343  23771189.930                    23771200.344
 108035012.307 8  84183151.63746  20558377.633                    20558385.441
 109570257.396 7  85379458.03245  20850525.406                    20850534.180
 116459428.111 7  90747651.53045  22161487.609                    22161495.137
 115744249.423 7  90190366.09945  22025398.625                    22025408.297
 126042704.983 6  98215166.95143  23985134.852                    23985147.109
 123647440.940 6  96348676.79944  23529333.883                    23529343.902
 128765761.824 6 100336960.59343  24503322.461                    24503335.273
 121550597.679 6  94714815.874 6  23130308.859                    23130318.266
 104890016.171 8  81732504.18746  19959907.688                    19959913.645
 11  7 29 16 53  0.0000000  0 11G16G30G13G03G19G06G10G20G32G07G23
 114464222.344 7  89192928.06945  21781820.813                    21781828.609
 125020416.377 6  97418535.52843  23790599.781                    23790610.309
 107983429.185 8  84142957.00146  20548561.781                    20548569.871
 109551867.044 7  85365127.89445  20847026.555                    20847034.996
 116382234.970 7  90687501.06845  22146798.055                    22146805.738
 115758469.316 7  90201446.51245  22028104.555                    22028114.215
 126013767.176 6  98192618.05043  23979629.094                    23979640.227
 123736237.018 6  96417868.43743  23546231.180                    23546241.820
 128859316.879 6 100409860.41643  24521124.938                    24521138.145
 121491736.864 6  94668950.342 6  23119107.750                    23119117.000
 104894730.534 8  81736177.69646  19960804.406                    19960810.707
 11  7 29 16 53 30.0000000  0 11G16G30G13G03G19G06G10G20G32G07G23
 114544541.992 7  89255514.76345  21797105.047                    21797112.977
 125122454.235 6  97498045.52043  23810016.352                    23810027.848
 107932257.885 7  84103083.27046  20538824.313                    20538832.203
 109534085.867 7  85351272.43545  20843641.898                    20843651.219
 116305366.506 7  90627603.60245  22132170.922                    22132178.355
 115773243.615 7  90212958.95345  22030916.195                    22030925.918
 125985336.790 6  98170464.54843  23974218.477                    23974230.145
 123825072.826 6  96487091.01443  23563135.672                    23563146.465
 128952804.155 6 100482707.40543  24538915.445                    24538928.656
 121432894.216 7  94623098.964 6  23107910.773                    23107919.938
 104899992.338 8  81740277.78046  19961805.836                    19961811.996
 11  7 29 16 54  0.0000000  0 11G16G30G13G03G19G06G10G20G32G07G23
 114625084.223 7  89318274.89845  21812432.227                    21812439.641
 125224524.747 6  97577580.94243  23829440.258                    23829451.113
 107881500.232 7  84063531.85946  20529165.195                    20529173.512
 109516914.906 7  85337892.46645  20840374.977                    20840384.012
 116228825.737 7  90567961.48745  22117605.242                    22117613.125
 115788572.076 7  90224903.18245  22033832.813                    22033842.316
 125957414.094 6  98148706.66443  23968905.000                    23968916.582
 123913945.285 7  96556342.16043  23580048.219                    23580059.008
 129046220.967 6 100555499.52843  24556691.555                    24556705.855
 121374069.651 7  94577261.689 6  23096715.992                    23096725.219
 104905802.369 8  81744805.05146  19962911.594                    19962917.715
 11  7 29 16 54 30.0000000  0 11G16G30G13G03G19G06G10G20G32G07G23
 114705846.708 7  89381206.67145  21827800.602                    21827808.426
 125326626.394 6  97657140.57543  23848869.766                    23848880.883
 107831159.171 8  84024305.06846  20519585.703                    20519593.805
 109500355.705 8  85324989.19345  20837223.570                    20837232.449
 116152616.240 7  90508577.50945  22103102.766                    22103110.867
 115804454.708 7  90237279.24145  22036854.648                    22036864.895
 125929999.880 6  98127344.95643  23963687.680                    23963699.813
 124002851.715 6  96625619.76443  23596966.453                    23596977.434
 129139565.060 6 100628234.95543  24574455.500                    24574469.109
 121315263.078 7  94531438.413 6  23085526.273                    23085535.246
 104912161.684 8  81749760.34046  19964121.977                    19964127.828
 11  7 29 16 55  0.0000000  0 11G16G30G13G03G19G06G10G20G32G07G23
 114786826.873 7  89444308.06745  21843210.789                    21843218.332
 125428757.277 6  97736722.95943  23868306.109                    23868316.102
 107781237.417 7  83985405.00446  20510085.898                    20510094.059
 109484409.189 7  85312563.33745  20834188.906                    20834197.980
 116076741.390 7  90449454.29945  22088664.758                    22088672.371
 115820891.653 7  90250087.25345  22039982.508                    22039992.578
 125903094.851 6  98106380.01143  23958567.445                    23958579.996
 124091789.727 6  96694921.96843  23613890.477                    23613901.484
 129232834.533 6 100700912.27043  24592204.828                    24592217.707
 121256475.004 7  94485629.606 6  23074339.078                    23074348.684
 104919071.225 8  81755144.37046  19965436.492                    19965442.785
 11  7 29 16 55 30.0000000  0 11G16G30G13G03G19G06G10G20G32G07G23
 114868021.890 7  89507576.86245  21858661.461                    21858669.543
 125530915.184 6  97816326.44843  23887745.836                    23887756.074
 107731736.965 7  83946833.23446  20500665.914                    20500673.797
 109469076.344 7  85300615.66345  20831271.688                    20831280.133
 116001203.964 7  90390594.01145  22074290.180                    22074298.355
 115837882.425 7  90263326.78145  22043216.141                    22043226.207
 125876698.910 6  98085811.75043  23953545.594                    23953556.938
 124180756.000 6  96764246.20043  23630820.484                    23630831.785
 129326026.458 6 100773529.14043  24609938.648                    24609951.379
 121197704.749 7  94439834.668 6  23063155.398                    23063165.441
 104926531.704 8  81760957.70846  19966856.219                    19966862.598
 11  7 29 16 56  0.0000000  0 11G16G30G13G03G19G06G10G20G32G07G23
 114949429.182 7  89571011.08545  21874152.703                    21874160.816
 125633098.110 6  97895949.43543  23907190.508                    23907200.367
 107682660.348 7  83908591.71746  20491327.266                    20491334.875
 109454358.418 7  85289147.14645  20828470.336                    20828479.777
 115926007.298 7  90331999.25945  22059980.617                    22059988.613
 115855426.899 7  90276997.78745  22046554.711                    22046564.754
 125850812.504 6  98065640.55043  23948619.156                    23948630.758
 124269747.695 6  96833590.23843  23647755.328                    23647766.094
 129419138.325 6 100846083.60443  24627656.250                    24627670.242
 121138952.462 7  94394053.750 6  23051974.188                    23051984.141
 104934543.601 8  81767200.72346  19968380.961                    19968387.207
 11  7 29 16 56 30.0000000  0 11G16G30G13G03G19G06G10G20G32G07G23
 115031046.561 7  89634609.00645  21889683.922                    21889692.246
 125735304.231 6  97975590.50043  23926638.383                    23926649.410
 107634010.215 8  83870682.53046  20482069.398                    20482077.344
 109440256.557 7  85278158.69345  20825786.867                    20825795.793
 115851154.740 7  90273672.62645  22045736.750                    22045744.414
 115873524.939 7  90291100.13445  22049999.031                    22050008.570
 125825435.947 6  98045866.61043  23943790.539                    23943802.023
 124358762.177 6  96902952.03443  23664694.430                    23664705.582
 129512168.072 6 100918574.08042  24645360.055                    24645373.348
 121080218.435 7  94348287.032 6  23040798.438                    23040807.566
 104943107.963 8  81773874.22746  19970010.641                    19970016.648
 11  7 29 16 57  0.0000000  0 11G16G30G13G03G19G06G10G20G32G07G23
 115112870.996 7  89698368.25945  21905254.578                    21905262.570
 125837531.504 6  98055248.02143  23946092.305                    23946102.715
 107585788.256 8  83833106.98946  20472893.250                    20472900.875
 109426771.548 7  85267650.89945  20823220.500                    20823229.871
 115776649.002 7  90215616.23345  22031558.828                    22031566.781
 115892176.152 7  90305633.51945  22053548.367                    22053558.156
 125800569.345 6  98026490.06043  23939058.313                    23939070.070
 124447795.997 6  96972328.90043  23681636.727                    23681648.297
 129605112.958 6 100990998.39143  24663047.219                    24663060.063
 121021502.404 7  94302534.348 6  23029624.359                    23029634.605
 104952225.205 8  81780978.54346  19971745.680                    19971751.785
 11  7 29 16 57 30.0000000  0 11G16G30G13G03G19G06G10G20G32G07G23
 115194900.586 7  89762287.39245  21920864.406                    21920872.320
 125939778.455 6  98134920.94043  23965549.492                    23965559.871
 107537997.553 7  83795867.48546  20463798.719                    20463806.500
 109413904.796 7  85257624.84545  20820772.367                    20820781.613
 115702493.814 7  90157833.01045  22017447.813                    22017455.527
 115911380.651 7  90320598.06245  22057202.258                    22057212.141
 125776213.505 6  98007511.49143  23934423.602                    23934435.406
 124536847.234 6  97041719.34643  23698582.477                    23698593.539
 129697971.064 6 101063355.14342  24680717.836                    24680730.902
 120962804.412 7  94256795.699 6  23018454.859                    23018464.285
 104961896.316 8  81788514.45446  19973586.234                    19973592.219
 11  7 29 16 58  0.0000000  0 11G16G30G13G03G19G06G10G20G32G07G23
 115277132.574 7  89826364.22845  21936512.633                    21936520.223
 126042042.898 6  98214607.49443  23985010.172                    23985020.137
 107490640.183 8  83758965.64546  20454787.141                    20454794.832
 109401656.778 7  85248080.93745  20818441.648                    20818450.742
 115628691.807 7  90100325.00045  22003403.398                    22003411.555
 115931137.630 7  90335993.08445  22060962.297                    22060971.848
 125752367.995 6  97988930.58843  23929885.734                    23929897.699
 124625912.712 6  97111120.86343  23715530.938                    23715542.316
 129790739.746 6 101135642.19242  24698370.406                    24698385.066
 120904124.389 7  94211071.029 6  23007288.969                    23007297.727
 104972121.686 8  81796482.24546  19975531.953                    19975538.027
 11  7 29 16 58 30.0000000  0 11G16G30G13G03G19G06G10G20G32G07G23
 115359564.398 7  89890596.77745  21952198.797                    21952207.191
 126144323.224 6  98294306.40743  24004473.711                    24004483.566
 107443718.695 7  83722403.44546  20445857.445                    20445865.559
 109390028.536 7  85239019.97245  20816228.813                    20816238.148
 115555246.508 7  90043094.92245  21989427.055                    21989434.723
 115951447.140 7  90351818.66345  22064826.680                    22064836.566
 125729033.481 6  97970747.87243  23925445.305                    23925457.504
 124714989.598 6  97180531.31043  23732482.352                    23732493.527
 129883416.816 6 101207857.88742  24716005.930                    24716020.789
 120845462.447 7  94165360.471 6  22996125.531                    22996135.121
 104982902.125 8  81804882.56546  19977583.211                    19977589.293
 11  7 29 16 59  0.0000000  0 11G16G30G13G03G19G06G10G20G32G07G23
 115442193.516 7  89954983.06445  21967923.188                    21967930.770
 126246617.399 6  98374016.08643  24023939.945                    24023949.348
 107397235.283 7  83686182.60646  20437012.547                    20437020.504
 109379021.035 7  85230442.71245  20814134.133                    20814143.195
 115482160.552 7  89986144.87045  21975519.406                    21975527.598
 115972308.803 7  90368074.49045  22068796.336                    22068806.383
 125706210.241 6  97952963.53143  23921102.438                    23921114.270
 124804075.001 6  97249948.38343  23749435.305                    23749445.930
 129975999.592 6 101280000.07042  24733624.297                    24733639.313
 120786818.558 7  94119663.976 6  22984965.555                    22984975.109
 104994238.383 8  81813715.98546  19979740.750                    19979746.828
 11  7 29 16 59 30.0000000  0 11G16G30G13G03G19G06G10G20G32G07G23
 115525017.283 7  90019521.02945  21983683.414                    21983691.621
 126348923.019 6  98453734.76843  24043408.070                    24043417.055
 107351191.750 7  83650304.53146  20428250.797                    20428258.961
 109368634.820 7  85222349.56145  20812157.664                    20812166.781
 115409437.162 7  89929477.31745  21961680.508                    21961688.113
 115993721.721 7  90384759.86445  22072871.422                    22072881.078
 125683897.872 6  97935577.30743  23916856.797                    23916868.188
 124893165.703 6  97319369.58543  23766388.242                    23766399.113
 130068485.531 6 101352066.84842  24751224.750                    24751238.715
 120728192.387 7  94073981.279 6  22973810.039                    22973818.965
 105006130.345 8  81822982.42546  19982003.781                    19982009.625
 11  7 29 17  0  0.0000000  0 11G16G30G13G03G19G06G10G20G32G07G23
 115608033.156 7  90084208.67345  21999480.898                    21999489.254
 126451238.699 6  98533461.14243  24062876.758                    24062887.613
 107305590.831 7  83614771.34546  20419573.109                    20419581.555
 109358871.158 7  85214741.50945  20810299.672                    20810308.953
 115337079.823 7  89873095.00545  21947911.578                    21947919.047
 116015685.973 7  90401874.86245  22077050.875                    22077061.176
 125662097.166 6  97918589.75843  23912707.336                    23912719.594
 124982259.528 6  97388793.22643  23783342.180                    23783353.664
 130160872.750 6 101424056.59942  24768806.070                    24768819.230
 120669584.320 7  94028312.699 7  22962655.867                    22962667.035
 105018579.133 8  81832682.75146  19984372.438                    19984378.445
 11  7 29 17  0 30.0000000  0 10G16G30G13G03G19G06G10G20G07G23
 115691238.756 7  90149044.16945  22015314.742                    22015322.512
 126553562.454 6  98613193.95342  24082349.016                    24082358.711
 107260434.928 8  83579584.92746  20410980.688                    20410987.879
 109349730.719 7  85207619.09545  20808560.484                    20808569.449
 115265091.325 7  89817000.11645  21934212.609                    21934220.887
 116038200.923 7  90419418.95245  22081334.961                    22081345.070
 125640807.807 6  97902000.67243  23908657.102                    23908668.078
 125071353.650 6  97458217.04143  23800296.523                    23800307.883
 120610994.244 6  93982658.133 6  22951506.844                    22951516.914
 105031585.079 8  81842817.23146  19986847.602                    19986853.703
 11  7 29 17  1  0.0000000  0 10G16G30G13G03G19G06G10G20G07G23
 115774631.643 7  90214025.60645  22031184.000                    22031191.406
 126655892.594 6  98692931.62242  24101822.398                    24101832.023
 107215726.551 8  83544747.24046  20402472.586                    20402480.234
 109341214.399 7  85200982.99445  20806939.516                    20806948.719
 115193474.954 7  89761195.17645  21920584.125                    21920592.195
 116061266.527 7  90437392.14045  22085724.773                    22085734.367
 125620030.249 6  97885810.43143  23904702.531                    23904714.277
 125160445.299 6  97527638.95143  23817251.023                    23817262.234
 120552422.403 7  93937017.791 6  22940361.438                    22940371.289
 105045148.926 8  81853386.42946  19989429.000                    19989435.113
 11  7 29 17  1 30.0000000  0 10G16G30G13G03G19G06G10G20G07G23
 115858209.504 7  90279151.16545  22047088.117                    22047096.051
 126758227.074 6  98772672.67243  24121295.031                    24121305.789
 107171467.525 8  83510259.68346  20394050.594                    20394058.305
 109333322.815 7  85194833.70145  20805437.969                    20805447.094
 115122233.608 7  89705682.47145  21907027.492                    21907035.004
 116084881.794 7  90455793.62644  22090218.859                    22090227.551
 125599764.182 6  97870018.69043  23900846.734                    23900858.086
 125249531.410 6  97597056.55843  23834203.563                    23834214.641
 120493868.409 7  93891391.349 6  22929219.289                    22929229.082
 105059271.089 8  81864390.68746  19992115.891                    19992122.105
 11  7 29 17  2  0.0000000  0 10G16G30G13G03G19G06G10G20G07G23
 115941969.058 7  90344418.31045  22063026.695                    22063034.926
 126860563.914 6  98852415.62243  24140769.555                    24140779.051
 107127660.064 8  83476124.00146  20385714.531                    20385722.234
 109326056.206 7  85189171.40645  20804054.969                    20804064.547
 115051370.095 7  89650464.18245  21893542.359                    21893550.043
 116109045.980 7  90474622.83345  22094816.750                    22094826.555
 125580009.313 6  97854625.28343  23897086.156                    23897098.617
 125338609.319 6  97666467.76143  23851154.625                    23851164.887
 120435332.333 7  93845778.872 6  22918080.078                    22918090.055
 105073951.432 8  81875829.88446  19994909.469                    19994915.488
 11  7 29 17  2 30.0000000  0 10G16G30G13G03G19G06G10G20G07G23
 116025908.963 7  90409825.98245  22079000.813                    22079008.766
 126962901.978 6  98932159.52143  24160244.797                    24160254.352
 107084307.160 8  83442342.52246  20377464.266                    20377472.477
 109319415.880 7  85183997.12345  20802791.586                    20802801.094
 114980888.033 7  89595543.11945  21880130.633                    21880137.363
 116133759.486 7  90493880.10045  22099519.695                    22099528.945
 125560766.523 6  97839630.92043  23893425.289                    23893437.031
 125427676.153 6  97735870.34943  23868102.719                    23868114.398
 120376814.954 7  93800180.981 6  22906944.828                    22906954.316
 105089191.327 8  81887705.10146  19997809.703                    19997815.879
 11  7 29 17  3  0.0000000  0 10G16G30G13G03G19G06G10G20G07G23
 116110026.164 7  90475371.82645  22095007.633                    22095015.324
 127065238.964 6  99011902.54443  24179717.859                    24179728.027
 107041410.542 8  83408916.58346  20369301.352                    20369309.262
 109313402.125 7  85179311.06445  20801647.570                    20801656.199
 114910789.862 7  89540921.20045  21866791.227                    21866798.910
 116159021.189 7  90513564.53345  22104326.609                    22104335.871
 125542035.183 6  97825035.07943  23889860.617                    23889872.125
 125516729.067 6  97805262.08943  23885049.867                    23885060.504
 120318315.449 7  93754596.973 6  22895812.883                    22895821.785
 105104990.624 8  81900016.21346  20000815.992                    20000822.578
 11  7 29 17  3 30.0000000  0 10G16G30G13G03G19G06G10G20G07G23
 116194317.742 7  90541053.54445  22111047.422                    22111055.301
 127167572.804 6  99091643.12143  24199191.875                    24199202.316
 106998972.075 8  83375847.65646  20361225.445                    20361233.488
 109308015.345 7  85175113.55545  20800622.516                    20800631.180
 114841078.563 7  89486600.73345  21853525.406                    21853532.672
 116184830.238 7  90533675.46945  22109238.242                    22109247.609
 125523815.492 6  97810837.93943  23886393.445                    23886405.434
 125605765.211 6  97874640.75943  23901991.586                    23902003.527
 120259834.037 7  93709027.079 6  22884683.656                    22884692.789
 105121349.509 8  81912763.36346  20003929.250                    20003934.883
 11  7 29 17  4  0.0000000  0 10G16G30G13G03G19G06G10G20G07G23
 116278781.653 7  90606869.55545  22127120.594                    22127128.902
 127269902.040 6  99171380.13643  24218664.750                    24218674.453
 106956994.202 8  83343137.62446  20353237.234                    20353245.230
 109303256.446 7  85171405.32745  20799716.508                    20799725.777
 114771757.373 7  89432584.24645  21840333.617                    21840341.074
 116211186.240 7  90554212.60045  22114253.594                    22114263.105
 125506107.075 6  97797039.16343  23883022.852                    23883035.770
 125694782.045 6  97944004.32343  23918932.258                    23918943.688
 120201370.911 7  93663471.444 6  22873558.664                    22873567.809
 105138268.428 8  81925946.92046  20007148.969                    20007154.828
 11  7 29 17  4 30.0000000  0 10G16G30G13G03G19G06G10G20G07G23
 116363415.611 7  90672818.03545  22143225.930                    22143233.914
 127372225.444 6  99251112.60043  24238136.367                    24238146.453
 106915479.721 8  83310788.67946  20345337.984                    20345345.539
 109299126.237 7  85168186.95545  20798930.883                    20798939.867
 114702829.871 7  89378874.53945  21827217.391                    21827224.844
 116238089.003 7  90575175.77844  22119372.750                    22119382.113
 125488910.753 6  97783639.42243  23879751.844                    23879762.777
 125783777.232 6  98013351.06543  23935867.680                    23935878.711
 120142926.428 7  93617930.329 7  22862436.852                    22862446.277
 105155748.480 8  81939567.70746  20010475.172                    20010481.355
 11  7 29 17  5  0.0000000  0 11G08G16G30G13G03G19G06G10G20G07G23
 131281386.86915                  24982022.094
 116448216.768 7  90738896.84345  22159363.125                    22159371.023
 127474540.556 6  99330838.61343  24257605.734                    24257617.207
 106874430.244 8  83278802.07246  20337526.242                    20337534.160
 109295624.790 7  85165458.54845  20798264.969                    20798273.848
 114634298.445 7  89325473.46545  21814175.797                    21814183.609
 116265537.410 7  90596564.12644  22124596.430                    22124605.777
 125472225.683 6  97770638.10843  23876575.977                    23876587.582
 125872747.135 6  98082678.09643  23952798.781                    23952809.297
 120084500.343 7  93572403.531 6  22851318.852                    22851327.996
 105173789.257 8  81953625.42946  20013908.172                    20013914.297
 11  7 29 17  5 30.0000000  0 11G08G16G30G13G03G19G06G10G20G07G23
 131216235.467 6                  24969624.945
 116533183.218 7  90805104.42845  22175531.523                    22175540.074
 127576846.031 6  99410557.07143  24277074.297                    24277085.074
 106833848.337 7  83247179.81346  20329803.875                    20329811.496
 109292753.029 7  85163220.79945  20797718.141                    20797726.969
 114566166.370 7  89272383.58945  21801211.305                    21801218.746
 116293531.024 7  90618377.30544  22129923.609                    22129932.887
 125456051.945 6  97758035.20943  23873499.195                    23873509.926
 125961689.399 6  98151983.59543  23969723.281                    23969734.262
 120026092.855 7  93526891.240 7  22840203.781                    22840213.422
 105192391.410 8  81968120.58646  20017448.273                    20017454.016
 11  7 29 17  6  0.0000000  0 11G08G16G30G13G03G19G06G10G20G07G23
 131151039.106 5 102195681.47652  24957218.570                    24957230.156
 116618311.750 7  90871438.33045  22191730.914                    22191738.734
 127679139.510 6  99490266.21643  24296539.383                    24296550.461
 106793735.526 8  83215923.07446  20322170.367                    20322178.574
 109290510.842 7  85161473.63645  20797291.578                    20797300.387
 114498435.702 7  89219606.47645  21788322.734                    21788329.953
 116322068.520 7  90640614.29744  22135353.836                    22135362.719
 125440388.870 6  97745830.23343  23870518.539                    23870529.809
 126050601.163 6  98221265.29343  23986643.211                    23986654.293
 119967703.364 7  93481392.950 7  22829093.023                    22829101.906
 105211554.354 8  81983052.72346  20021095.094                    20021100.855
 11  7 29 17  6 30.0000000  0 11G08G16G30G13G03G19G06G10G20G07G23
 131085797.989 5 102144844.27042  24944802.789                    24944816.887
 116703600.624 7  90937897.14344  22207961.359                    22207969.656
 127781420.126 6  99569965.34143  24316003.469                    24316013.523
 106754094.551 7  83185034.00746  20314627.016                    20314634.602
 109288899.397 7  85160217.96645  20796984.555                    20796993.527
 114431110.411 7  89167145.24545  21775510.758                    21775518.297
 116351149.816 7  90663275.04245  22140888.008                    22140896.500
 125425237.046 6  97734023.64843  23867635.141                    23867646.207
 126139479.904 6  98290521.28943  24003555.953                    24003567.332
 119909332.796 7  93435909.433 7  22817985.563                    22817995.320
 105231279.119 8  81998422.64646  20024847.992                    20024854.281
 11  7 29 17  7  0.0000000  0 11G08G16G30G13G03G19G06G10G20G07G23
 131020511.903 5 102093972.07742  24932380.508                    24932392.770
 116789047.225 7  91004478.88145  22224220.891                    22224229.070
 127883685.955 6  99649652.91942  24335463.781                    24335473.668
 106714927.537 8  83154514.25546  20307173.906                    20307181.211
 109287918.851 7  85159453.89045  20796798.453                    20796807.063
 114364193.209 7  89115002.00745  21762777.047                    21762784.266
 116380774.235 7  90686358.99744  22146525.047                    22146533.762
 125410596.167 6  97722615.15943  23864849.125                    23864860.457
 126228323.096 6  98359749.56943  24020462.484                    24020473.652
 119850981.292 7  93390440.759 7  22806881.469                    22806891.297
 105251565.930 8  82014230.52446  20028708.719                    20028714.426
 11  7 29 17  7 30.0000000  0 11G08G16G30G13G03G19G06G10G20G07G23
 130955179.988 5 102043064.08642  24919947.266                    24919960.359
 116874649.406 7  91071181.82245  22240510.414                    22240518.738
 127985935.143 5  99729327.56842  24354919.359                    24354930.742
 106676236.746 7  83124365.59246  20299811.148                    20299819.324
 109287569.388 7  85159181.57945  20796731.648                    20796740.426
 114297687.066 7  89063179.06845  21750120.938                    21750128.523
 116410940.814 7  90709865.42044  22152265.766                    22152274.473
 125396465.990 6  97711604.61843  23862160.234                    23862171.848
 126317127.806 6  98428947.87643  24037361.789                    24037372.906
 119792648.834 7  93344986.939 7  22795781.008                    22795790.641
 105272414.752 8  82030476.33146  20032676.281                    20032682.309
 11  7 29 17  8  0.0000000  0 11G08G16G30G13G03G19G06G10G20G07G23
 130889802.405 5 101992120.56042  24907506.117                    24907519.766
 116960404.368 7  91138003.84345  22256829.031                    22256837.320
 128088166.178 6                  24374374.438
 106638024.107 8  83094589.51146  20292539.891                    20292547.195
 109287851.420 7  85159401.33745  20796785.547                    20796794.258
 114231595.023 7  89011678.81245  21737544.063                    21737551.992
 116441648.805 7  90733793.69745  22158109.414                    22158118.348
 125382846.271 6  97700991.82643  23859567.898                    23859579.945
 126405891.294 6  98498114.07243  24054252.734                    24054264.527
 119734335.545 7  93299548.048 7  22784684.516                    22784693.832
 105293825.944 8  82047160.35046  20036750.445                    20036756.855
 11  7 29 17  8 30.0000000  0 11G08G16G30G13G03G19G06G10G20G07G23
 130824379.22915 101941141.43452  24895056.398                    24895069.883
 117046310.631 7  91204943.74745  22273176.797                    22273185.004
 128190377.788 6                  24393825.773
 106600292.704 7  83065188.43046  20285359.438                    20285367.480
 109288766.365 7  85160114.28345  20796959.469                    20796968.742
 114165920.268 7  88960503.71245  21725046.148                    21725054.090
 116472897.921 7  90758143.64944  22164055.586                    22164065.512
 125369737.483 6  97690777.21543  23857073.438                    23857084.973
 126494611.623 6  98567246.60443  24071136.500                    24071147.379
 119676042.319 7  93254124.796 7  22773591.813                    22773601.645
 105315800.203 8  82064283.12446  20040931.992                    20040938.375
 11  7 29 17  9  0.0000000  0 10G08G16G13G03G19G06G10G20G07G23
 130758908.332 5 101890125.31542  24882597.406                    24882611.184
 117132364.392 7  91271998.57844  22289552.188                    22289560.461
 106563042.542 7  83036162.34046  20278270.922                    20278278.914
 109290312.894 7  85161319.37545  20797253.570                    20797262.730
 114100664.675 7  88909655.23045  21712628.883                    21712636.332
 116504686.275 7  90782913.77244  22170105.430                    22170113.938
 125357138.098 6  97680959.53643  23854676.016                    23854687.777
 126583285.291 6  98636342.76743  24088010.078                    24088021.453
 119617767.617 7  93208715.977 7  22762502.344                    22762511.574
 105338336.407 8  82081843.77846  20045220.656                    20045226.699
 11  7 29 17  9 30.0000000  0 10G08G16G13G03G19G06G10G20G07G23
 130693390.991 5 101839072.90242  24870130.688                    24870143.566
 117218564.512 7  91339167.46645  22305955.289                    22305963.926
 106526277.612 7  83007514.35146  20271274.586                    20271282.836
 109292492.454 7  85163017.73645  20797668.742                    20797677.797
 114035832.182 7  88859136.43945  21700291.719                    21700299.418
 116537014.004 7  90808104.19145  22176257.000                    22176266.004
 125345048.968 6  97671539.38143  23852375.109                    23852387.148
 126671909.999 6  98705400.80143  24104875.227                    24104886.898
 119559513.121 7  93163322.891 6  22751416.977                    22751425.969
 105361435.841 8  82099843.30846  20049616.164                    20049622.832
 11  7 29 17 10  0.0000000  0 10G08G16G13G03G19G06G10G20G07G23
 130627826.328 5 101787983.65142  24857653.258                    24857666.270
 117304908.098 7  91406448.14044  22322385.930                    22322394.043
 106489998.979 7  82979245.29046  20264371.273                    20264379.379
 109295304.721 8  85165209.11445  20798203.633                    20798212.648
 113971425.376 7  88808949.34745  21688035.430                    21688043.246
 116569879.803 7  90833713.87444  22182511.594                    22182520.121
 125333468.930 6  97662515.97943  23850171.750                    23850183.316
 126760482.714 6  98774418.34343  24121730.656                    24121741.445
 119501278.410 7  93117945.215 6  22740335.109                    22740344.422
 105385097.933 8  82118281.26446  20054119.117                    20054125.684
 11  7 29 17 10 30.0000000  0 10G08G16G13G03G19G06G10G20G07G23
 130562214.359 6 101736857.54942  24845169.094                    24845180.773
 117391393.185 7  91473839.04844  22338843.938                    22338851.563
 106454209.673 7  82951357.53146  20257560.695                    20257568.871
 109298750.367 7  85167894.05545  20798859.016                    20798868.059
 113907446.943 7  88759096.06545  21675860.031                    21675868.215
 116603283.139 7  90859742.42244  22188867.391                    22188876.637
 125322398.040 6  97653889.26343  23848066.039                    23848076.961
 126849001.395 5  98843393.75743  24138573.883                    24138586.371
 119443063.890 7  93072583.294 6  22729257.109                    22729266.301
 105409323.241 8  82137158.09546  20058729.234                    20058735.156
 11  7 29 17 11  0.0000000  0 10G08G16G13G03G19G06G10G20G07G23
 130496554.298 6 101685693.98442  24832674.031                    24832685.387
 117478017.190 7  91541338.23144  22355327.500                    22355335.609
 106418911.371 8  82923852.36746  20250843.711                    20250851.406
 109302829.184 7  85171072.36145  20799635.664                    20799644.066
 113843900.340 7  88709579.26745  21663768.086                    21663775.449
 116637222.754 7  90886188.86445  22195325.336                    22195335.000
 125311836.063 6  97645659.16443  23846055.984                    23846066.793
 126937463.238 6  98912324.86943  24155408.133                    24155420.238
 119384869.378 7  93027236.936 7  22718182.906                    22718192.145
 105434111.640 8  82156473.70346  20063446.258                    20063452.391
 11  7 29 17 11 30.0000000  0 10G08G16G13G03G19G06G10G20G07G23
 130430845.753 6 101634492.57843  24820169.359                    24820181.301
 117564777.707 7  91608943.78044  22371837.938                    22371845.613
 106384105.798 8  82896731.13746  20244219.922                    20244228.090
 109307541.383 7  85174744.20745  20800531.930                    20800541.297
 113780787.783 7  88660400.66945  21651757.820                    21651765.598
 116671697.865 7  90913052.57644  22201885.828                    22201895.289
 125301782.854 6  97637825.46243  23844142.969                    23844153.410
 127025865.435 6  98981209.45343  24172231.258                    24172242.938
 119326695.361 7  92981906.572 7  22707112.688                    22707122.445
 105459463.008 8  82176227.98646  20068270.523                    20068276.590
 11  7 29 17 12  0.0000000  0 10G08G16G13G03G19G06G10G20G07G23
 130365088.408 6 101583253.15743  24807656.539                    24807668.641
 117651672.283 7  91676653.78744  22388373.414                    22388381.355
 106349795.108 8  82869995.54246  20237691.523                    20237699.254
 109312886.838 8  85178909.48545  20801549.313                    20801558.227
 113718111.912 7  88611562.36945  21639831.211                    21639839.086
 116706707.147 7  90940332.52444  22208548.789                    22208557.563
 125292237.282 6  97630387.28243  23842326.773                    23842337.188
 127114205.068 6  99050045.35543  24189041.945                    24189052.926
 119268541.884 7  92936592.229 7  22696046.734                    22696056.500
 105485377.092 8  82196420.74046  20073201.813                    20073207.566
 11  7 29 17 12 30.0000000  0 10G08G16G13G03G19G06G10G20G07G23
 130299282.441 6 101531975.90443  24795133.484                    24795146.367
 117738699.144 7  91744466.89944  22404933.563                    22404942.461
 106315981.608 7  82843647.35846  20231256.805                    20231265.031
 109318865.920 7  85183568.51145  20802687.477                    20802696.160
 113655876.479 7  88563067.25345  21627987.883                    21627995.891
 116742250.232 7  90968028.42344  22215311.703                    22215321.543
 125283199.513 6  97623344.85243  23840606.617                    23840617.328
 127202480.117 5  99118830.89243  24205839.336                    24205851.184
 119210409.504 7  92891294.289 6  22684984.273                    22684993.074
 105511854.270 8  82217052.27246  20078240.492                    20078246.309
 11  7 29 17 13  0.0000000  0 10G08G16G13G03G19G06G10G20G07G23
 130233426.755 6 101480659.88943  24782602.133                    24782613.742
 117825855.176 7  91812380.65844  22421519.070                    22421527.469
 106282666.723 7  82817687.70746  20224917.180                    20224925.164
 109325478.403 7  85188721.07545  20803945.664                    20803954.543
 113594083.295 7  88514916.75445  21616229.414                    21616236.965
 116778325.396 7  90996138.94044  22222176.633                    22222186.758
 125274668.384 6  97616697.21243  23838982.836                    23838993.723
 127290687.393 5  99187563.63343  24222625.797                    24222636.910
 119152297.791 7  92846012.448 6  22673926.664                    22673935.367
 105538893.881 8  82238122.06046  20083385.352                    20083391.879
 11  7 29 17 13 30.0000000  0 10G08G16G13G03G19G06G10G20G07G23
 130167521.919 6 101429305.59443  24770060.383                    24770072.914
 117913139.282 7  91880394.18544  22438128.734                    22438137.324
 106249853.521 7  82792118.98446  20218673.219                    20218680.719
 109332725.484 7  85194368.14245  20805324.234                    20805333.805
 113532735.989 7  88467113.68745  21604555.055                    21604562.680
 116814932.722 7  91024664.10744  22229143.031                    22229152.477
 125266644.449 6  97610444.78343  23837456.094                    23837467.098
 127378824.956 6  99256242.04243  24239397.070                    24239409.023
 119094208.037 7  92800747.757 7  22662871.883                    22662881.379
 105566497.301 8  82259631.19046  20088638.344                    20088644.582
 11  7 29 17 14  0.0000000  0 10G08G16G13G03G19G06G10G20G07G23
 130101566.803 6 101377912.10642  24757509.445                    24757521.215
 118000548.189 7  91948504.98744  22454762.422                    22454770.461
 106217543.244 7  82766942.13146  20212524.648                    20212532.391
 109340606.027 7  85200508.81345  20806824.281                    20806833.184
 113471836.840 7  88419659.82645  21592966.469                    21592973.871
 116852070.222 7  91053602.40244  22236209.805                    22236219.750
 125259126.475 6  97604586.62543  23836025.031                    23836036.871
 127466889.519 6  99324863.59343  24256156.266                    24256167.746
 119036139.602 7  92755499.653 6  22651822.055                    22651830.996
 105594663.165 8  82281578.58546  20093998.031                    20094004.336
 11  7 29 17 14 30.0000000  0 10G08G16G13G03G19G06G10G20G07G23
 130035561.004 6 101326479.08142  24744948.664                    24744961.164
 118088079.561 7  92016711.20644  22471418.844                    22471427.051
 106185737.329 7  82742158.30546  20206472.266                    20206480.012
 109349119.973 7  85207143.04545  20808444.297                    20808453.258
 113411388.404 7  88372557.17645  21581463.336                    21581471.250
 116889736.740 7  91082952.93145  22243377.680                    22243387.148
 125252114.052 6  97599122.37543  23834690.484                    23834702.629
 127554878.482 6  99393426.22643  24272900.227                    24272912.152
 118978092.491 7  92710268.169 7  22640775.820                    22640784.941
 105623391.028 8  82303963.90146  20099464.828                    20099471.277
 11  7 29 17 15  0.0000000  0 10G08G16G13G03G19G06G10G20G07G23
 129969504.662 6 101275006.71542  24732378.031                    24732390.871
 118175731.294 7  92085011.22244  22488098.484                    22488106.891
 106154437.921 7  82717769.15946  20200516.133                    20200523.902
 109358267.667 7  85214271.10945  20810185.313                    20810193.715
 113351393.580 7  88325807.99745  21570046.742                    21570054.500
 116927931.488 7  91112715.05545  22250645.219                    22250655.457
 125245606.705 6  97594051.68443  23833453.266                    23833464.477
 127642789.413 6  99461928.06743  24289629.063                    24289640.824
 118920067.288 7  92665053.735 6  22629733.883                    22629743.367
 105652681.315 8  82326787.47046  20105038.813                    20105045.309
 11  7 29 17 15 30.0000000  0 10G08G16G13G03G19G06G10G20G07G23
 129903397.445 6 101223494.65242  24719798.609                    24719810.953
 118263501.532 6  92153403.56644  22504801.023                    22504809.445
 106123647.639 7  82693776.74046  20194657.023                    20194664.422
 109368048.932 8  85221892.86045  20812046.508                    20812055.258
 113291855.629 7  88279414.82245  21558717.305                    21558724.906
 116966653.504 7  91142888.06144  22258014.563                    22258024.289
 125239604.358 6  97589374.55143  23832309.758                    23832321.273
 127730620.177 6  99530367.40743  24306343.023                    24306354.949
 118862064.563 7  92619856.830 6  22618696.836                    22618705.391
 105682534.148 8  82350049.39146  20110719.594                    20110725.676
 11  7 29 17 16  0.0000000  0 10G08G16G13G03G19G06G10G20G07G23
 129837238.914 6 101171942.64342  24707209.047                    24707221.613
 118351387.927 6  92221886.42644  22521524.766                    22521533.219
 106093368.201 7  82670182.37446  20188894.875                    20188903.094
 109378463.537 8  85230008.12445  20814028.320                    20814037.203
 113232776.808 7  88233379.41145  21547474.883                    21547482.414
 117005901.581 7  91173470.97244  22265482.836                    22265492.410
 125234106.112 6  97585090.17543  23831264.523                    23831275.004
 127818367.885 6  99598742.01443  24323040.680                    24323053.422
 118804084.300 7  92574677.455 6  22607663.078                    22607672.410
 105712948.747 8  82373749.05446  20116507.188                    20116513.449
 11  7 29 17 16 30.0000000  0 10G08G16G13G03G19G06G10G20G07G23
 129771028.492 5 101120350.18542  24694609.258                    24694622.402
 118439387.677 7  92290457.62444  22538270.789                    22538279.551
 106063600.666 7  82646986.89046  20183230.453                    20183238.324
 109389511.219 7  85238616.68645  20816130.570                    20816139.684
 113174159.221 7  88187703.40645  21536320.195                    21536327.500
 117045673.950 7  91204462.41544  22273051.992                    22273061.043
 125229110.761 6  97581197.72243  23830313.703                    23830324.875
 127906029.497 6  99667049.53443  24339722.000                    24339735.047
 118746126.503 7  92529515.568 6  22596634.438                    22596643.641
 105743924.573 8  82397886.01946  20122401.703                    20122408.434
 11  7 29 17 17  0.0000000  0 10G08G16G13G03G19G06G10G20G07G23
 129704766.132 6 101068717.21142  24682000.617                    24682013.176
 118527498.393 7  92359115.27344  22555038.172                    22555046.215
 106034347.236 7  82624192.01046  20177663.266                    20177671.684
 109401191.607 8  85247718.29145  20818353.297                    20818362.746
 113116006.144 7  88142389.34445  21525253.820                    21525261.133
 117085969.766 7  91235861.74045  22280719.828                    22280729.586
 125224617.864 6  97577696.73443  23829458.484                    23829469.305
 127993602.695 6  99735288.18643  24356386.594                    24356399.457
 118688191.519 7  92484371.459 7  22585609.375                    22585618.629
 105775461.761 8  82422460.42646  20128403.031                    20128409.344
 11  7 29 17 17 30.0000000  0 10G08G16G13G03G19G06G10G20G07G23
 129638452.374 6 101017044.23342  24669381.188                    24669393.457
 118615719.033 7  92427858.59444  22571825.844                    22571833.926
 106005611.010 7  82601800.14246  20172194.727                    20172202.859
 109413505.607 8  85257313.60845  20820696.734                    20820705.773
 113058320.764 7  88097439.73145  21514277.188                    21514283.938
 117126788.718 7  91267668.70245  22288487.148                    22288496.996
 125220627.733 6  97574587.56043  23828699.508                    23828710.492
 128081086.109 6  99803456.83643  24373034.602                    24373047.109
 118630280.401 7  92439245.951 6  22574589.125                    22574598.594
 105807561.022 8  82447472.80846  20134511.703                    20134517.988
 11  7 29 17 18  0.0000000  0 10G08G16G13G03G19G06G10G20G07G23
 129572086.318 6 100965330.53342  24656752.227                    24656764.617
 118704046.930 7  92496685.47944  22588634.313                    22588642.742
 105977392.954 7  82579812.03746  20166825.242                    20166833.145
 109426452.304 7  85267401.93045  20823160.391                    20823169.641
 113001105.336 7  88052856.31245  21503389.172                    21503396.012
 117168129.011 7  91299881.89544  22296353.828                    22296363.945
 125217138.744 6  97571868.82043  23828035.320                    23828046.816
 128168476.068 6  99871552.71843  24389664.500                    24389677.496
 118572392.850 7  92394138.800 7  22563573.375                    22563582.715
 105840221.045 8  82472922.14746  20140726.820                    20140732.953
 11  7 29 17 18 30.0000000  0 10G08G16G13G03G19G06G10G20G07G23
 129505667.424 6 100913575.72042  24644112.117                    24644125.047
 118792479.520 7  92565593.94944  22605462.422                    22605470.238
 105949694.421 7  82558228.75646  20161554.664                    20161562.680
 109440031.333 8  85277982.98445  20825744.617                    20825753.547
 112944362.338 7  88008641.01645  21492591.516                    21492598.672
 117209989.088 7  91332500.10844  22304319.211                    22304329.613
 125214150.304 6  97569540.12343  23827466.391                    23827477.621
 128255770.134 6  99939573.82543  24406275.961                    24406288.215
 118514529.144 7  92349050.237 7  22552562.227                    22552572.117
 105873441.346 8  82498808.07046  20147048.289                    20147054.570
 11  7 29 17 19  0.0000000  0 10G08G16G13G03G19G06G10G20G07G23
 129439195.148 5 100861779.24442  24631462.453                    24631475.277
 118881014.341 7  92634582.07744  22622309.875                    22622318.105
 105922517.250 7  82537051.73146  20156383.250                    20156390.797
 109454242.013 8  85289056.23345  20828448.609                    20828457.727
 112888093.890 7  87964795.49545  21481883.742                    21481891.359
 117252367.260 7  91365522.05244  22312383.711                    22312393.742
 125211661.601 6  97567600.89443  23826992.805                    23827003.891
 128342965.522 6 100007518.05443  24422869.031                    24422880.891
 118456689.161 7  92303980.171 7  22541555.836                    22541565.199
 105907221.415 8  82525130.17046  20153475.930                    20153482.508
 11  7 29 17 19 30.0000000  0 10G08G16G13G03G19G06G10G20G07G23
 129372669.986 6 100809941.60042  24618803.336                    24618816.059
 118969649.961 7  92703648.74844  22639176.813                    22639184.703
 105895864.192 7  82516283.11646  20151311.227                    20151319.453
 109469084.817 8  85300622.04945  20831273.219                    20831282.418
 112832303.488 7  87921322.49145  21471267.219                    21471274.621
 117295263.355 7  91398947.56145  22320547.070                    22320557.145
 125209672.308 6  97566050.75443  23826614.648                    23826625.793
 128430060.418 6 100075383.98043  24439443.445                    24439455.910
 118398874.185 7  92258929.568 7  22530554.391                    22530563.086
 105941561.605 8  82551888.74446  20160011.094                    20160017.438
 11  7 29 17 20  0.0000000  0 10G08G16G13G03G19G06G10G20G07G23
 129306091.680 6 100758062.45543  24606134.563                    24606146.613
 119058383.564 7  92772791.77644  22656062.141                    22656070.492
 105869736.168 7  82495923.60846  20146339.172                    20146347.320
 109484559.001 8  85312679.84745  20834217.469                    20834226.754
 112776993.127 7  87878223.53645  21460742.000                    21460749.645
 117338675.321 7  91432775.03844  22328807.594                    22328817.578
 125208181.240 6  97564888.84643  23826330.805                    23826341.891
 128517051.819 6 100143169.28743  24455997.750                    24456009.715
 118341084.101 6  92213898.367 7  22519556.469                    22519566.309
 105976461.096 8  82579083.12346  20166652.273                    20166658.215
 11  7 29 17 20 30.0000000  0 10G08G16G13G03G19G06G10G20G07G23
 129239459.464 6 100706141.30142  24593454.563                    24593466.625
 119147213.546 7  92842009.88744  22672966.156                    22672974.957
 105844135.211 8  82475974.80946  20141467.336                    20141475.332
 109500664.589 8  85325229.64045  20837282.578                    20837291.730
 112722165.923 7  87835501.05645  21450308.445                    21450315.754
 117382602.248 7  91467003.79944  22337167.047                    22337176.668
 125207187.992 6  97564114.89343  23826140.922                    23826153.305
 128603937.439 6 100210872.12843  24472530.758                    24472543.645
 118283319.145 7  92168886.758 7  22508564.234                    22508573.652
 106011919.605 8  82606713.09346  20173399.414                    20173405.953
 11  7 29 17 21  0.0000000  0 10G08G16G13G03G19G06G10G20G07G23
 129172773.465 6 100654178.25943  24580764.695                    24580777.012
 119236137.537 7  92911301.26844  22689887.883                    22689896.219
 105819063.048 7  82456438.04546  20136696.477                    20136704.629
 109517400.823 7  85338270.85845  20840467.172                    20840476.512
 112667824.049 7  87793156.76446  21439967.617                    21439975.234
 117427042.621 7  91501632.63545  22345623.781                    22345633.703
 125206691.759 6  97563728.15443  23826047.750                    23826058.465
 128690715.103 6 100278490.80543  24489044.711                    24489057.012
 118225579.964 7  92123895.216 7  22497576.852                    22497586.508
 106047936.874 8  82634778.46346  20180253.930                    20180259.957
 11  7 29 17 21 30.0000000  0 10G08G16G13G03G19G06G10G20G07G23
 129106032.975 6 100602172.73443  24568064.500                    24568076.387
 119325152.852 7  92980663.78744  22706827.234                    22706835.820
 105794521.096 7  82437314.43946  20132026.672                    20132034.484
 109534766.793 8  85351802.77645  20843772.383                    20843781.168
 112613969.676 7  87751192.34145  21429719.734                    21429726.953
 117471994.809 7  91536660.28644  22354177.977                    22354187.980
 125206691.166 6  97563727.67743  23826047.273                    23826058.859
 128777381.339 6 100346022.74043  24505536.883                    24505549.988
 118167866.229 7  92078923.488 7  22486594.469                    22486603.863
 106084511.610 8  82663278.21746  20187213.492                    20187219.855
 11  7 29 17 22  0.0000000  0 10G08G16G13G03G19G06G10G20G07G23
 129039238.758 6 100550125.38243  24555353.852                    24555366.227
 119414258.244 7  93050096.52044  22723783.219                    22723791.516
 105770512.309 7  82418606.28346  20127457.680                    20127465.262
 109552763.090 7  85365825.86845  20847196.242                    20847205.367
 112560606.265 7  87709610.48545  21419564.438                    21419571.949
 117517458.257 7  91572086.34045  22362829.734                    22362839.055
 125207186.472 6  97564113.60843  23826141.648                    23826153.137
 128863934.954 6 100413466.88042  24522007.367                    24522020.359
 118110179.368 7  92033972.715 7  22475617.000                    22475626.250
 106121644.460 8  82692212.88246  20194279.734                    20194286.387
 11  7 29 17 22 30.0000000  0 10G08G16G13G03G19G06G10G20G07G23
 128972389.664 6 100498035.28443  24542632.461                    24542645.484
 119503451.015 7  93119597.34844  22740755.602                    22740764.152
 105747037.056 8  82400313.87446  20122990.211                    20122998.047
 109571388.440 8  85380339.12345  20850740.930                    20850749.789
 112507735.226 7  87668412.30645  21409503.625                    21409510.727
 117563430.860 7  91607909.13144  22371577.742                    22371587.340
 125208175.842 6  97564884.54743  23826330.008                    23826340.582
 128950372.532 6 100480820.63342  24538456.211                    24538468.922
 118052518.861 7  91989042.494 7  22464644.953                    22464653.949
 106159334.031 8  82721581.33846  20201452.227                    20201458.113
 11  7 29 17 23  0.0000000  0 10G08G16G13G03G19G06G10G20G07G23
 128905485.848 6 100445902.54243  24529901.492                    24529913.398
 119592729.446 7  93189164.91544  22757744.555                    22757753.211
 105724097.705 7  82382439.04546  20118625.367                    20118633.516
 109590642.638 8  85395342.39345  20854405.000                    20854413.906
 112455360.028 7  87627600.49345  21399536.828                    21399544.172
 117609911.310 7  91644127.63345  22380422.523                    22380432.699
 125209658.863 6  97566040.12143  23826612.109                    23826623.203
 129036692.139 6 100548082.42342  24554881.984                    24554894.961
 117994885.570 7  91944133.455 7  22453677.516                    22453686.340
 106197580.081 8  82751383.43046  20208730.016                    20208736.426
 11  7 29 17 23 30.0000000  0 10G08G16G13G03G19G06G10G20G07G23
 128838526.719 6 100393726.69743  24517159.617                    24517171.188
 119682090.827 7  93258797.13044  22774749.961                    22774758.754
 105701694.781 7  82364982.21546  20114362.094                    20114369.945
 109610524.577 8  85410834.80845  20858188.633                    20858197.445
 112403482.091 7  87587176.16045  21389664.852                    21389672.316
 117656897.744 7  91680740.41544  22389363.906                    22389373.504
 125211633.988 6  97567579.12843  23826988.164                    23826999.449
 129122890.809 6 100615250.00642  24571285.734                    24571297.996
 117937279.109 7  91899245.344 7  22442715.305                    22442723.754
 106236381.689 8  82781618.41346  20216113.695                    20216119.770
 11  7 29 17 24  0.0000000  0 10G08G16G13G03G19G06G10G20G07G23
 128771512.311 6 100341507.74343  24504407.250                    24504418.836
 119771533.401 7  93328492.59644  22791770.375                    22791779.078
 105679830.560 7  82347945.14846  20110201.547                    20110209.180
 109631034.373 8  85426816.46245  20862091.039                    20862100.188
 112352104.583 7  87547141.76545  21379888.227                    21379895.684
 117704389.301 7  91717746.81844  22398401.539                    22398411.160
 125214100.595 7  97569501.15043  23827457.438                    23827468.164
 129208966.449 6 100682321.70042  24587665.375                    24587678.227
 117879700.660 7  91854379.040 7  22431758.281                    22431767.652
 106275738.578 8  82812286.09346  20223603.008                    20223609.715
 11  7 29 17 24 30.0000000  0 10G08G16G13G03G19G06G10G20G07G23
 128704442.737 6 100289245.84143  24491643.781                    24491655.977
 119861055.143 7  93398249.73444  22808806.133                    22808814.270
 105658507.134 7  82331329.47646  20106143.516                    20106151.777
 109652171.255 8  85443286.75945  20866113.430                    20866122.223
 112301229.789 7  87507499.09045  21370207.117                    21370214.668
 117752384.525 7  91755145.67745  22407534.773                    22407544.453
 125217057.981 6  97571805.57743  23828019.789                    23828030.973
 129294916.846 6 100749295.85042  24604021.180                    24604034.359
 117822150.742 7  91809534.976 6  22420806.859                    22420815.707
 106315650.320 8  82843386.11346  20231197.992                    20231204.348
 11  7 29 17 25  0.0000000  0 10G08G16G13G03G19G06G10G20G07G23
 128637317.207 6 100236940.22043  24478869.766                    24478882.875
 119950653.704 7  93468066.72544  22825856.594                    22825864.176
 105637725.455 8  82315135.95046  20102189.109                    20102197.137
 109673934.452 7  85460245.09045  20870254.773                    20870264.090
 112250859.629 7  87468249.65245  21360621.984                    21360629.254
 117800881.539 7  91792935.53745  22416763.242                    22416772.820
 125220504.631 6  97574491.24443  23828676.070                    23828687.309
 129380739.022 6 100816170.06342  24620352.938                    24620365.695
 117764628.987 7  91764712.831 6  22409860.969                    22409869.504
 106356115.693 8  82874917.54746  20238898.297                    20238905.125
 11  7 29 17 25 30.0000000  0 10G08G16G13G03G19G06G10G20G07G23
 128570136.144 6 100184591.38043  24466085.938                    24466097.961
 120040327.586 7  93537942.43944  22842920.641                    22842928.246
 105617487.732 8  82299366.29546  20098337.898                    20098345.750
 109696323.585 7  85477691.14845  20874515.664                    20874524.266
 112200997.363 7  87429395.94945  21351133.563                    21351140.816
 117849879.425 7  91831115.69244  22426087.227                    22426096.895
 125224440.333 6  97577557.96543  23829424.875                    23829436.336
 129466431.320 6 100882943.08142  24636660.008                    24636672.152
 117707136.454 7  91719913.508 7  22398920.570                    22398929.594
 106397134.564 8  82906880.27046  20246704.023                    20246710.156
 11  7 29 17 26  0.0000000  0 10G08G16G13G03G19G06G10G20G07G23
 128502899.078 6 100132198.91743  24453292.188                    24453303.105
 120130073.944 7  93607874.62544  22859999.430                    22860006.418
 105597794.751 7  82284021.10346  20094590.680                    20094598.402
 109719337.400 8  85495623.99145  20878894.570                    20878903.266
 112151644.753 7  87390939.39245  21341741.695                    21341749.590
 117899375.974 7  91869684.40644  22435506.625                    22435515.594
 125228863.326 6  97581004.37843  23830267.039                    23830277.949
 129551990.713 5 100949612.56642  24652940.773                    24652953.621
 117649673.327 7  91675137.093 7  22387985.555                    22387994.781
 106438705.807 8  82939273.41746  20254614.805                    20254621.156
 11  7 29 17 26 30.0000000  0 10G08G16G13G03G19G06G10G20G07G23
 128435606.055 6 100079762.82943  24440486.344                    24440498.152
 120219891.288 7  93677862.13244  22877089.672                    22877098.773
 105578648.645 7  82269102.04946  20090947.570                    20090955.441
 109742975.418 7  85514043.22245  20883392.758                    20883402.129
 112102804.488 7  87352882.07645  21332447.977                    21332454.602
 117949370.075 7  91908640.82344  22445019.672                    22445029.020
 125233773.118 6  97584830.14343  23831201.039                    23831211.613
 129637415.350 6 101016176.98242  24669198.227                    24669209.930
 117592240.740 7  91630384.459 7  22377056.664                    22377065.598
 106480829.280 8  82972096.87546  20262630.734                    20262637.051
 11  7 29 17 27  0.0000000  0 10G08G16G13G03G19G06G10G20G07G23
 128368256.663 6 100027282.89343  24427670.336                    24427681.824
 120309777.552 7  93747903.34244  22894195.336                    22894203.699
 105560050.967 7  82254610.34146  20087407.922                    20087416.277
 109767236.879 7  85532948.24745  20888009.703                    20888018.707
 112054478.616 7  87315225.58545  21323251.500                    21323258.852
 117999860.196 7  91947983.73944  22454627.250                    22454636.789
 125239168.644 6  97589034.40343  23832227.961                    23832239.129
 129722702.284 5 101082634.12942  24685426.516                    24685441.219
 117534838.319 7  91585655.336 7  22366132.797                    22366142.496
 106523504.192 8  83005350.02546  20270751.250                    20270758.066
 11  7 29 17 27 30.0000000  0 10G08G16G13G03G19G06G10G20G07G23
 128300850.804 6  99974758.89443  24414844.016                    24414855.105
 120399730.626 6  93817996.60444  22911312.141                    22911320.961
 105542002.632 8  82240546.69746  20083973.820                    20083981.598
 109792121.241 7  85552338.64045  20892745.367                    20892754.137
 112006669.475 7  87277971.71545  21314153.766                    21314161.070
 118050844.357 7  91987711.65244  22464329.234                    22464338.875
 125245048.501 7  97593616.08243  23833346.906                    23833358.625
 129807849.564 6 101148982.44642  24701630.367                    24701644.434
 117477466.570 7  91540950.110 7  22355215.570                    22355224.574
 106566729.159 8  83039031.77546  20278977.031                    20278982.719
 11  7 29 17 28  0.0000000  0 10G08G16G13G03G19G06G10G20G07G23
 128233388.272 6  99922190.68643  24402005.266                    24402016.004
 120489748.594 7  93888140.41044  22928442.750                    22928451.020
 105524505.624 7  82226912.64746  20080644.336                    20080651.898
 109817627.633 7  85572213.74945  20897598.336                    20897607.707
 111959379.605 7  87241122.48346  21305154.680                    21305162.363
 118102321.239 7  92027823.48344  22474125.695                    22474134.781
 125251411.868 7  97598574.46443  23834557.930                    23834568.633
 129892855.011 6 101215220.28442  24717805.383                    24717818.836
 117420126.403 7  91496269.490 7  22344303.688                    22344313.094
 106610503.955 8  83073141.97046  20287306.969                    20287313.723
 11  7 29 17 28 30.0000000  0 10G08G16G13G03G19G06G10G20G07G23
 128165869.157 6  99869578.45243  24389156.750                    24389168.664
 120579829.249 7  93958333.09544  22945583.891                    22945592.500
 105507561.238 8  82213709.22146  20077419.891                    20077427.465
 109843755.231 7  85592572.90445  20902570.719                    20902579.578
 111912610.903 7  87204679.36845  21296255.227                    21296262.551
 118154289.247 7  92068318.02044  22484014.750                    22484024.023
 125258257.461 7  97603908.66943  23835860.484                    23835871.172
 129977715.848 5 101281345.35242  24733954.234                    24733967.758
 117362818.149 7  91451613.735 7  22333399.039                    22333407.406
 106654827.597 8  83107679.84646  20295741.617                    20295747.922
 11  7 29 17 29  0.0000000  0 10G08G16G13G03G19G06G10G20G07G23
 128098293.268 6  99816921.95443  24376296.883                    24376309.273
 120669970.716 7  94028573.13944  22962737.977                    22962746.289
 105491170.786 8  82200937.42046  20074300.727                    20074308.645
 109870503.113 7  85613415.41045  20907660.578                    20907670.086
 111866365.885 7  87168644.32345  21287455.016                    21287462.043
 118206746.721 7  92109193.93944  22493996.281                    22494006.008
 125265583.890 7  97609617.52843  23837254.484                    23837266.289
 130062429.915 5 101347356.10242  24750074.195                    24750089.215
 117305542.303 7  91406983.247 7  22322499.586                    22322508.020
 106699698.969 8  83142644.51646  20304280.281                    20304286.555
 11  7 29 17 29 30.0000000  0 10G08G16G13G03G19G06G10G20G07G23
 128030659.979 6  99764220.73843  24363427.344                    24363438.625
 120760170.690 7  94098858.82144  22979902.266                    22979910.027
 105475335.382 8  82188598.14146  20071287.250                    20071295.164
 109897870.067 7  85634740.28945  20912868.156                    20912877.711
 111820646.573 7  87133018.87245  21278754.688                    21278761.730
 118259691.527 7  92150449.60344  22504072.063                    22504081.789
 125273389.952 7  97615700.06743  23838740.508                    23838751.621
 130146994.512 5 101413250.34842  24766169.273                    24766181.672
 117248298.826 7  91362377.963 7  22311606.148                    22311615.035
 106745117.091 8  83178035.22146  20312922.781                    20312929.652
 11  7 29 17 30  0.0000000  0 10G08G16G13G03G19G06G10G20G07G23
 127962969.781 6  99711475.15643  24350546.484                    24350558.035
 120850428.081 7  94169189.20243  22997077.813                    22997085.516
 105460057.177 8  82176693.02246  20068380.133                    20068387.734
 109925855.800 7  85656547.34345  20918193.781                    20918202.891
 111775455.380 7  87097804.99345  21270155.219                    21270162.590
 118313122.826 7  92192084.34444  22514239.414                    22514249.895
 125281675.096 7  97622155.92043  23840317.195                    23840327.449
 130231407.89715 101479026.81452  24782231.586                    24782244.965
 117191089.109 7  91317798.992 7  22300719.438                    22300728.582
 106791081.788 8  83213851.82946  20321669.898                    20321676.402
 11  7 29 17 30 30.0000000  0  9G08G16G13G03G19G06G10G07G23
 127895222.349 6  99658684.99643  24337654.086                    24337666.547
 120940739.957 7  94239562.04444  23014263.906                    23014272.055
 105445336.813 8  82165222.59346  20065578.828                    20065586.660
 109954459.109 7  85678835.62345  20923636.820                    20923645.918
 111730793.961 7  87063003.91846  21261656.898                    21261663.879
 118367038.131 7  92234096.24444  22524499.164                    22524509.191
 125290437.219 6  97628983.51043  23841985.016                    23841994.953
 117133913.016 7  91273246.212 7  22289839.570                    22289848.738
 106837591.643 8  83250093.22346  20330520.141                    20330527.199
 11  7 29 17 31  0.0000000  0  9G08G16G13G03G19G06G10G07G23
 127827418.215 6  99605850.64043  24324750.453                    24324764.082
 121031105.091 7  94309976.38744  23031458.828                    23031467.691
 105431176.846 8  82154188.83146  20062884.352                    20062892.129
 109983679.380 7  85701604.65345  20929197.125                    20929205.605
 111686665.534 7  87028618.15846  21253259.047                    21253266.324
 118421436.858 7  92276484.82444  22534850.977                    22534861.391
 125299676.349 6  97636182.79643  23843742.625                    23843753.066
 117076771.893 7  91228720.691 7  22278965.422                    22278975.043
 106884646.462 8  83286759.27546  20339474.539                    20339481.164
 11  7 29 17 31 30.0000000  0  9G08G16G13G03G19G06G10G07G23
 127759556.801 6  99552971.67243  24311837.188                    24311850.344
 121121521.334 7  94380430.54944  23048665.219                    23048673.590
 105417577.760 8  82143592.11746  20060296.328                    20060304.398
 110013515.047 7  85724853.21345  20934874.844                    20934883.180
 111643071.664 7  86994648.93346  21244963.570                    21244970.539
 118476316.536 7  92319248.18144  22545294.398                    22545304.645
 125309390.533 6  97643752.21443  23845591.445                    23845602.309
 117019665.806 7  91184222.466 7  22268098.648                    22268108.105
 106932244.846 8  83323848.88046  20348532.523                    20348539.176
 11  7 29 17 32  0.0000000  0  9G08G16G13G03G19G06G10G07G23
 127691637.435 6  99500047.55343  24298912.516                    24298925.801
 121211986.693 7  94450922.99644  23065879.797                    23065888.613
 105404540.754 8  82133433.39346  20057815.734                    20057823.922
 110043964.830 7  85748580.30245  20940669.742                    20940677.789
 111600014.128 7  86961097.62846  21236769.953                    21236776.930
 118531675.532 7  92362385.03944  22555828.656                    22555838.680
 125319578.304 6  97651690.71543  23847529.484                    23847541.246
 116962594.997 7  91139751.741 7  22257238.477                    22257247.668
 106980385.641 8  83361361.14846  20357693.336                    20357699.898
 11  7 29 17 32 30.0000000  0  9G08G16G13G03G19G06G10G07G23
 127623660.930 6  99447078.84743  24285976.789                    24285988.891
 121302499.648 7  94521452.52844  23083104.031                    23083112.164
 105392067.601 7  82123714.03646  20055442.406                    20055450.176
 110075029.002 7  85772786.15445  20946580.320                    20946589.141
 111557495.751 7  86927966.45246  21228679.219                    21228686.066
 118587512.354 7  92405894.23144  22566454.391                    22566464.371
 125330238.756 6  97659997.48842  23849558.055                    23849569.816
 116905560.946 7  91095309.646 7  22246385.469                    22246394.355
 107029068.383 8  83399295.70746  20366957.523                    20366964.234
 11  7 29 17 33  0.0000000  0  9G08G16G13G03G19G06G10G07G23
 127555626.996 6  99394065.43043  24273031.063                    24273042.539
 121393057.392 7  94592016.98544  23100336.828                    23100344.969
 105380158.925 7  82114434.52046  20053175.836                    20053184.086
 110106705.162 7  85797468.85545  20952608.594                    20952616.746
 111515517.951 7  86895256.49946  21220690.867                    21220697.938
 118643824.664 7  92449773.91444  22577169.688                    22577180.148
 125341370.046 6  97668671.15443  23851676.438                    23851688.082
 116848563.336 7  91050895.941 7  22235539.086                    22235547.961
 107078291.177 8  83437651.08246  20376324.227                    20376330.980
 11  7 29 17 33 30.0000000  0  9G08G16G13G03G19G06G10G07G23
 127487534.918 6  99341006.70443  24260073.383                    24260085.020
 121483658.437 7  94662615.16244  23117577.914                    23117586.293
 105368815.941 7  82105595.81446  20051017.820                    20051025.746
 110138992.792 7  85822628.04045  20958752.961                    20958761.191
 111474082.687 7  86862969.30345  21212805.531                    21212813.195
 118700610.724 7  92494022.75445  22587977.195                    22587986.504
 125352971.107 6  97677710.88443  23853884.477                    23853896.086
 116791602.513 7  91006510.909 7  22224699.727                    22224708.895
 107128053.237 8  83476426.66946  20385793.352                    20385800.543
 11  7 29 17 34  0.0000000  0  9G08G16G13G03G19G06G10G07G23
 127419385.120 6  99287903.01743  24247105.500                    24247117.094
 121574301.057 7  94733245.73044  23134826.156                    23134835.238
 105358039.963 8  82097198.91846  20048966.844                    20048974.809
 110171890.547 7  85848262.64145  20965012.719                    20965021.871
 111433192.156 7  86831106.59945  21205024.727                    21205031.902
 118757868.948 7  92538639.52944  22598872.320                    22598881.848
 125365040.541 6  97687115.63543  23856181.414                    23856192.785
 116734679.563 7  90962155.384 7  22213867.773                    22213876.672
 107178353.831 8  83515621.88946  20395365.453                    20395372.340
 11  7 29 17 34 30.0000000  0  9G08G16G13G03G19G06G10G07G23
 127351177.365 6  99234754.17943  24234125.523                    24234137.043
 121664983.326 6  94803907.20044  23152083.000                    23152090.887
 105347832.423 8  82089244.97246  20047024.844                    20047032.621
 110205397.295 7  85874371.78445  20971388.914                    20971397.887
 111392848.696 7  86799670.15345  21197347.602                    21197354.441
 118815597.301 7  92583622.64544  22609857.516                    22609867.414
 125377577.132 6  97696884.30643  23858567.055                    23858577.832
 116677794.989 7  90917829.768 7  22203042.703                    22203051.563
 107229191.445 8  83555235.57146  20405039.516                    20405046.637
 11  7 29 17 35  0.0000000  0  9G08G16G13G03G19G06G10G07G23
 127282911.542 6  99181560.13443  24221134.203                    24221146.742
 121755703.136 6  94874597.91544  23169346.375                    23169355.102
 105338194.342 8  82081734.76146  20045190.484                    20045198.496
 110239512.043 7  85900954.68745  20977880.977                    20977889.488
 111353053.968 7  86768661.27646  21189774.969                    21189781.840
 118873794.207 7  92628970.85745  22620932.680                    22620942.324
 125390579.348 6  97707015.83443  23861040.648                    23861051.996
 116620949.311 7  90873534.451 7  22192225.438                    22192234.824
 107280565.315 8  83595267.10446  20414815.953                    20414822.570
 11  7 29 17 35 30.0000000  0  9G08G16G13G03G19G06G10G07G23
 127214587.538 6  99128320.70543  24208132.969                    24208144.527
 121846458.742 6  94945316.51544  23186615.953                    23186624.945
 105329126.941 8  82074669.23846  20043465.227                    20043472.895
 110274233.332 7  85928010.21845  20984487.914                    20984496.910
 111313809.828 8  86738081.46246  21182307.383                    21182314.137
 118932457.676 7  92674682.63045  22632095.508                    22632105.742
 125404045.823 6  97717509.13842  23863603.617                    23863615.336
 116564143.305 7  90829270.078 7  22181415.516                    22181424.883
 107332474.438 8  83635715.72646  20424693.797                    20424700.367
 11  7 29 17 36  0.0000000  0  9G08G16G13G03G19G06G10G07G23
 127146205.712 6  99075036.23643  24195118.922                    24195131.938
 121937248.724 6  95016061.87444  23203892.414                    23203901.566
 105320631.626 8  82068049.48446  20041848.492                    20041856.637
 110309560.339 7  85955537.74245  20991210.883                    20991219.594
 111275118.796 7  86707932.62346  21174944.430                    21174951.406
 118991586.069 7  92720756.67944  22643347.102                    22643357.496
 125417975.449 6  97728363.34243  23866253.734                    23866265.859
 116507377.654 7  90785037.114 7  22170613.438                    22170622.590
 107384917.419 8  83676580.34446  20434673.383                    20434680.230
 11  7 29 17 36 30.0000000  0  9G08G16G13G03G19G06G10G07G23
 127077765.460 6  99021706.22443  24182096.977                    24182108.789
 122028070.333 6  95086831.87643  23221175.406                    23221184.105
 105312708.462 8  82061875.57446  20040341.117                    20040348.383
 110345490.702 7  85983535.41145  20998047.922                    20998056.672
 111236981.800 7  86678215.51546  21167687.242                    21167694.285
 119051176.835 7  92767191.01644  22654687.219                    22654696.730
 125432366.115 6  97739576.76243  23868992.758                    23869004.703
 116450652.265 7  90740835.542 7  22159818.344                    22159828.066
 107437892.354 8  83717859.46946  20444754.492                    20444760.992
 11  7 29 17 37  0.0000000  0  9G08G16G13G03G19G06G10G07G23
 127009267.652 6  98968331.38243  24169061.055                    24169073.738
 122118922.409 6  95157625.64643  23238464.656                    23238472.543
 105305359.461 7  82056149.06146  20038942.688                    20038950.605
 110382024.394 7  86012003.20745  21004999.922                    21005008.852
 111199401.347 7  86648932.07946  21160535.719                    21160542.680
 119111228.729 7  92813984.66644  22666114.523                    22666123.980
 125447216.921 6  97751148.74143  23871819.211                    23871830.758
 116393968.869 7  90696666.692 7  22149032.648                    22149041.086
 107491399.019 8  83759552.92646  20454936.563                    20454943.102
 11  7 29 17 37 30.0000000  0  9G08G16G13G03G19G06G10G07G23
 126940711.410 6  98914911.00843  24156017.375                    24156027.895
 122209802.689 6  95228441.37243  23255758.383                    23255766.688
 105298585.081 8  82050870.29846  20037653.641                    20037661.105
 110419158.986 7  86040939.23345  21012066.867                    21012075.293
 111162378.821 8  86620083.38346  21153490.586                    21153497.629
 119171739.384 7  92861135.81044  22677629.266                    22677638.633
 125462525.735 6  97763077.60143  23874731.711                    23874744.102
 116337327.071 7  90652530.255 7  22138254.180                    22138263.184
 107545435.318 8  83801659.09046  20465218.914                    20465226.008
 11  7 29 17 38  0.0000000  0  9G08G16G13G03G19G06G10G07G23
 126872097.316 6  98861445.53643  24142958.852                    24142971.289
 122300709.868 7  95299278.08743  23273058.102                    23273066.531
 105292386.850 8  82046040.48146  20036473.781                    20036481.574
 110456894.238 7  86070343.31545  21019247.477                    21019256.215
 111125916.676 8  86591671.34246  21146552.258                    21146559.430
 119232707.375 7  92908643.31844  22689231.141                    22689240.402
 125478291.739 6  97775362.73943  23877732.148                    23877743.566
 116280728.353 7  90608427.380 7  22127483.289                    22127492.441
 107600001.311 8  83844177.99846  20475602.445                    20475609.348
 11  7 29 17 38 30.0000000  0  9G08G16G13G03G19G06G10G07G23
 126803424.973 6  98807934.67043  24129892.008                    24129903.207
 122391642.118 7  95370134.33843  23290362.336                    23290370.367
 105286765.650 8  82041660.30646  20035404.633                    20035412.246
 110495228.120 7  86100213.85245  21026542.188                    21026550.625
 111090016.473 7  86563697.18946  21139720.367                    21139727.621
 119294130.475 7  92956505.45444  22700920.008                    22700929.195
 125494512.828 6  97788002.49543  23880818.297                    23880831.164
 116224173.144 7  90564358.417 7  22116721.602                    22116730.004
 107655094.851 8  83887107.98546  20486086.508                    20486093.199
 11  7 29 17 39  0.0000000  0  9G08G16G13G03G19G06G10G07G23
 126734694.420 6  98754378.47143  24116811.422                    24116823.727
 122482597.110 7  95441008.34244  23307669.648                    23307678.758
 105281722.001 8  82037730.17246  20034444.008                    20034451.902
 110534159.232 7  86130549.77045  21033950.516                    21033959.184
 111054679.818 7  86536162.17046  21132996.000                    21133003.141
 119356006.660 7  93004720.65044  22712693.633                    22712703.816
 125511187.548 6  97800995.71743  23883991.766                    23884003.848
 116167661.814 7  90520323.648 7  22105967.563                    22105976.555
 107710714.596 8  83930448.00246  20496670.695                    20496677.484
 11  7 29 17 39 30.0000000  0  9G08G16G13G03G19G06G10G07G23
 126665905.822 6  98700777.03843  24103721.703                    24103733.871
 122573573.898 7  95511899.33344  23324982.664                    23324991.023
 105277257.611 8  82034251.40346  20033594.820                    20033602.801
 110573686.734 7  86161350.39845  21041471.867                    21041481.070
 111019908.982 7  86509068.04146  21126378.867                    21126386.414
 119418334.233 7  93053287.56144  22724554.570                    22724564.223
 125528314.938 6  97814341.67943  23887251.234                    23887263.086
 116111195.645 7  90476324.070 7  22095222.227                    22095231.313
 107766859.582 8  83974197.28646  20507355.070                    20507361.641
 11  7 29 17 40  0.0000000  0  9G08G16G13G03G19G06G10G07G23
 126597059.477 6  98647130.55943  24090620.328                    24090632.809
 122664570.380 6  95582805.63944  23342298.086                    23342307.211
 105273372.884 8  82031224.31346  20032855.813                    20032863.363
 110613808.820 7  86192614.34845  21049107.375                    21049115.773
 110985705.424 7  86482415.94746  21119870.422                    21119877.605
 119481111.139 7  93102204.60244  22736500.578                    22736510.344
 125545892.988 6  97828038.73043  23890596.914                    23890608.688
 116054774.855 7  90432359.828 7  22084485.719                    22084494.551
 107823528.482 8  84018354.82446  20518138.492                    20518145.090
 11  7 29 17 40 30.0000000  0  9G08G16G13G03G19G06G10G07G23
 126528155.247 6  98593439.02343  24077508.070                    24077520.781
 122755584.836 6  95653725.94143  23359618.016                    23359626.438
 105270069.208 8  82028649.99846  20032226.734                    20032234.941
 110654524.016 7  86224340.46545  21056854.938                    21056863.422
 110952070.808 7  86456207.16646  21113470.023                    21113477.164
 119544335.226 7  93151470.08344  22748531.609                    22748541.570
 125563920.122 6  97842085.82243  23894026.266                    23894038.754
 115998400.252 7  90388431.608 7  22073757.633                    22073767.059
 107880719.889 8  84062919.50546  20529022.063                    20529028.367
 11  7 29 17 41  0.0000000  0  9G08G16G13G03G19G06G10G07G23
 126459193.371 6  98539702.54843  24064385.852                    24064398.191
 122846615.373 6  95724658.79843  23376939.445                    23376949.379
 105267347.481 7  82026529.14946  20031709.039                    20031717.359
 110695831.177 7  86256527.84745  21064715.430                    21064724.805
 110919006.953 7  86430443.15246  21107178.305                    21107185.609
 119608004.607 7  93201082.56244  22760648.297                    22760657.977
 125582394.804 6  97856481.59343  23897543.383                    23897554.438
 115942072.650 7  90344539.976 7  22063039.508                    22063048.242
 107938432.295 8  84107890.15446  20540004.109                    20540010.984
 11  7 29 17 41 30.0000000  0 10G08G28G16G13G03G19G06G10G07G23
 126390173.829 6  98485921.12243  24051251.492                    24051263.734
 129724704.69815                  24685798.133
 122937660.411 6  95795602.94943  23394265.250                    23394274.363
 105265208.368 8  82024862.27746  20031302.188                    20031310.219
 110737728.499 8  86289175.10145  21072688.367                    21072697.168
 110886515.521 7  86405125.18446  21100995.516                    21101002.320
 119672117.375 7  93251040.54444  22772847.727                    22772857.016
 125601315.238 6  97871224.71143  23901143.336                    23901155.598
 115885792.961 7  90300685.674 7  22052329.406                    22052338.672
 107996664.474 8  84153265.83646  20551085.508                    20551092.234
 11  7 29 17 42  0.0000000  0 10G08G28G16G13G03G19G06G10G07G23
 126321096.275 6  98432094.54443  24038106.930                    24038118.242
 129649797.029 5                  24671543.977
 123028718.171 6  95866556.97143  23411593.273                    23411602.309
 105263652.455 8  82023649.84746  20031006.102                    20031014.109
 110780214.366 7  86322280.95445  21080773.047                    21080782.242
 110854598.031 7  86380254.42446  21094921.703                    21094928.781
 119736671.289 7  93301342.27444  22785132.227                    22785141.512
 125620679.655 6  97886313.79543  23904827.703                    23904840.316
 115829561.483 7  90256868.963 7  22041629.242                    22041638.578
 108055414.815 8  84199045.27046  20562265.188                    20562272.238
 11  7 29 17 42 30.0000000  0 10G08G28G16G13G03G19G06G10G07G23
 126251960.963 6  98378222.90543  24024951.367                    24024961.809
 129575094.706 5                  24657328.250
 123119787.073 6  95937519.66643  23428923.336                    23428932.133
 105262680.630 8  82022892.55346  20030821.273                    20030828.922
 110823287.219 7  86355844.18945  21088969.898                    21088978.730
 110823255.851 7  86355831.97846  21088957.313                    21088964.461
 119801664.256 7  93351986.12444  22797499.773                    22797509.449
 125640486.789 6  97901747.84143  23908598.242                    23908609.391
 115773379.155 7  90213090.557 7  22030937.852                    22030946.629
 108114681.895 8  84245227.35646  20573543.578                    20573550.914
 11  7 29 17 43  0.0000000  0 10G08G28G16G13G03G19G06G10G07G23
 126182767.857 7  98324306.28943  24011784.188                    24011794.953
 129500598.431 5                  24643151.844
 123210865.269 6  96008489.63943  23446254.734                    23446263.547
 105262294.008 8  82022591.26446  20030747.453                    20030755.289
 110866945.607 7  86389863.69945  21097277.430                    21097286.891
 110792491.044 7  86331859.41646  21083103.211                    21083109.660
 119867094.325 7  93402970.56044  22809950.797                    22809961.168
 125660734.861 6  97917525.45443  23912450.930                    23912462.938
 115717246.836 7  90169351.120 7  22020256.258                    22020265.371
 108174464.313 8  84291810.99546  20584919.820                    20584926.766
 11  7 29 17 43 30.0000000  0 10G08G28G16G13G03G19G06G10G07G23
 126113517.337 7  98270344.88643  23998606.383                    23998617.305
 129426308.870 5                  24629014.891
 123301950.957 6  96079465.45643  23463588.000                    23463596.984
 105262493.338 8  82022746.56246  20030785.477                    20030793.652
 110911187.864 8  86424338.17145  21105696.367                    21105705.648
 110762304.942 7  86308337.80746  21077358.617                    21077366.395
 119932959.347 7  93454293.91244  22822485.195                    22822494.934
 125681421.838 6  97933645.08643  23916387.813                    23916399.328
 115661165.070 7  90125651.062 7  22009583.875                    22009593.203
 108234760.660 8  84338795.11146  20596393.984                    20596400.773
 11  7 29 17 44  0.0000000  0 10G08G28G16G13G03G19G06G10G07G23
 126044209.621 7  98216338.91443  23985417.477                    23985427.590
 129352226.558 5                  24614916.883
 123393042.871 6  96150446.10843  23480922.477                    23480930.957
 105263279.580 8  82023359.20146  20030935.297                    20030943.523
 110956012.458 8  86459266.40945  21114226.406                    21114235.691
 110732699.469 8  86285268.63346  21071725.023                    21071732.051
 119999257.500 7  93505954.79344  22835101.000                    22835111.227
 125702546.296 6  97950105.61743  23920408.445                    23920419.293
 115605135.051 7  90081991.309 7  21998921.727                    21998931.242
 108295569.472 8  84386178.54445  20607965.453                    20607972.289
 11  7 29 17 44 30.0000000  0 10G08G28G16G13G03G19G06G10G07G23
 125974843.744 7  98162287.67743  23972217.172                    23972227.785
 129278350.86516                  24600859.766
 123484138.473 6  96221429.64943  23498257.297                    23498265.957
 105264651.881 7  82024428.49646  20031196.180                    20031204.148
 111001416.823 7  86494646.40845  21122866.531                    21122875.723
 110703674.957 7  86262652.15146  21066202.070                    21066209.031
 120065985.643 7  93557950.73344  22847798.813                    22847808.555
 125724105.518 6  97966904.92643  23924510.375                    23924521.723
 115549156.190 7  90038371.452 7  21988269.531                    21988278.672
 108356888.153 8  84433959.28645  20619634.000                    20619641.551
 11  7 29 17 45  0.0000000  0 10G08G28G16G13G03G19G06G10G07G23
 125905421.009 7  98108192.09543  23959006.438                    23959017.535
 129204683.632 5                  24586840.898
 123575237.099 6  96292415.54643  23515592.414                    23515601.328
 105266612.144 7  82025955.94946  20031569.273                    20031576.957
 111047400.850 8  86530478.10745  21131617.125                    21131626.180
 110675234.054 8  86240490.43846  21060789.391                    21060796.703
 120133142.846 7  93610281.00144  22860578.430                    22860588.172
 125746098.867 6  97984042.47943  23928694.891                    23928706.855
 115493230.735 7  89994793.185 7  21977627.789                    21977636.320
 108418716.424 8  84482137.10346  20631399.281                    20631406.750
 11  7 29 17 45 30.0000000  0 10G08G28G16G13G03G19G06G10G07G23
 125835941.028 6  98054051.91143  23945784.758                    23945796.152
 129131224.413 5                  24572863.484
 123666336.390 6  96363402.00943  23532928.305                    23532937.141
 105269160.501 8  82027941.66746  20032054.258                    20032062.371
 111093961.646 7  86566759.21945  21140477.188                    21140486.211
 110647377.439 7  86218784.00346  21055488.961                    21055495.816
 120200726.363 7  93662943.45044  22873439.141                    22873449.105
 125768523.906 6  98001516.45943  23932962.586                    23932975.098
 115437358.591 7  89951256.460 7  21966995.703                    21967004.344
 108481052.234 8  84530710.41246  20643261.828                    20643268.563
 11  7 29 17 46  0.0000000  0 11G08G28G16G11G13G03G19G06G10G07G23
 125766403.784 6  97999867.07943  23932551.938                    23932563.293
 129057973.944 5                  24558923.008
 123757435.025 6  96434387.93043  23550263.453                    23550272.652
 130126140.17516 101397078.84253  24762190.227                    24762203.156
 105272298.196 7  82030386.59546  20032651.445                    20032659.418
 111141098.237 7  86603489.00045  21149446.977                    21149456.188
 110620106.850 7  86197534.21046  21050299.461                    21050306.691
 120268734.118 7  93715936.47644  22886381.195                    22886390.480
 125791378.956 6  98019325.47043  23937311.766                    23937324.465
 115381541.038 7  89907762.268 7  21956373.500                    21956382.660
 108543894.040 7  84579678.00045  20655220.047                    20655227.172
 11  7 29 17 46 30.0000000  0 11G08G28G16G11G13G03G19G06G10G07G23
 125696809.688 6  97945637.98543  23919308.141                    23919320.625
 128984933.218 5                  24545023.703
 123848531.600 6  96505372.23343  23567599.500                    23567608.172
 130050356.218 6 101338026.51343  24747768.625                    24747782.496
 105276025.859 7  82033291.24846  20033360.531                    20033368.754
 111188809.145 7  86640666.31245  21158526.430                    21158535.281
 110593424.153 8  86176742.52946  21045221.719                    21045228.816
 120337164.443 7  93769258.77644  22899402.422                    22899412.629
 125814662.548 6  98037468.43443  23941743.117                    23941754.477
 115325779.200 7  89864311.497 7  21945762.211                    21945771.449
 108607240.447 8  84629038.78146  20667274.898                    20667281.262
 11  7 29 17 47  0.0000000  0 11G08G28G16G11G13G03G19G06G10G07G23
 125627159.004 6  97891364.79443  23906054.453                    23906065.563
 128912102.320 5                  24531164.227
 123939624.577 6  96576353.73843  23584933.539                    23584942.563
 129974430.922 6 101278864.07443  24733320.602                    24733334.371
 105280344.165 7  82036656.13446  20034182.227                    20034190.516
 111237091.897 7  86678289.21745  21167714.156                    21167723.344
 110567330.652 7  86156409.95646  21040256.055                    21040263.414
 120406015.052 7  93822908.57244  22912504.266                    22912515.113
 125838373.112 6  98055944.12443  23946254.383                    23946266.688
 115270074.010 7  89820904.848 7  21935161.609                    21935170.363
 108671089.894 8  84678791.54346  20679424.898                    20679431.797
 11  7 29 17 47 30.0000000  0 11G08G28G16G11G13G03G19G06G10G07G23
 125557451.382 6  97837047.21343  23892790.055                    23892801.742
 128839481.077 5                  24517344.594
 124030711.769 6  96647330.69543  23602267.672                    23602276.129
 129898365.840 6 101219592.67342  24718845.422                    24718860.395
 105285252.774 7  82040480.99646  20035116.469                    20035124.582
 111285944.031 7  86716355.79645  21177010.234                    21177019.441
 110541827.046 7  86136537.03846  21035403.258                    21035410.027
 120475283.147 6  93876883.67944  22925685.438                    22925695.879
 125862507.854 6  98074750.34443  23950847.344                    23950859.598
 115214425.230 7  89777542.181 7  21924572.180                    21924581.027
 108735440.210 8  84728934.59145  20691670.172                    20691677.539
 11  7 29 17 48  0.0000000  0 11G08G28G16G11G13G03G19G06G10G07G23
 125487687.500 6  97782685.81943  23879514.031                    23879525.328
 128767070.879 6 100338053.86352  24503566.125                    24503578.586
 124121792.390 6  96718302.56743  23619598.688                    23619607.355
 129822164.432 6 101160215.02842  24704345.109                    24704359.430
 105290753.216 8  82044767.03246  20036163.242                    20036171.582
 111335364.917 7  86754865.56345  21186414.367                    21186424.172
 110516915.433 8  86117125.40946  21030662.336                    21030669.559
 120544967.394 6  93931183.07744  22938945.727                    22938956.121
 125887066.096 6  98093886.59743  23955521.141                    23955533.039
 115158835.113 7  89734225.215 7  21913993.992                    21914002.227
 108800290.536 8  84779467.25546  20704011.102                    20704017.848
 11  7 29 17 48 30.0000000  0 11G08G28G16G11G13G03G19G06G10G07G23
 125417867.037 6  97728280.29243  23866227.656                    23866238.426
 128694871.374 6 100281794.53442  24489827.344                    24489839.676
 124212864.657 6  96789267.93944  23636928.867                    23636937.738
 129745828.287 6 101100732.37743  24689819.164                    24689833.395
 105296845.503 8  82049514.23746  20037322.805                    20037330.977
 111385352.214 7  86793816.66245  21195927.313                    21195936.133
 110492596.471 8  86098175.58446  21026034.578                    21026041.801
 120615064.977 6  93985804.52144  22952285.055                    22952295.141
 125912044.850 6  98113350.44243  23960273.930                    23960286.305
 115103303.491 7  89690953.817 7  21903426.844                    21903435.574
 108865638.532 8  84830387.73046  20716445.961                    20716453.504
 11  7 29 17 49  0.0000000  0 11G08G28G16G11G13G03G19G06G10G07G23
 125347990.741 6  97673831.31943  23852930.352                    23852942.000
 128622883.400 6 100225700.10243  24476127.836                    24476140.730
 124303926.643 6  96860225.28543  23654257.609                    23654266.586
 129669360.026 6 101041146.76042  24675266.617                    24675280.809
 105303530.239 7  82054723.09346  20038594.773                    20038602.848
 111435904.588 7  86833208.09745  21205546.875                    21205556.117
 110468871.601 8  86079688.69846  21021520.109                    21021527.453
 120685574.154 6  94040746.70743  22965702.930                    22965712.426
 125937442.807 6  98133140.93943  23965107.758                    23965119.488
 115047831.638 7  89647729.028 7  21892870.242                    21892879.887
 108931482.771 8  84881694.86345  20728976.367                    20728983.215
 11  7 29 17 49 30.0000000  0 11G08G28G16G11G13G03G19G06G10G07G23
 125278058.715 6  97619338.88543  23839622.727                    23839634.219
 128551107.314 6 100169770.72942  24462469.547                    24462482.152
 124394977.001 6  96931173.59943  23671584.453                    23671592.484
 129592762.023 6 100981460.10042  24660691.227                    24660705.477
 105310807.976 8  82060394.03546  20039979.758                    20039987.555
 111487019.971 7  86873038.24345  21215274.305                    21215283.336
 110445742.312 7  86061665.87946  21017119.234                    21017126.176
 120756492.375 6  94096007.63144  22979197.773                    22979207.566
 125963257.992 6  98153256.61143  23970019.688                    23970031.355
 114992420.536 7  89604551.547 7  21882326.477                    21882335.039
 108997821.478 8  84933387.31046  20741600.031                    20741606.930
 11  7 29 17 50  0.0000000  0 11G08G28G16G11G13G03G19G06G10G07G23
 125208070.888 6  97564802.96843  23826304.617                    23826315.270
 128479543.050 6 100114006.39142  24448850.648                    24448864.230
 124486013.999 6  97002111.50943  23688908.266                    23688916.527
 129516036.150 6 100921673.86042  24646090.625                    24646104.707
 105318678.780 8  82066527.09846  20041477.523                    20041485.566
 111538695.990 7  86913305.25945  21225107.492                    21225116.676
 110423209.410 8  86044107.78646  21012830.766                    21012838.020
 120827817.214 7  94151585.40244  22992771.078                    22992780.336
 125989488.249 6  98173695.70143  23975010.859                    23975023.227
 114937070.536 7  89561421.680 7  21871793.992                    21871802.719
 109064652.514 8  84985463.38346  20754317.461                    20754324.488
 11  7 29 17 50 30.0000000  0 11G08G28G16G11G13G03G19G06G10G07G23
 125138027.508 6  97510223.76343  23812975.711                    23812986.797
 128408191.453 5                  24435272.859
 124577036.417 6  97073038.03243  23706228.617                    23706237.941
 129439184.967 6 100861789.90742  24631465.969                    24631480.234
 105327143.245 8  82073122.76146  20043088.391                    20043096.289
 111590931.276 7  86954008.06045  21235047.070                    21235056.898
 110401274.667 8  86027015.79246  21008656.961                    21008664.133
 120899546.710 6  94207478.47044  23006420.563                    23006430.336
 126016131.646 6  98194456.67443  23980081.617                    23980094.090
 114881782.659 7  89518340.237 7  21861272.414                    21861282.156
 109131974.630 8  85037922.09945  20767128.539                    20767135.508
 11  7 29 17 51  0.0000000  0 11G08G28G16G11G13G03G19G06G10G07G23
 125067929.260 6  97455601.82043  23799635.555                    23799647.820
 128337052.840 5                  24421736.563
 124668043.119 6  97143952.30643  23723547.266                    23723556.801
 129362211.684 6 100801810.72542  24616818.375                    24616833.070
 105336202.350 7  82080181.77646  20044812.250                    20044820.738
 111643723.861 7  86995145.10645  21245093.750                    21245102.906
 110379939.179 7  86010390.75446  21004597.023                    21004603.656
 120971679.134 6  94263685.53844  23020146.531                    23020156.625
 126043186.826 6  98215538.56843  23985229.773                    23985241.875
 114826558.529 7  89475308.476 7  21850763.859                    21850772.465
 109199786.231 8  85090762.24746  20780032.875                    20780040.383
 11  7 29 17 51 30.0000000  0 11G08G28G16G11G13G03G19G06G10G07G23
 124997775.583 6  97400936.68543  23786286.328                    23786298.156
 128266127.22515                  24408239.250
 124759031.848 6  97214852.57343  23740861.867                    23740870.527
 129285117.669 5 100741737.56442  24602148.125                    24602161.801
 105345855.880 8  82087703.98146  20046649.445                    20046657.113
 111697071.495 7  87036714.66045  21255245.633                    21255254.574
 110359203.636 7  85994233.18746  21000651.023                    21000657.883
 121044211.440 7  94320204.18544  23033949.578                    23033958.934
 126070651.047 6  98236939.15543  23990455.289                    23990468.227
 114771398.458 7  89432326.616 7  21840267.281                    21840276.109
 109268084.936 8  85143981.94845  20793029.156                    20793036.441
 11  7 29 17 52  0.0000000  0 11G08G28G16G11G13G03G19G06G10G07G23
 124927567.352 6  97346229.00843  23772926.320                    23772937.496
 128195415.38815                  24394782.102
 124850001.627 6  97285738.05143  23758172.281                    23758182.578
 129207905.835 5 100681572.73942  24587455.055                    24587469.164
 105356104.299 7  82095689.72646  20048599.391                    20048607.918
 111750972.463 7  87078715.38645  21265502.383                    21265511.707
 110339069.516 7  85978544.27346  20996819.789                    20996826.832
 121117141.853 7  94377033.06844  23047827.664                    23047836.938
 126098522.835 6  98258657.33343  23995760.836                    23995772.156
 114716303.705 7  89389395.662 7  21829782.695                    21829791.859
 109336869.439 8  85197580.19345  20806118.523                    20806126.051
 11  7 29 17 52 30.0000000  0 11G08G28G16G11G13G03G19G06G10G07G23
 124857304.353 6  97291478.68544  23759555.914                    23759567.660
 128124917.186 5                  24381368.461
 124940950.636 6  97356607.37743  23775479.453                    23775489.367
 129130578.359 5 100621317.64542  24572738.992                    24572754.070
 105366947.824 8  82104139.20846  20050663.039                    20050671.215
 111805424.651 7  87121145.63545  21275864.336                    21275873.797
 110319537.742 7  85963324.71846  20993103.211                    20993109.836
 121190467.862 6  94434170.20844  23061781.188                    23061790.789
 126126799.679 6  98280691.16943  24001140.750                    24001153.809
 114661274.680 8  89346515.923 7  21819311.445                    21819320.500
 109406137.515 8  85251555.25245  20819300.328                    20819307.523
 11  7 29 17 53  0.0000000  0 11G08G28G16G11G13G03G19G06G10G07G23
 124786987.012 7  97236686.02644  23746174.648                    23746186.520
 128054633.225 6                  24367992.727
 125031877.731 6  97427459.64443  23792782.375                    23792791.816
 129053137.576 6 100560974.23742  24558003.211                    24558017.121
 105378386.757 8  82113052.63546  20052839.484                    20052847.832
 111860426.154 7  87164003.92045  21286331.203                    21286340.281
 110300609.249 7  85948575.25246  20989500.766                    20989508.188
 121264187.214 7  94491613.82344  23075809.961                    23075819.055
 126155479.957 6  98303039.34643  24006598.789                    24006611.352
 114606312.765 7  89303688.479 7  21808852.430                    21808860.871
 109475887.584 8  85305905.88345  20832573.141                    20832580.469
 11  7 29 17 53 30.0000000  0 11G08G28G16G11G13G03G19G06G10G07G23
 124716615.831 7  97181851.39844  23732783.352                    23732795.223
 127984563.723 6                  24354657.641
 125122780.784 6  97498293.13543  23810081.188                    23810089.977
 128975586.232 6 100500544.73642  24543246.047                    24543259.852
 105390421.432 8  82122430.27546  20055129.594                    20055137.520
 111915974.981 7  87207288.69145  21296901.594                    21296910.574
 110282285.202 7  85934296.79546  20986013.602                    20986020.586
 121338297.539 6  94549362.09244  23089912.625                    23089921.672
 126184561.189 6  98325699.96643  24012133.594                    24012145.191
 114551418.712 7  89260913.903 7  21798406.219                    21798415.289
 109546117.501 7  85360630.42445  20845937.688                    20845944.855
 11  7 29 17 54  0.0000000  0 11G08G28G16G11G13G03G19G06G10G07G23
 124646190.528 7  97126974.57743  23719382.148                    23719392.824
 127914708.770 6                  24341365.617
 125213659.000 6  97569107.29643  23827374.555                    23827383.301
 128897926.674 6 100440030.94642  24528467.984                    24528481.473
 105403051.885 7  82132272.16346  20057533.406                    20057541.379
 111972068.650 7  87250998.01845  21307575.750                    21307584.898
 110264566.751 7  85920490.23246  20982641.469                    20982649.070
 121412796.573 7  94607413.26444  23104088.914                    23104099.008
 126214041.590 6  98348671.59943  24017743.250                    24017754.758
 114496593.424 7  89218192.933 7  21787973.750                    21787982.555
 109616825.244 7  85415727.29745  20859392.984                    20859400.191
 11  7 29 17 54 30.0000000  0 11G08G28G16G11G13G03G19G06G10G07G23
 124575712.050 7  97072056.33443  23705970.047                    23705981.090
 127845068.902 6                  24328114.055
 125304510.765 6  97639900.86343  23844662.914                    23844671.699
 128820161.327 6 100379434.64143  24513668.750                    24513683.000
 105416278.200 8  82142578.34746  20060050.305                    20060058.590
 112028705.354 7  87295130.49645  21318353.773                    21318362.563
 110247454.788 7  85907156.24046  20979385.125                    20979392.629
 121487682.168 6  94665765.63944  23118338.922                    23118349.027
 126243919.073 6  98371952.67543  24023428.586                    24023440.695
 114441838.049 7  89175526.394 7  21777553.555                    21777562.445
 109688009.499 7  85471195.48845  20872939.148                    20872945.859
 11  7 29 17 55  0.0000000  0 11G08G28G16G11G13G03G19G06G10G07G23
 124505180.196 7  97017096.49044  23692548.516                    23692559.586
 127775643.961 6  99565504.44852  24314903.484                    24314913.324
 125395334.679 6  97710672.68543  23861946.203                    23861954.871
 128742292.467 6 100318757.74242  24498851.586                    24498864.973
 105430100.685 8  82153349.07946  20062680.461                    20062688.691
 112085882.762 7  87339684.29845  21329234.180                    21329243.117
 110230949.890 7  85894295.29246  20976244.891                    20976252.469
 121562951.709 6  94724417.19544  23132662.242                    23132673.031
 126274191.664 6  98395541.61543  24029189.406                    24029201.492
 114387153.325 7  89132914.958 7  21767147.477                    21767156.652
 109759667.772 8  85527033.02445  20886575.094                    20886582.156
 11  7 29 17 55 30.0000000  0 11G08G28G16G11G13G03G19G06G10G07G23
 124434595.203 7  96962095.24843  23679116.234                    23679127.824
 127706434.489 6  99511575.09942  24301731.734                    24301744.129
 125486129.106 6  97781421.58143  23879224.656                    23879232.547
 128664322.507 6 100258002.08043  24484013.688                    24484027.480
 105444519.236 8  82164584.29146  20065424.398                    20065432.445
 112143599.037 7  87384657.98845  21340217.328                    21340226.586
 110215052.710 7  85881907.89346  20973219.727                    20973227.270
 121638602.820 6  94783366.08744  23147058.367                    23147068.230
 126304856.903 6  98419436.52843  24035025.281                    24035036.902
 114332540.199 7  89090359.287 7  21756754.867                    21756763.949
 109831798.332 7  85583238.59345  20900301.164                    20900308.676
 11  7 29 17 56  0.0000000  0 11G08G28G16G11G13G03G19G06G10G07G23
 124363957.457 6  96907052.90143  23665674.367                    23665685.453
 127637440.999 6  99457813.98343  24288602.406                    24288615.984
 125576892.938 6  97852146.59543  23896496.039                    23896505.664
 128586254.108 6 100197169.64343  24469158.383                    24469171.625
 105459534.610 8  82176284.55246  20068281.758                    20068289.813
 112201852.282 7  87430050.09145  21351302.773                    21351311.414
 110199764.949 7  85869995.35846  20970310.633                    20970317.633
 121714633.590 6  94842610.81044  23161526.820                    23161536.410
 126335912.906 6  98443635.91443  24040934.828                    24040947.133
 114278000.193 7  89047860.606 7  21746376.313                    21746385.160
 109904399.172 7  85639810.59045  20914116.719                    20914123.508
 11  7 29 17 56 30.0000000  0 11G08G28G16G11G13G03G19G06G10G07G23
 124293267.405 6  96851969.78143  23652222.305                    23652233.309
 127568663.580 6  99404221.26143  24275515.930                    24275528.625
 125667624.858 6  97922846.74943  23913760.914                    23913771.008
 128508089.782 6 100136262.50043  24454283.797                    24454296.992
 105475146.820 8  82188449.88146  20071252.203                    20071260.906
 112260640.320 7  87475858.92645  21362489.289                    21362498.535
 110185087.337 8  85858558.26846  20967517.664                    20967524.805
 121791041.544 6  94902149.42044  23176066.102                    23176076.730
 126367357.314 6  98468137.92343  24046918.711                    24046931.098
 114223534.051 7  89005419.464 7  21736012.055                    21736020.578
 109977468.525 7  85696747.67345  20928021.313                    20928028.898
 11  7 29 17 57  0.0000000  0 11G08G28G16G11G13G03G19G06G10G07G23
 124222525.310 6  96796846.12343  23638761.141                    23638771.645
 127500102.194 6  99350796.89143  24262468.094                    24262481.605
 125758323.015 6  97993520.55443  23931020.625                    23931030.723
 128429831.919 6 100075282.48143  24439391.383                    24439405.195
 105491355.191 8  82201079.74446  20074337.133                    20074345.227
 112319960.488 7  87522082.40445  21373777.391                    21373787.109
 110171020.563 8  85847597.15446  20964840.680                    20964847.770
 121867824.056 6  94961979.93043  23190676.813                    23190687.863
 126399188.035 6  98492940.99343  24052976.070                    24052988.500
 114169142.594 7  88963036.524 7  21725661.844                    21725670.082
 110051003.849 7  85754047.84645  20942014.820                    20942021.988
 11  7 29 17 57 30.0000000  0 11G08G28G16G11G13G03G19G06G10G07G23
 124151731.899 6  96741682.44243  23625289.391                    23625300.004
 127431757.371 6  99297541.29043  24249463.227                    24249475.953
 125848986.672 6  98064167.51743  23948272.945                    23948282.199
 128351483.478 6 100014231.88443  24424482.141                    24424495.641
 105508160.661 8  82214174.88746  20077534.938                    20077543.316
 112379811.155 7  87568719.27145  21385166.430                    21385175.762
 110157565.508 7  85837112.70046  20962280.344                    20962287.516
 121944979.263 6  95022100.85343  23205359.750                    23205369.672
 126431403.226 6  98518043.64843  24059105.789                    24059118.754
 114114827.215 7  88920712.868 7  21715325.461                    21715334.051
 110125003.543 7  85811709.88045  20956096.406                    20956103.594
 11  7 29 17 58  0.0000000  0 11G08G28G16G11G13G03G19G06G10G07G23
 124080887.228 6  96686478.83943  23611808.672                    23611819.246
 127363629.091 6  99244454.41743  24236498.281                    24236511.691
 125939614.148 6  98134786.27143  23965519.352                    23965528.621
 128273046.466 6  99953112.28843  24409556.000                    24409570.090
 105525562.667 8  82227734.86146  20080846.313                    20080854.430
 112440190.076 7  87615767.75345  21396656.398                    21396665.688
 110144722.764 7  85827105.37446  20959836.352                    20959843.309
 122022504.363 6  95082509.98643  23220112.086                    23220122.313
 126464000.487 6  98543443.97943  24065309.102                    24065322.086
 114060588.779 7  88878449.161 7  21705004.547                    21705013.477
 110199465.599 8  85869732.18045  20970266.102                    20970273.250
 11  7 29 17 58 30.0000000  0 11G08G28G16G11G13G03G19G06G10G07G23
 124009991.220 6  96631235.25543  23598317.008                    23598327.711
 127295717.508 6  99191536.38943  24223575.859                    24223587.434
 126030203.795 6  98205375.57743  23982758.719                    23982766.656
 128194523.520 6  99891925.68343  24394613.273                    24394627.676
 105543561.337 8  82241759.77246  20084271.555                    20084279.934
 112501094.786 7  87663225.93045  21408246.367                    21408255.523
 110132493.066 8  85817575.74646  20957509.117                    20957516.832
 122100396.987 6  95143205.50243  23234935.719                    23234944.566
 126496977.575 6  98569140.36543  24071584.711                    24071598.285
 114006428.095 7  88836246.039 7  21694698.320                    21694706.516
 110274387.745 8  85928112.99045  20984523.750                    20984530.832
 11  7 29 17 59  0.0000000  0 11G08G28G16G11G13G03G19G06G10G07G23
 123939044.965 6  96575952.47943  23584815.852                    23584827.320
 127228023.319 6  99138787.74743  24210693.930                    24210705.734
 126120755.071 6  98275934.98443  23999990.000                    23999997.793
 128115917.602 6  99830674.48543  24379655.438                    24379669.668
 105562156.986 8  82256249.86146  20087810.063                    20087818.445
 112562523.444 7  87711092.39845  21419935.930                    21419945.313
 110120877.498 7  85808524.66946  20955298.773                    20955306.188
 122178655.018 7  95204185.77443  23249827.133                    23249836.965
 126530332.804 6  98595131.32943  24077932.484                    24077944.879
 113952346.870 7  88794104.822 7  21684406.523                    21684415.590
 110349768.498 8  85986851.16645  20998868.281                    20998875.250
 11  7 29 17 59 30.0000000  0 11G08G28G16G11G13G03G19G06G10G07G23
 123868048.113 7  96520630.26543  23571305.539                    23571316.230
 127160546.029 6  99086208.13943  24197853.391                    24197864.559
 126211265.987 6  98346462.97543  24017213.813                    24017221.504
 128037230.580 6  99769360.03742  24364680.805                    24364695.441
 105581349.049 8  82271204.68146  20091462.320                    20091470.504
 112624473.468 7  87759365.11145  21431724.695                    21431733.719
 110109876.229 7  85799952.25846  20953205.461                    20953212.418
 122257275.827 6  95265448.73943  23264788.234                    23264798.082
 126564063.317 6  98621414.75143  24084350.906                    24084363.254
 113898345.616 7  88752025.929 7  21674130.555                    21674139.324
 110425605.192 8  86045944.60245  21013299.336                    21013306.641
 11  7 29 18  0  0.0000000  0 11G08G28G16G11G13G03G19G06G10G07G23
 123797001.536 6  96465269.33144  23557786.320                    23557798.133
 127093285.979 6  99033797.82242  24185053.477                    24185065.934
 126301735.443 6  98416958.63743  24034429.000                    24034437.430
 127958465.124 6  99707984.51143  24349692.961                    24349707.211
 105601137.375 7  82286624.12646  20095227.742                    20095236.258
 112686942.162 7  87808041.98545  21443612.578                    21443621.766
 110099489.989 8  85791859.09546  20951228.969                    20951236.035
 122336256.930 7  95326992.39443  23279817.625                    23279827.949
 126598167.139 6  98647989.03243  24090840.773                    24090853.742
 113844425.259 7  88710010.075 7  21663869.758                    21663879.078
 110501895.557 7  86105391.54445  21027816.922                    21027824.047
 11  7 29 18  0 30.0000000  0 11G08G28G16G11G13G03G19G06G10G07G23
 123725905.780 6  96409870.03543  23544257.078                    23544268.535
 127026243.460 6  98981557.02242  24172295.938                    24172308.520
 126392162.691 6  98487421.37043  24051636.523                    24051645.816
 127879623.914 6  99646549.93342  24334690.102                    24334703.227
 105621522.378 8  82302508.51446  20099107.086                    20099115.609
 112749927.675 7  87857121.57345  21455597.773                    21455606.988
 110089719.798 8  85784245.96546  20949369.711                    20949376.637
 122415596.182 6  95388815.14443  23294915.398                    23294925.414
 126632642.142 6  98674852.54343  24097400.977                    24097413.859
 113790587.303 7  88668058.436 7  21653624.570                    21653633.797
 110578637.933 8  86165190.71845  21042420.875                    21042428.512
 11  7 29 18  1  0.0000000  0 11G08G28G16G11G13G03G19G06G10G07G23
 123654760.663 6  96354432.30944  23530719.078                    23530730.070
 126959418.641 6  98929485.79042  24159579.953                    24159592.043
 126482545.376 6  98557849.40643  24068834.766                    24068844.805
 127800709.522 6  99585058.34842  24319672.578                    24319686.453
 105642503.367 8  82318857.30846  20103099.766                    20103108.289
 112813427.693 7  87906602.07845  21467681.086                    21467690.480
 110080565.661 7  85777112.88746  20947627.727                    20947634.824
 122495290.999 6  95450914.99643  23310080.758                    23310090.488
 126667485.581 6  98702003.18743  24104031.664                    24104043.832
 113736832.659 7  88626171.706 7  21643396.031                    21643404.770
 110655829.998 8  86225340.29045  21057109.820                    21057117.238
 11  7 29 18  1 30.0000000  0 11G08G28G16G11G13G03G19G06G10G07G23
 123583567.651 6  96298957.26044  23517171.086                    23517182.543
 126892812.351 6  98877584.85942  24146904.359                    24146916.813
 126572883.251 6  98628242.49243  24086026.180                    24086036.527
 127721725.250 6  99523512.23142  24304642.430                    24304655.930
 105664081.335 8  82335671.28546  20107205.477                    20107213.898
 112877440.500 7  87956482.17445  21479863.211                    21479871.914
 110072029.405 7  85770461.27146  20946003.297                    20946010.070
 122575339.652 6  95513290.55743  23325313.914                    23325323.910
 126702696.214 6  98729439.95743  24110732.938                    24110744.914
 113683163.175 7  88584351.342 7  21633182.578                    21633191.359
 110733470.423 8  86285839.25045  21071884.477                    21071891.887
 11  7 29 18  2  0.0000000  0 11G08G28G16G11G13G03G19G06G10G07G23
 123512325.817 6  96243444.18844  23503614.578                    23503625.578
 126826423.449 6  98825853.26943  24134271.070                    24134283.688
 126663174.096 6  98698598.91243  24103208.602                    24103217.707
 127642672.262 6  99461912.65142  24289597.844                    24289612.793
 105686254.135 8  82352948.75946  20111425.320                    20111433.863
 112941962.813 7  88006759.27445  21492141.422                    21492150.133
 110064109.845 7  85764290.19346  20944496.117                    20944503.121
 122655738.285 6  95575938.82043  23340612.492                    23340623.383
 126738270.318 7  98757159.94443  24117502.047                    24117514.152
 113629578.572 7  88542597.105 7  21622985.703                    21622994.648
 110811555.878 8  86346684.97545  21086743.047                    21086750.609
 11  7 29 18  2 30.0000000  0 11G08G28G16G11G13G03G19G06G10G07G23
 123441036.101 7  96187893.79644  23490048.469                    23490059.719
 126760252.391 6  98774291.51843  24121679.109                    24121691.613
 126753417.153 6  98768918.10343  24120382.000                    24120390.898
 127563554.196 6  99400262.24742  24274542.742                    24274556.754
 105709023.122 8  82370690.79946  20115758.336                    20115766.199
 113006992.693 7  88057431.88445  21504515.586                    21504525.160
 110056808.438 8  85758600.79946  20943106.688                    20943113.535
 122736485.388 6  95638858.57144  23355978.422                    23355989.465
 126774206.324 7  98785161.97243  24124340.656                    24124352.734
 113576080.460 8  88500910.267 7  21612805.594                    21612814.051
 110890084.597 8  86407876.09445  21101687.258                    21101694.871
 11  7 29 18  3  0.0000000  0 11G08G28G16G11G13G03G19G06G10G07G23
 123369699.603 6  96132306.95743  23476473.664                    23476484.008
 126694299.656 6  98722899.84042  24109127.625                    24109140.859
 126843611.436 6  98839199.32343  24137544.586                    24137554.250
 127484373.441 6  99338563.14042  24259475.234                    24259488.695
 105732387.382 8  82388896.68646  20120204.086                    20120212.469
 113072528.019 7  88108498.33945  21516986.773                    21516995.887
 110050125.823 8  85753393.57646  20941835.406                    20941841.902
 122817578.668 6  95702048.11043  23371409.867                    23371420.512
 126810502.429 6  98813444.54743  24131247.516                    24131260.340
 113522670.629 8  88459292.228 7  21602641.859                    21602650.977
 110969054.769 8  86469411.20245  21116714.867                    21116722.352
 11  7 29 18  3 30.0000000  0 11G08G28G16G11G13G03G19G06G10G07G23
 123298316.406 6  96076683.72143  23462889.266                    23462899.648
 126628565.332 6  98671678.35443  24096620.227                    24096631.813
 126933755.273 6  98909441.23743  24154698.305                    24154707.594
 127405132.346 6  99276816.96443  24244395.734                    24244409.723
 105756346.743 8  82407566.28746  20124763.391                    20124771.543
 113138566.257 7  88159956.69245  21529553.578                    21529562.672
 110044062.348 8  85748668.80046  20940681.727                    20940688.383
 122899015.559 6  95765505.41143  23386906.922                    23386917.555
 126847155.927 6  98842005.59043  24138222.711                    24138234.887
 113469349.820 8  88417743.558 7  21592495.250                    21592504.117
 111048463.729 8  86531288.23545  21131825.414                    21131833.086
 11  7 29 18  4  0.0000000  0 11G08G28G16G11G13G03G19G06G10G07G23
 123226886.273 7  96021023.93344  23449296.750                    23449307.520
 126563049.236 6  98620626.93443  24084151.984                    24084164.453
 127023847.597 6  98979643.02343  24171842.516                    24171851.633
 127325833.517 6  99215025.78043  24229306.250                    24229319.578
 105780900.332 8  82426698.92446  20129435.859                    20129444.391
 113205104.603 7  88211804.72845  21542215.211                    21542224.652
 110038617.960 8  85744426.43746  20939645.094                    20939652.254
 122980793.130 6  95829228.15843  23402468.984                    23402478.879
 126884164.052 6  98870842.95843  24145265.117                    24145277.117
 113416118.918 8  88376264.948 7  21582366.234                    21582374.871
 111128308.953 8  86593505.19745  21147019.867                    21147027.074
 11  7 29 18  4 30.0000000  0 11G08G28G16G11G13G03G19G06G10G07G23
 123155409.788 7  95965328.01244  23435694.938                    23435705.930
 126497751.431 6  98569745.60643  24071726.789                    24071738.926
 127113886.990 6  99049803.53543  24188976.164                    24188985.367
 127246479.691 6  99153191.77343  24214205.375                    24214219.039
 105806048.308 8  82446294.72146  20134221.266                    20134229.707
 113272140.861 7  88264040.74645  21554971.914                    21554981.074
 110033793.327 8  85740666.99046  20938727.219                    20938734.281
 123062909.234 6  95893214.72844  23418094.813                    23418105.254
 126921524.838 6  98899955.18643  24152374.391                    24152387.438
 113362979.103 8  88334857.314 7  21572253.672                    21572262.652
 111208588.220 8  86656060.37745  21162296.625                    21162304.582
 11  7 29 18  5  0.0000000  0 11G08G28G16G11G13G03G19G06G10G07G23
 123083888.276 6  95909597.00644  23422084.914                    23422095.977
 126432672.340 6  98519034.73343  24059342.148                    24059354.457
 127203872.613 6  99119922.21243  24206099.773                    24206109.535
 127167073.615 6  99091317.03943  24199094.945                    24199108.586
 105831790.791 8  82466353.75846  20139120.031                    20139128.238
 113339672.735 7  88316662.95445  21567822.594                    21567832.055
 110029589.090 8  85737390.96746  20937927.008                    20937933.922
 123145361.632 6  95957463.31243  23433785.352                    23433796.199
 126959236.024 6  98929340.42143  24159550.336                    24159563.309
 113309931.990 7  88293521.914 7  21562159.008                    21562167.910
 111289300.157 8  86718952.70245  21177655.594                    21177663.223
 11  7 29 18  5 30.0000000  0 11G08G28G16G11G13G03G19G06G10G07G23
 123012321.401 6  95853830.64544  23408466.383                    23408477.453
 126367811.720 6  98468494.08443  24046999.602                    24047012.152
 127293803.230 6  99189997.98443  24223213.406                    24223222.414
 127087617.978 6  99029403.63743  24183975.023                    24183988.406
 105858127.092 8  82486875.51846  20144131.672                    20144140.285
 113407698.054 7  88369669.67545  21580767.484                    21580776.809
 110026005.153 8  85734598.28446  20937244.977                    20937251.926
 123228147.606 6  96021971.83043  23449538.836                    23449549.480
 126997295.324 6  98958996.95243  24166793.063                    24166805.461
 113256978.548 7  88252259.497 7  21552082.477                    21552090.902
 111370441.793 8  86782179.86145  21193096.781                    21193104.398
 11  7 29 18  6  0.0000000  0 11G08G28G16G11G13G03G19G06G10G07G23
 122940710.367 6  95798029.89843  23394838.727                    23394850.926
 126303169.847 6  98418123.87943  24034698.445                    24034710.598
 127383677.809 6  99260030.05643  24240316.008                    24240324.941
 127008115.447 6  98967453.75743  24168845.703                    24168859.066
 105885056.980 8  82507859.80946  20149256.258                    20149264.617
 113476214.207 7  88423058.86545  21593805.773                    21593814.977
 110023042.516 8  85732289.75046  20936681.438                    20936688.168
 123311265.008 6  96086738.61743  23465355.313                    23465365.828
 127035700.039 6  98988922.60943  24174101.367                    24174114.492
 113204120.121 7  88211071.132 7  21542024.016                    21542032.785
 111452011.279 8  86845740.40045  21208618.922                    21208626.492
 11  7 29 18  6 30.0000000  0 11G08G28G16G11G13G03G19G06G10G07G23
 122869055.247 6  95742194.78743  23381203.188                    23381214.516
 126238746.729 6  98367924.18543  24022438.953                    24022451.703
 127473494.734 6  99330017.23743  24257407.039                    24257416.801
 126928568.647 6  98905469.40143  24153709.164                    24153721.992
 105912579.558 8  82529305.94246  20154493.656                    20154501.754
 113545218.248 7  88476828.22545  21606936.852                    21606946.402
 110020700.729 7  85730464.98846  20936235.836                    20936242.496
 123394711.104 6  96151761.52343  23481234.531                    23481245.422
 127074447.920 6  99019115.65743  24181474.961                    24181487.578
 113151357.489 7  88169957.400 7  21531983.563                    21531992.148
 111534006.276 8  86909632.52445  21224221.758                    21224229.664
 11  7 29 18  7  0.0000000  0 11G08G28G16G11G13G03G19G06G10G07G23
 122797356.801 6  95686325.87744  23367560.102                    23367570.715
 126174542.269 6  98317894.77343  24010221.484                    24010234.434
 127563253.291 6  99399958.95743  24274487.977                    24274498.063
 126848980.004 6  98843452.37143  24138564.477                    24138576.914
 105940694.494 8  82551213.65046  20159843.477                    20159851.891
 113614708.270 7  88530976.26245  21620160.359                    21620169.586
 110018980.413 7  85729124.48746  20935908.523                    20935915.438
 123478483.380 6  96217038.58543  23497175.867                    23497186.758
 127113536.341 6  99049574.03643  24188913.656                    24188925.844
 113098692.266 7  88128919.581 7  21521961.469                    21521970.391
 111616424.216 8  86973854.19745  21239905.305                    21239913.063
 11  7 29 18  7 30.0000000  0 11G08G28G16G11G13G03G19G06G10G07G23
 122725615.497 7  95630423.63244  23353907.406                    23353918.922
 126110556.291 6  98268035.67243  23998045.430                    23998058.141
 127652952.129 6  99469854.13243  24291556.773                    24291566.707
 126769352.392 6  98781405.03842  24123410.102                    24123424.164
 105969401.569 8  82573582.76846  20165306.461                    20165314.930
 113684681.435 7  88585500.79044  21633475.563                    21633485.406
 110017881.604 7  85728268.26546  20935699.133                    20935706.465
 123562579.295 6  96282567.84843  23513179.664                    23513189.387
 127152962.965 6  99080296.00443  24196416.227                    24196428.637
 113046125.475 7  88087958.450 7  21511958.320                    21511966.734
 111699262.741 8  87038403.59645  21255669.461                    21255677.422
 11  7 29 18  8  0.0000000  0 11G08G28G16G11G13G03G19G06G10G07G23
 122653832.051 7  95574488.52344  23340247.945                    23340258.508
 126046789.097 6  98218347.03743  23985911.031                    23985923.543
 127742590.43615  99539702.14152  24308613.008                    24308624.871
 126689688.637 6  98719329.48343  24108250.492                    24108263.742
 105998700.008 8  82596412.68646  20170881.539                    20170890.398
 113755135.862 7  88640400.30445  21646882.305                    21646891.922
 110017405.007 8  85727896.90446  20935608.422                    20935615.410
 123646996.740 6  96348347.65044  23529243.188                    23529253.656
 127192725.838 6  99111279.99243  24203983.305                    24203995.691
 112993658.585 7  88047075.176 7  21501973.617                    21501983.070
 111782519.719 8  87103279.05545  21271512.414                    21271520.344
 11  7 29 18  8 30.0000000  0 11G08G28G16G11G13G03G19G06G10G07G23
 122582006.615 7  95518520.69244  23326580.063                    23326591.473
 125983240.394 6  98168828.65143  23973817.875                    23973831.398
 127832166.413 6  99609501.52142  24325660.477                    24325670.820
 126609990.965 6  98657227.54042  24093084.422                    24093097.688
 106028589.295 8  82619703.00446  20176569.820                    20176577.922
 113826068.382 7  88695672.36444  21660380.484                    21660390.270
 110017549.714 8  85728009.66446  20935635.953                    20935643.320
 123731732.647 6  96414375.62443  23545368.555                    23545378.633
 127232821.920 6  99142523.57643  24211612.289                    24211625.773
 112941292.328 8  88006270.304 7  21492009.508                    21492018.203
 111866192.671 8  87168478.67745  21287435.055                    21287442.930
 11  7 29 18  9  0.0000000  0 11G08G28G16G11G13G03G19G06G10G07G23
 122510140.210 7  95462520.94744  23312904.367                    23312915.938
 125919910.579 6  98119480.77943  23961765.742                    23961778.766
 127921679.726 6  99679252.08843  24342694.203                    24342704.145
 126530262.715 6  98595101.75243  24077912.336                    24077926.125
 106059069.071 8  82643453.44746  20182370.195                    20182378.574
 113897477.121 7  88751315.51045  21673969.930                    21673979.188
 110018316.891 7  85728607.47446  20935782.047                    20935789.090
 123816785.254 6  96480650.32144  23561552.648                    23561564.145
 127273249.387 6  99174025.40643  24219306.492                    24219319.359
 112889028.541 7  87965545.269 7  21482063.523                    21482072.469
 111950279.813 8  87234001.02745  21303436.570                    21303443.914
 11  7 29 18  9 30.0000000  0 11G08G28G16G11G13G03G19G06G10G07G23
 122438232.950 7  95406489.36144  23299220.492                    23299231.836
 125856799.234 6  98070303.18843  23949756.922                    23949769.098
 128011128.559 6  99748952.42943  24359716.734                    24359725.848
 126450505.873 6  98532953.70743  24062735.102                    24062748.727
 106090138.070 8  82667663.03146  20188281.930                    20188290.336
 113969358.762 7  88807327.14844  21687648.305                    21687657.629
 110019706.021 8  85729689.91146  20936046.516                    20936053.281
 123902151.101 6  96547169.11943  23577797.969                    23577808.121
 127314005.062 6  99205782.96943  24227060.852                    24227074.227
 112836867.787 7  87924900.553 7  21472137.828                    21472146.609
 112034777.727 8  87299843.46245  21319516.328                    21319523.555
 11  7 29 18 10  0.0000000  0 11G08G28G16G11G13G03G19G06G10G07G23
 122366285.689 7  95350426.58444  23285528.984                    23285540.016
 125793906.644 6  98021296.03843  23937787.953                    23937800.988
 128100512.253 6  99818602.05243  24376725.703                    24376735.641
 126370723.696 6  98470785.90343  24047553.641                    24047566.520
 106121796.169 8  82692331.63646  20194306.289                    20194314.617
 114041710.874 7  88863705.39144  21701416.234                    21701425.750
 110021717.253 8  85731257.11646  20936429.266                    20936436.285
 123987828.367 6  96613930.61643  23594102.109                    23594111.813
 127355086.914 6  99237794.71643  24234878.516                    24234892.508
 112784811.993 8  87884337.598 7  21462231.930                    21462240.926
 112119684.515 8  87366004.49845  21335673.023                    21335680.953
 11  7 29 18 10 30.0000000  0 11G08G28G16G11G13G03G19G06G10G07G23
 122294298.736 7  95294332.90444  23271830.414                    23271841.969
 125731232.574 6  97972459.20043  23925862.055                    23925874.570
 128189829.520 6  99888199.87943  24393722.867                    24393732.164
 126290918.538 6  98408600.18042  24032367.242                    24032380.727
 106154042.566 8  82717458.66646  20200442.680                    20200451.387
 114114530.865 7  88920448.19144  21715273.406                    21715283.152
 110024350.733 8  85733309.18046  20936930.328                    20936937.719
 124073814.318 6  96680932.61044  23610464.906                    23610475.219
 127396492.162 6  99270058.44343  24242758.383                    24242771.879
 112732862.136 7  87843857.193 7  21452346.445                    21452354.965
 112204997.816 8  87432482.29445  21351907.875                    21351916.246
 11  7 29 18 11  0.0000000  0 11G08G28G16G11G13G03G19G06G10G07G23
 122222272.467 7  95238208.54444  23258124.906                    23258135.059
 125668776.812 6  97923792.46342  23913976.828                    23913989.641
 128279079.048 6  99957744.96243  24410705.570                    24410715.555
 126211093.287 6  98346398.85843  24017177.578                    24017189.586
 106186876.570 8  82743043.56646  20206690.656                    20206699.508
 114187816.526 7  88977553.88044  21729219.195                    21729229.023
 110027606.267 7  85735845.96446  20937549.750                    20937556.879
 124160106.263 7  96748173.08444  23626885.570                    23626895.617
 127438218.573 6  99302572.41343  24250698.984                    24250712.004
 112681019.124 8  87803460.053 7  21442481.141                    21442490.289
 112290714.833 8  87499274.68545  21368219.227                    21368227.156
 11  7 29 18 11 30.0000000  0 11G08G28G16G11G13G03G19G06G10G07G23
 122150208.315 7  95182054.69644  23244411.148                    23244422.113
 125606539.739 5  97875296.09042  23902133.945                    23902145.996
 128368260.607 6 100027237.01843  24427676.305                    24427685.543
 126131251.042 6  98284184.21343  24001983.203                    24001995.953
 106220297.767 8  82769086.01746  20213050.633                    20213058.867
 114261566.025 7  89035020.96145  21743253.828                    21743262.945
 110031484.435 7  85738867.92046  20938287.883                    20938294.672
 124246702.267 6  96815650.45543  23643364.258                    23643374.844
 127480264.123 6  99335335.12043  24258700.094                    24258713.012
 112629285.046 7  87763147.791 7  21432636.484                    21432644.957
 112376833.943 8  87566380.38345  21384607.586                    21384614.898
 11  7 29 18 12  0.0000000  0 11G08G28G16G11G13G03G19G06G10G07G23
 122078106.521 7  95125871.50944  23230690.422                    23230701.266
 125544520.841 6  97826969.76943  23890331.992                    23890344.262
 128457372.587 6 100096674.94743  24444633.125                    24444642.391
 126051394.419 6  98221958.39043  23986787.117                    23986799.527
 106254305.297 8  82795585.36346  20219522.016                    20219530.672
 114335775.380 7  89092846.42044  21757374.828                    21757384.789
 110035984.768 7  85742374.66846  20939144.055                    20939151.375
 124333599.251 6  96883362.35443  23659900.242                    23659910.285
 127522625.766 6  99368344.09043  24266760.617                    24266773.867
 112577660.434 7  87722920.834 7  21422812.031                    21422821.074
 112463352.012 8  87633796.97445  21401071.211                    21401078.859
 11  7 29 18 12 30.0000000  0 11G08G28G16G11G13G03G19G06G10G07G23
 122005968.100 7  95069659.79444  23216962.891                    23216973.563
 125482720.835 6  97778814.00743  23878571.336                    23878583.781
 128546414.388 6 100166058.09242  24461577.773                    24461586.637
 125971526.107 6  98159723.48243  23971588.602                    23971600.406
 106288898.923 8  82822541.40646  20226104.828                    20226113.652
 114410442.707 7  89151028.73044  21771583.422                    21771593.359
 110041107.622 7  85746366.49846  20940118.820                    20940125.922
 124420795.240 7  96951307.24744  23676492.875                    23676502.910
 127565301.139 6  99401597.52143  24274881.695                    24274894.852
 112526147.283 7  87682780.739 7  21413009.344                    21413018.531
 112550267.116 7  87701522.93345  21417610.703                    21417618.648
 11  7 29 18 13  0.0000000  0 11G08G28G16G11G13G03G19G06G10G07G23
 121933793.162 7  95013419.60444  23203229.375                    23203239.426
 125421138.925 6  97730828.18343  23866852.961                    23866865.207
 128635384.454 6 100235385.36143  24478508.156                    24478517.109
 125891648.311 6  98097481.14543  23956387.883                    23956400.313
 106324076.879 7  82849952.76246  20232799.055                    20232807.965
 114485564.848 7  89209565.43444  21785878.602                    21785888.500
 110046852.174 7  85750842.77046  20941211.945                    20941219.219
 124508287.122 6  97019482.73743  23693142.422                    23693151.816
 127608287.264 6  99435093.11043  24283061.188                    24283075.121
 112474746.876 7  87642728.472 7  21403228.414                    21403237.059
 112637576.504 7  87769556.13645  21434224.945                    21434232.988
 11  7 29 18 13 30.0000000  0 11G08G28G16G11G13G03G19G06G10G07G23
 121861582.647 7  94957151.68644  23189488.164                    23189498.613
 125359775.271 6  97683012.44043  23855175.250                    23855188.027
 128724282.178 6 100304656.30342  24495425.258                    24495434.172
 125811764.570 6  98035234.17643  23941187.211                    23941199.238
 106359838.680 8  82877819.06446  20239604.914                    20239613.133
 114561139.792 7  89268454.94544  21800260.422                    21800269.891
 110053219.101 8  85755804.01646  20942423.563                    20942430.637
 124596072.886 6  97087887.22943  23709846.930                    23709857.375
 127651582.242 6  99468829.31543  24291301.180                    24291313.656
 112423460.100 7  87602764.766 7  21393468.977                    21393477.500
 112725277.982 7  87837894.84245  21450914.398                    21450922.563
 11  7 29 18 14  0.0000000  0 11G08G28G16G11G13G03G19G06G10G07G23
 121789336.462 7  94900856.02944  23175739.594                    23175749.852
 125298629.304 6  97635366.33643  23843539.609                    23843551.520
 128813105.783 6 100373869.42343  24512327.586                    24512336.219
 125731876.794 6  97972984.08343  23925984.031                    23925996.844
 106396183.301 8  82906139.51246  20246520.836                    20246529.105
 114637163.857 7  89327694.44744  21814726.766                    21814736.820
 110060207.337 8  85761249.39546  20943753.336                    20943760.406
 124684149.446 6  97156518.26043  23726607.953                    23726617.980
 127695182.890 6  99502803.69943  24299598.250                    24299610.938
 112372287.994 7  87562890.426 7  21383731.039                    21383739.965
 112813368.173 8  87906536.46145  21467677.125                    21467685.156
 11  7 29 18 14 30.0000000  0 11G08G28G16G11G13G03G19G06G10G07G23
 121717056.186 7  94844533.74544  23161985.070                    23161995.082
 125237701.673 6  97587890.33343  23831946.133                    23831958.461
 128901855.374 6 100443024.93142  24529216.023                    24529225.762
 125651988.711 6  97910733.76043  23910781.602                    23910794.230
 106433110.773 8  82934914.12546  20253548.055                    20253556.195
 114713635.946 7  89387283.04744  21829279.461                    21829289.234
 110067817.530 8  85767179.41646  20945201.469                    20945208.531
 124772514.706 6  97225374.29743  23743422.938                    23743433.547
 127739087.224 6  99537014.79243  24307953.156                    24307965.855
 112321232.628 7  87523107.031 7  21374015.594                    21374024.332
 112901845.354 7  87975479.61645  21484514.414                    21484522.500
 11  7 29 18 15  0.0000000  0 11G08G28G16G11G13G03G19G06G10G07G23
 121644742.049 7  94788185.12644  23148223.250                    23148235.156
 125176991.546 6  97540583.84343  23820392.844                    23820405.277
 128990529.507 6 100512121.63642  24546090.555                    24546100.559
 125572102.588 6  97848484.94543  23895579.688                    23895592.906
 106470619.281 8  82964141.50746  20260685.570                    20260694.336
 114790552.466 7  89447217.97244  21843916.102                    21843926.016
 110076049.029 8  85773593.56746  20946767.836                    20946775.086
 124861165.893 6  97294453.09443  23760292.469                    23760302.652
 127783292.170 6  99571460.05343  24316365.922                    24316377.141
 112270294.745 7  87483415.203 7  21364322.141                    21364331.188
 112990706.846 7  88044722.23045  21501424.406                    21501432.633
 11  7 29 18 15 30.0000000  0 11G08G28G16G11G13G03G19G06G10G07G23
 121572395.203 7  94731811.02944  23134456.438                    23134467.293
 125116499.109 6  97493446.92143  23808882.234                    23808893.547
 129079126.951 6 100581158.58542  24562950.266                    24562960.180
 125492221.124 6  97786239.79143  23880378.945                    23880392.184
 106508708.281 8  82993821.20746  20267933.383                    20267942.102
 114867910.756 7  89507497.13444  21858637.367                    21858646.707
 110084901.756 8  85780491.80246  20948452.922                    20948459.816
 124950100.495 6  97363752.75743  23777216.617                    23777225.699
 127827795.429 6  99606137.78343  24324833.586                    24324846.539
 112219476.116 7  87443816.281 7  21354651.969                    21354660.996
 113079950.250 7  88114262.45645  21518406.414                    21518414.063
 11  7 29 18 16  0.0000000  0 11G08G28G16G11G13G03G19G06G10G07G23
 121500016.482 7  94675412.02444  23120683.516                    23120694.207
 125056224.604 6  97446479.80443  23797412.039                    23797423.773
 129167647.396 5 100650135.56442  24579793.813                    24579804.559
 125412347.815 6  97724000.98343  23865179.586                    23865192.660
 106547377.330 8  83023952.90246  20275291.906                    20275300.707
 114945708.543 7  89568118.78844  21873441.563                    21873451.016
 110094375.549 7  85787873.98746  20950255.133                    20950262.523
 125039316.320 6  97433271.55143  23794193.102                    23794203.324
 127872594.661 6  99641046.22342  24333358.258                    24333371.750
 112168778.255 7  87404311.476 7  21345004.273                    21345013.504
 113169573.282 8  88184098.48645  21535461.336                    21535469.172
 11  7 29 18 16 30.0000000  0 11G08G28G16G11G13G03G19G06G10G07G23
 121427605.790 7  94618988.16544  23106904.078                    23106915.094
 124996167.191 6  97399681.92443  23785983.305                    23785995.348
 129256089.424 5 100719051.40142  24596625.016                    24596633.633
 125332484.885 6  97661770.24843  23849982.336                    23849994.844
 106586624.949 8  83054535.42446  20282760.656                    20282769.520
 115023942.813 7  89629080.52944  21888328.820                    21888338.695
 110104469.744 8  85795739.58746  20952176.375                    20952183.527
 125128810.293 6  97503007.07743  23811223.898                    23811233.250
 127917686.704 6  99676182.75943  24341939.117                    24341952.359
 112118202.109 7  87364901.503 7  21335380.273                    21335388.746
 113259572.840 7  88254227.89645  21552587.852                    21552595.953
 11  7 29 18 17  0.0000000  0 11G08G28G16G11G13G03G19G06G10G07G23
 121355164.460 7  94562540.42144  23093119.719                    23093129.766
 124936327.032 6  97353053.29843  23774595.867                    23774608.078
 129344451.777 6 100787905.13242  24613439.914                    24613448.539
 125252635.267 6  97599549.87243  23834787.664                    23834800.359
 106626449.775 8  83085567.71546  20290338.867                    20290347.313
 115102610.965 7  89690380.36744  21903299.125                    21903308.582
 110115184.105 8  85804088.44446  20954215.406                    20954222.008
 125218580.032 6  97572957.50543  23828306.633                    23828316.922
 127963069.156 6  99711545.62543  24350575.969                    24350588.180
 112067749.139 7  87325587.513 7  21325779.094                    21325788.027
 113349946.486 7  88324648.80345  21569785.453                    21569793.621
 11  7 29 18 17 30.0000000  0 11G08G28G16G11G13G03G19G06G10G07G23
 121282693.202 7  94506069.34444  23079328.367                    23079339.043
 124876704.004 6  97306593.93443  23763249.547                    23763261.297
 129432734.251 5 100856696.59842  24630239.180                    24630248.680
 125172801.784 6  97537342.08943  23819595.938                    23819607.941
 106666851.282 8  83117049.37246  20298027.234                    20298036.145
 115181710.333 7  89752016.20044  21918351.203                    21918361.195
 110126518.495 7  85812920.44946  20956372.164                    20956378.969
 125308623.383 6  97643121.09444  23845441.234                    23845451.984
 128008739.972 6  99747133.12543  24359266.766                    24359279.945
 112017421.034 7  87286370.824 7  21316202.188                    21316211.199
 113440691.812 7  88395359.33845  21587053.836                    21587062.023
 11  7 29 18 18  0.0000000  0 11G08G28G16G11G13G03G19G06G10G07G23
 121210192.257 7  94449575.12244  23065532.219                    23065542.609
 124817297.749 6  97260303.39643  23751945.422                    23751956.801
 129520935.280 6 100925424.65043  24647023.883                    24647032.668
 125092986.928 6  97475148.83043  23804407.102                    23804419.801
 106707828.399 8  83148979.55046  20305825.031                    20305833.309
 115261237.487 7  89813985.38344  21933484.172                    21933494.707
 110138472.277 7  85822235.08546  20958646.781                    20958653.879
 125398937.157 6  97713495.43743  23862627.734                    23862638.285
 128054695.792 6  99782942.71743  24368011.008                    24368024.758
 111967218.399 7  87247251.889 7  21306648.984                    21306657.660
 113531805.694 7  88466357.06745  21604392.352                    21604400.254
 11  7 29 18 18 30.0000000  0 11G08G28G16G11G13G03G19G06G10G07G23
 121137662.755 7  94393058.66444  23051729.742                    23051740.961
 124758107.859 6  97214181.44343  23740681.813                    23740693.348
 129609054.429 6 100994088.85743  24663792.008                    24663801.242
 125013193.997 6  97412972.64243  23789223.500                    23789235.848
 106749379.737 8  83181357.17346  20313732.211                    20313740.699
 115341190.543 7  89876286.44544  21948699.320                    21948709.023
 110151045.073 7  85832032.07146  20961038.961                    20961046.566
 125489518.915 6  97784078.59343  23879864.281                    23879875.117
 128100934.554 6  99818972.80743  24376810.766                    24376824.504
 111917143.264 7  87208232.324 7  21297119.852                    21297128.559
 113623286.102 7  88537640.40045  21621799.766                    21621807.977
 11  7 29 18 19  0.0000000  0 11G08G28G16G11G13G03G19G06G10G07G23
 121065105.323 7  94336520.47244  23037922.672                    23037933.750
 124699134.314 6  97168228.16043  23729459.141                    23729471.324
 129697090.479 6 101062688.33543  24680545.789                    24680554.512
 124933425.320 6  97350815.35143  23774043.672                    23774055.840
 106791504.320 8  83214181.47546  20321748.148                    20321757.246
 115421566.256 7  89938916.84944  21963994.305                    21964003.902
 110164236.270 7  85842310.92646  20963549.648                    20963556.645
 125580366.245 6  97854868.69043  23897152.906                    23897162.641
 128147452.848 6  99855220.72643  24385662.578                    24385676.207
 111867197.034 7  87169313.178 7  21287615.180                    21287624.508
 113715130.171 7  88609207.08645  21639277.852                    21639286.422
 11  7 29 18 19 30.0000000  0 11G08G28G16G11G13G03G19G06G10G07G23
 120992521.109 7  94279961.37644  23024109.875                    23024121.168
 124640377.496 6  97122443.73343  23718278.609                    23718290.293
 129785042.896 6 101131222.65143  24697281.641                    24697291.457
 124853684.415 6  97288679.70843  23758869.148                    23758881.426
 106834201.299 8  83247451.81146  20329873.297                    20329881.520
 115502362.122 7  90001874.63944  21979369.555                    21979379.063
 110178045.659 7  85853071.49446  20966177.227                    20966183.859
 125671476.708 7  97925863.80543  23914491.109                    23914500.828
 128194248.561 6  99891684.82243  24394568.117                    24394580.992
 111817381.415 7  87130495.824 7  21278135.523                    21278144.809
 113807335.802 7  88681055.51545  21656823.820                    21656832.707
 11  7 29 18 20  0.0000000  0 11G08G28G16G11G13G03G19G06G10G07G23
 120919910.977 7  94223382.10444  23010292.586                    23010303.125
 124581837.056 6  97076827.92743  23707138.352                    23707149.891
 129872910.882 6 101199691.14343  24714001.484                    24714012.379
 124773974.172 6  97226567.89943  23743700.734                    23743712.656
 106877469.959 8  83281167.60546  20338106.977                    20338115.551
 115583575.713 7  90065157.92744  21994823.500                    21994833.957
 110192473.255 7  85864313.78046  20968922.523                    20968929.590
 125762848.253 6  97997062.37143  23931877.406                    23931887.793
 128241319.557 6  99928363.43243  24403524.328                    24403539.152
 111767697.663 7  87091781.179 7  21268681.734                    21268689.969
 113899900.433 7  88753183.68645  21674438.367                    21674447.215
 11  7 29 18 20 30.0000000  0 11G08G28G16G11G13G03G19G06G10G07G23
 120847274.920 7  94166782.61144  22996470.766                    22996480.902
 124523512.077 6  97031380.01643  23696039.461                    23696051.434
 129960693.041 6 101268092.78343  24730705.953                    24730716.445
 124694296.757 7  97164481.71943  23728538.766                    23728550.652
 106921308.943 8  83315327.80446  20346449.281                    20346457.922
 115665203.506 7  90128763.95944  22010356.547                    22010366.355
 110207517.830 7  85876036.83146  20971785.453                    20971792.551
 125854477.321 6  98068461.59443  23949314.383                    23949324.309
 128288662.672 6  99965254.06343  24412534.461                    24412548.406
 111718146.748 8  87053170.118 7  21259251.867                    21259260.984
 113992820.674 7  88825588.95445  21692120.891                    21692129.902
 11  7 29 18 21  0.0000000  0 11G08G28G16G11G13G03G19G06G10G07G23
 120774614.688 7  94110164.28244  22982643.648                    22982653.906
 124465402.803 6  96986100.17643  23684981.820                    23684993.461
 130048388.780 6 101336427.09743  24747395.328                    24747404.465
 124614655.468 6  97102423.68043  23713383.336                    23713395.340
 106965716.082 8  83349930.73046  20354899.891                    20354908.672
 115747243.510 7  90192691.22344  22025968.875                    22025978.109
 110223179.200 8  85888240.49446  20974766.188                    20974772.758
 125946361.997 6  98140059.97943  23966799.484                    23966809.398
 128336275.394 6 100002354.81243  24421595.039                    24421608.684
 111668730.527 8  87014663.994 7  21249848.750                    21249857.512
 114086094.243 7  88898269.54645  21709870.531                    21709878.738
 11  7 29 18 21 30.0000000  0 11G08G28G16G11G13G03G19G06G10G07G23
 120701930.898 7  94053527.58644  22968812.922                    22968823.180
 124407509.012 6  96940988.23543  23673964.734                    23673976.457
 130135997.490 6 101404693.60443  24764066.070                    24764075.254
 124535053.210 7  97040396.05443  23698235.234                    23698247.422
 107010690.648 8  83384975.80146  20363457.891                    20363466.738
 115829692.733 7  90256937.33044  22041658.789                    22041667.988
 110239456.332 7  85900923.97146  20977863.250                    20977869.914
 126038499.312 6  98211855.29143  23984331.617                    23984342.449
 128384155.017 6 100039663.51743  24430707.438                    24430720.027
 111619450.201 8  86976263.746 7  21240470.492                    21240479.969
 114179718.516 7  88971223.40645  21727686.664                    21727695.172
 11  7 29 18 22  0.0000000  0 11G08G28G16G11G13G03G19G06G10G07G23
 120629223.644 7  93996872.65444  22954976.484                    22954987.133
 124349830.084 6  96896043.72143  23662988.281                    23662999.883
 130223518.112 5 101472891.45442  24780719.242                    24780730.090
 124455492.643 7  96978400.91443  23683095.422                    23683106.563
 107056231.665 8  83420462.26446  20372124.422                    20372132.707
 115912548.040 7  90321499.83944  22057425.398                    22057434.723
 110256348.778 8  85914086.90146  20981077.945                    20981084.930
 126130887.081 6  98283845.71043  24001912.930                    24001923.020
 128432298.700 5 100077177.95243  24439867.602                    24439881.855
 111570307.511 8  86937970.759 7  21231118.734                    21231128.258
 114273691.033 7  89044448.62745  21745568.992                    21745577.820
 11  7 29 18 22 30.0000000  0 11G08G28G16G11G13G03G19G06G10G07G23
 120556494.855 7  93940200.91744  22941137.531                    22941148.121
 124292366.425 6  96851266.93043  23652053.297                    23652065.359
 130310950.044 5 101541020.23042  24797356.602                    24797368.285
 124375977.025 6  96916440.83243  23667963.602                    23667975.441
 107102337.992 8  83456389.23546  20380897.703                    20380906.797
 115995806.865 7  90386376.83344  22073269.063                    22073278.645
 110273856.085 7  85927728.96046  20984409.672                    20984416.438
 126223522.741 6  98356029.32343  24019541.016                    24019551.387
 128480704.041 6 100114896.35242  24449079.055                    24449092.555
 111521304.038 8  86899786.240 7  21221794.484                    21221802.742
 114368008.993 7  89117943.02245  21763517.219                    21763525.469
 11  7 29 18 23  0.0000000  0 11G08G28G16G11G13G03G19G06G10G07G23
 120483745.039 7  93883512.79344  22927293.719                    22927303.559
 124235117.372 7  96806657.33643  23641159.102                    23641170.840
 130398292.457 5 101609079.11042  24813978.805                    24813989.359
 124296509.165 6  96854517.96743  23652841.641                    23652853.887
 107149008.454 8  83492755.78546  20389778.930                    20389788.027
 116079466.823 7  90451566.38944  22089188.727                    22089198.621
 110291977.811 8  85941849.79946  20987858.000                    20987864.883
 126316403.924 6  98428404.25743  24037215.281                    24037226.211
 128529368.234 6 100152816.35742  24458339.836                    24458353.379
 111472441.258 8  86861711.338 7  21212495.969                    21212504.668
 114462669.821 7  89191704.58545  21781530.250                    21781538.918
 11  7 29 18 23 30.0000000  0 11G08G28G16G11G13G03G19G06G10G07G23
 120410975.454 7  93826809.24344  22913445.461                    22913455.750
 124178082.847 6  96762214.91143  23630306.125                    23630317.289
 130485544.745 5 101677067.90642  24830583.109                    24830592.664
 124217092.303 6  96792634.84443  23637728.563                    23637740.992
 107196242.202 8  83529561.25546  20398767.539                    20398776.430
 116163525.290 7  90517066.44744  22105185.172                    22105194.691
 110310713.056 7  85956448.68546  20991422.914                    20991429.770
 126409528.015 6  98500968.40843  24054936.492                    24054947.500
 128578288.748 6 100190936.14642  24467651.156                    24467662.746
 111423720.597 8  86823747.198 7  21203224.805                    21203233.418
 114557671.077 7  89265731.39845  21799609.070                    21799616.941
 11  7 29 18 24  0.0000000  0 11G08G28G16G11G13G03G19G06G10G07G23
 120338186.100 7  93770090.30244  22899594.156                    22899604.828
 124121261.945 7  96717938.93943  23619493.563                    23619504.695
 130572705.862 5 101744985.48842  24847169.133                    24847178.820
 124137728.323 6  96730792.94443  23622626.547                    23622638.199
 107244036.039 8  83566803.15646  20407862.367                    20407871.426
 116247978.508 7  90582874.10044  22121255.234                    22121265.590
 110330060.514 7  85971524.63146  20995104.922                    20995111.605
 126502891.549 6  98573719.16443  24072703.477                    24072713.621
 128627462.054 5 100229252.93042  24477006.758                    24477019.988
 111375142.999 8  86785894.536 7  21193980.867                    21193989.645
 114653009.111 7  89340020.66745  21817751.352                    21817759.547
 11  7 29 18 24 30.0000000  0 11G08G28G16G11G13G03G19G06G10G07G23
 120265378.346 7  93713357.01344  22885739.500                    22885749.938
 124064655.077 7  96673829.76243  23608721.242                    23608733.203
 130659774.666 6 101812831.26742  24863737.664                    24863747.813
 124058420.875 6  96668995.06043  23607534.422                    23607546.918
 107292389.876 8  83604481.42446  20417063.898                    20417072.855
 116332824.400 7  90648987.73644  22137401.328                    22137411.262
 110350020.090 7  85987077.55146  20998903.273                    20998910.074
 126596492.913 6  98646655.27143  24090515.305                    24090525.703
 128676886.25315 100267765.19752  24486410.102                    24486425.547
 111326710.653 8  86748155.057 7  21184764.531                    21184773.293
 114748682.128 7  89414570.96045  21835956.641                    21835965.563
 11  7 29 18 25  0.0000000  0 10G08G28G11G13G03G19G06G10G07G23
 120192553.384 7  93656610.34044  22871880.758                    22871891.313
 124008261.688 6  96629886.91643  23597989.852                    23598001.594
 123979172.753 6  96607243.41543  23592453.891                    23592465.887
 107341302.436 8  83642595.06246  20426371.852                    20426380.406
 116418059.753 7  90715404.85044  22153621.039                    22153631.285
 110370591.056 7  86003106.87046  21002817.563                    21002824.398
 126690329.468 6  98719774.63543  24108371.992                    24108381.926
 128726558.54415 100306470.71752  24495863.656                    24495878.250
 111278424.818 8  86710529.737 7  21175575.758                    21175584.465
 114844687.151 7  89489379.95345  21854226.461                    21854234.836
 11  7 29 18 25 30.0000000  0 10G08G28G11G13G03G19G06G10G07G23
 120119711.949 7  93599850.80344  22858019.461                    22858030.336
 123952081.475 6  96586110.20043  23587298.453                    23587310.309
 123899986.963 6  96545540.39243  23577385.156                    23577397.066
 107390772.481 8  83681143.10846  20435785.539                    20435794.250
 116503682.163 7  90782123.55144  22169914.820                    22169924.645
 110391772.770 8  86019612.08146  21006848.281                    21006855.133
 126784398.784 6  98793075.34643  24126272.852                    24126282.750
 128776476.418 6 100345367.68942  24505363.992                    24505376.660
 111230287.340 8  86673020.035 7  21166415.297                    21166424.488
 114941021.616 7  89564445.66245  21872558.125                    21872566.930
 11  7 29 18 26  0.0000000  0 10G08G28G11G13G03G19G06G10G07G23
 120046854.404 7  93543078.74544  22844155.367                    22844165.477
 123896114.133 6  96542499.33443  23576648.617                    23576660.324
 123820866.166 6  96483887.97843  23562328.633                    23562341.406
 107440797.790 8  83720123.82146  20445305.000                    20445314.148
 116589688.417 7  90849141.36744  22186281.891                    22186290.574
 110413563.708 8  86036592.05146  21010994.992                    21011001.867
 126878697.665 6  98866554.93043  24144215.906                    24144227.430
 128826636.568 5 100384453.49942  24514906.602                    24514922.266
 111182299.423 8  86635626.860 7  21157283.688                    21157292.574
 115037682.432 7  89639765.65245  21890952.641                    21890961.168
 11  7 29 18 26 30.0000000  0 10G08G28G11G13G03G19G06G10G07G23
 119973982.527 7  93486295.51244  22830288.234                    22830299.254
 123840359.287 6  96499054.04443  23566038.836                    23566050.211
 123741813.543 6  96422288.67843  23547284.539                    23547297.711
 107491377.771 8  83759536.74046  20454930.109                    20454939.117
 116676075.767 7  90916456.14944  22202720.039                    22202730.051
 110435963.230 7  86054046.21046  21015257.766                    21015264.070
 126973224.021 6  98940211.79443  24162204.594                    24162214.762
 128877037.071 6 100423726.46642  24524499.500                    24524513.238
 111134462.579 8  86598351.401 7  21148181.102                    21148189.457
 115134667.172 7  89715338.05145  21909408.148                    21909416.461
 11  7 29 18 27  0.0000000  0 10G08G28G11G13G03G19G06G10G07G23
 119901096.490 7  93429501.24644  22816418.508                    22816428.996
 123784816.317 7  96455773.86343  23555469.688                    23555480.988
 123662832.055 6  96360744.81343  23532255.602                    23532267.742
 107542510.194 8  83799380.14346  20464659.883                    20464668.836
 116762841.243 7  90984065.56444  22219230.992                    22219241.270
 110458970.589 7  86071974.01946  21019635.703                    21019642.199
 127067975.298 6  99014043.92243  24180234.922                    24180245.660
 128927674.894 6 100463184.45442  24534134.844                    24534149.422
 111086778.422 8  86561194.923 7  21139106.680                    21139115.207
 115231973.100 7  89791160.72945  21927924.773                    21927933.387
 11  7 29 18 27 30.0000000  0 10G08G28G11G13G03G19G06G10G07G23
 119828197.384 7  93372696.80944  22802546.148                    22802556.535
 123729484.853 6  96412658.49143  23544939.938                    23544951.723
 123583924.006 6  96299258.16643  23517239.891                    23517251.793
 107594193.303 8  83839652.64846  20474495.180                    20474504.258
 116849981.949 7  91051967.34744  22235813.609                    22235823.527
 110482584.505 7  86090374.47546  21024129.031                    21024135.918
 127162948.470 6  99088048.93743  24198308.227                    24198318.008
 128978546.702 5 100502824.73842  24543815.344                    24543829.863
 111039248.021 8  86524158.282 7  21130061.797                    21130070.984
 115329597.106 7  89867231.25345  21946502.273                    21946510.645
 11  7 29 18 28  0.0000000  0 10G08G28G11G13G03G19G06G10G07G23
 119755286.484 7  93315883.16244  22788671.539                    22788682.605
 123674365.164 7  96369708.15243  23534450.633                    23534462.539
 123505092.848 6  96237831.39443  23502238.398                    23502250.137
 107646426.383 7  83880353.69646  20484435.047                    20484443.863
 116937495.594 7  91120159.75844  22252466.961                    22252476.840
 110506804.375 7  86109247.10046  21028737.883                    21028745.227
 127258141.399 6  99162225.17143  24216423.078                    24216433.188
 129029650.140 6 100542645.56742  24553539.867                    24553554.957
 110991873.394 8  86487242.992 7  21121046.664                    21121055.309
 115427537.073 7  89943547.98644  21965139.125                    21965148.020
 11  7 29 18 28 30.0000000  0 10G08G28G11G13G03G19G06G10G07G23
 119682364.827 7  93259061.15044  22774795.078                    22774805.340
 123619456.648 7  96326922.35443  23524002.313                    23524013.539
 123426341.695 6  96176466.98543  23487253.328                    23487264.496
 107699207.752 8  83921481.98346  20494478.742                    20494487.680
 117025378.912 7  91188640.22044  22269190.742                    22269200.242
 110531629.390 7  86128591.26146  21033462.219                    21033469.215
 127353551.388 6  99236570.56443  24234579.211                    24234589.387
 129080982.480 6 100582644.70342  24563309.625                    24563323.371
 110944656.044 8  86450450.263 7  21112061.508                    21112070.703
 115525789.769 7  90020108.41145  21983836.906                    21983846.133
 11  7 29 18 29  0.0000000  0 10G08G28G11G13G03G19G06G10G07G23
 119609433.158 7  93202231.31044  22760916.906                    22760927.023
 123564758.927 7  96284300.79743  23513594.055                    23513604.871
 123347673.181 6  96115166.96543  23472282.711                    23472294.895
 107752535.696 8  83963036.17746  20504627.094                    20504635.715
 117113628.894 7  91257406.38344  22285983.930                    22285993.879
 110557058.351 7  86148406.02446  21038301.086                    21038307.922
 127449176.086 6  99311083.25643  24252775.359                    24252785.902
 129132540.698 6 100622819.89242  24573121.172                    24573133.707
 110897597.689 8  86413781.414 7  21103106.781                    21103115.547
 115624352.207 7  90096910.18344  22002592.313                    22002601.016
 11  7 29 18 29 30.0000000  0 10G08G28G11G13G03G19G06G10G07G23
 119536492.544 7  93145394.49444  22747036.617                    22747047.047
 123510271.395 7  96241843.02243  23503225.141                    23503236.191
 123269090.125 6  96053933.53443  23457328.461                    23457340.484
 107806408.417 8  84005014.86846  20514878.680                    20514887.641
 117202242.458 7  91326455.85344  22302846.180                    22302856.230
 110583089.996 7  86168690.41546  21043254.781                    21043261.789
 127545012.680 6  99385761.08643  24271012.641                    24271022.438
 129184322.344 5 100663169.17542  24582974.258                    24582988.359
 110850699.492 8  86377237.370 7  21094182.086                    21094191.000
 115723221.884 7  90173951.35144  22021407.109                    22021416.105
 11  7 29 18 30  0.0000000  0 10G08G28G11G13G03G19G06G10G07G23
 119463544.316 7  93088551.78544  22733154.703                    22733165.176
 123455994.156 6  96199549.12243  23492896.078                    23492907.340
 123190596.280 6  95992769.65443  23442391.430                    23442403.969
 107860824.886 8  84047417.26846  20525233.719                    20525242.656
 117291217.678 7  91395787.14944  22319778.031                    22319787.195
 110609724.036 8  86189444.20746  21048322.609                    21048330.211
 127641059.206 6  99460602.53243  24289289.672                    24289299.316
 129236324.781 5 100703690.53542  24592869.836                    24592883.789
 110803963.729 8  86340819.891 7  21085288.594                    21085297.441
 115822396.572 7  90251230.18845  22040278.945                    22040288.723
 11  7 29 18 30 30.0000000  0 10G08G28G11G13G03G19G06G10G07G23
 119390588.755 7  93031703.32344  22719272.477                    22719281.770
 123401926.071 7  96157418.22543  23482607.219                    23482619.313
 123112193.645 6  95931676.80043  23427471.563                    23427483.527
 107915782.857 8  84090241.61746  20535692.008                    20535701.133
 117380550.658 7  91465397.24644  22336777.141                    22336786.605
 110636958.474 7  86210665.83946  21053505.227                    21053512.441
 127737312.264 6  99535604.88843  24307606.180                    24307616.184
 129288544.73615 100744381.28352  24602808.359                    24602821.082
 110757391.260 8  86304529.655 7  21076426.422                    21076435.535
 115921872.616 7  90328743.86545  22059208.859                    22059218.152
 11  7 29 18 31  0.0000000  0 10G08G28G11G13G03G19G06G10G07G23
 119317628.057 7  92974850.88044  22705387.945                    22705398.277
 123348067.731 7  96115450.74243  23472358.266                    23472369.969
 123033886.118 6  95870658.06443  23412569.852                    23412581.352
 107971281.579 8  84133487.31246  20546252.891                    20546261.832
 117470239.473 7  91535284.60044  22353845.336                    22353854.020
 110664792.959 7  86232355.03246  21058802.469                    21058809.328
 127833770.046 6  99610766.78843  24325960.609                    24325971.523
 129340980.23514                  24612785.836
 110710984.362 8  86268368.440 7  21067595.164                    21067604.355
 116021648.009 7  90406490.79344  22078195.367                    22078204.605
 11  7 29 18 31 30.0000000  0 10G08G28G11G13G03G19G06G10G07G23
 119244662.908 7  92917994.95144  22691503.055                    22691512.918
 123294418.531 6  96073646.25144  23462149.453                    23462160.656
 122955676.351 6  95809715.51043  23397686.969                    23397698.656
 108027319.174 7  84177152.92246  20556916.305                    20556925.840
 117560280.995 6  91605446.78944  22370978.820                    22370988.355
 110693226.429 7  86254510.98046  21064213.008                    21064220.168
 127930430.266 6  99686086.39343  24344354.875                    24344365.090
 129393628.45514                  24622804.023
 110664744.619 8  86232337.461 7  21058795.867                    21058805.191
 116121719.935 7  90484468.76945  22097238.797                    22097248.133
 11  7 29 18 32  0.0000000  0 10G08G28G11G13G03G19G06G10G07G23
 119171694.183 7  92861136.23744  22677617.375                    22677627.992
 123240978.151 6  96032004.49743  23451980.297                    23451991.156
 122877567.539 6  95748851.62843  23382823.055                    23382835.367
 108083893.660 8  84221236.87546  20567682.484                    20567691.395
 117650672.363 7  91675881.57544  22388180.586                    22388190.137
 110722257.907 7  86277132.89846  21069737.453                    21069744.664
 128027290.142 6  99761561.54343  24362787.820                    24362797.605
 129446486.92514                  24632863.555
 110618673.680 8  86196438.046 7  21050029.281                    21050037.867
 116222085.516 7  90562675.57845  22116338.289                    22116347.031
 11  7 29 18 32 30.0000000  0 10G08G28G11G13G03G19G06G10G07G23
 119098722.314 7  92804275.08144  22663731.039                    22663741.941
 123187745.136 6  95990524.31044  23441849.430                    23441861.516
 122799561.926 6  95688068.13643  23367980.258                    23367991.027
 108141002.840 7  84265737.48746  20578549.867                    20578558.941
 117741410.018 7  91746586.17144  22405446.609                    22405456.766
 110751885.257 7  86300219.12846  21075375.406                    21075383.078
 128124346.239 6  99837189.59442  24381256.422                    24381266.387
 129499551.34015                  24642963.000
 110572772.483 8  86160670.880 7  21041294.469                    21041303.535
 116322741.373 7  90641108.58145  22135492.023                    22135501.129
 11  7 29 18 33  0.0000000  0 10G08G28G11G13G03G19G06G10G07G23
 119025748.407 7  92747412.31944  22649845.070                    22649855.539
 123134719.421 6  95949205.63344  23431758.984                    23431770.836
 122721662.521 6  95627367.39243  23353155.844                    23353166.613
 108198645.129 8  84310653.50346  20589519.031                    20589528.441
 117832491.517 7  91817558.75144  22422778.883                    22422788.363
 110782107.394 7  86323768.83446  21081126.641                    21081133.727
 128221596.287 6  99912968.82443  24399762.688                    24399772.910
 129552819.16015                  24653097.922
 110527042.552 8  86125037.202 7  21032592.555                    21032601.422
 116423684.571 7  90719765.46544  22154701.234                    22154710.676
 11  7 29 18 33 30.0000000  0 10G08G28G11G13G03G19G06G10G07G23
 118952774.750 7  92690549.76644  22635958.719                    22635968.688
 123081901.178 6  95908048.66344  23421708.406                    23421719.469
 122643873.151 6  95566752.39043  23338353.023                    23338363.777
 108256819.246 7  84355983.92446  20600589.516                    20600598.293
 117923914.329 6  91888797.25544  22440176.188                    22440186.035
 110812923.808 7  86347781.61246  21086990.578                    21086998.000
 128319038.643 6  99988897.89243  24418305.844                    24418315.887
 129606289.07814                  24663272.695
 110481486.447 8  86089538.934 7  21023923.148                    21023932.508
 116524913.319 7  90798644.88045  22173964.727                    22173973.734
 11  7 29 18 34  0.0000000  0 10G08G28G11G13G03G19G06G10G07G23
 118879801.881 7  92633687.84844  22622071.977                    22622082.613
 123029289.469 6  95867052.63143  23411696.734                    23411708.375
 122566196.309 7  95506225.07144  23323572.375                    23323582.672
 108315522.993 7  84401727.05146  20611759.938                    20611769.344
 118015675.096 6  91960299.08644  22457637.883                    22457647.621
 110844332.626 7  86372256.00646  21092967.664                    21092974.996
 128416670.091 6 100064974.30543  24436883.445                    24436894.008
 129659957.19714                  24673485.891
 110436105.095 7  86054176.869 7  21015287.867                    21015296.555
 116626423.879 7  90877743.87644  22193281.367                    22193290.539
 11  7 29 18 34 30.0000000  0 10G08G28G11G13G03G19G06G10G07G23
 118806831.326 7  92576827.69244  22608186.664                    22608196.762
 122976884.044 7  95826217.29944  23401724.461                    23401735.602
 122488635.312 7  95445788.03144  23308812.461                    23308823.738
 108374754.936 7  84447881.76546  20623032.203                    20623040.730
 118107771.489 6  92032062.47544  22475162.477                    22475173.367
 110876333.168 8  86397191.48446  21099057.156                    21099063.863
 128514488.410 6 100141196.34743  24455496.977                    24455507.910
 129713820.95614                  24683736.141
 110390900.702 7  86018952.691 7  21006685.219                    21006694.324
 116728213.898 7  90957060.62544  22212651.484                    22212661.164
 11  7 29 18 35  0.0000000  0 10G08G28G11G13G03G19G06G10G07G23
 118733863.191 7  92519969.45344  22594300.813                    22594311.531
 122924683.775 7  95785541.84544  23391790.930                    23391801.453
 122411192.367 7  95385442.98744  23294075.945                    23294086.684
 108434512.631 7  84494446.14946  20634403.438                    20634412.594
 118200199.864 6  92104084.49244  22492751.977                    22492762.566
 110908923.385 7  86422586.44946  21105258.906                    21105265.941
 128612490.550 6 100217561.58443  24474147.945                    24474157.164
 129767877.33015                  24694021.781
 110345874.203 7  85983867.118 7  20998117.234                    20998125.754
 116830280.126 7  91036592.62344  22232074.047                    22232082.965
 11  7 29 18 35 30.0000000  0 10G08G28G11G13G03G19G06G10G07G23
 118660898.475 7  92463113.87944  22580415.852                    22580426.340
 122872688.172 7  95745025.85444  23381896.789                    23381907.215
 122333870.452 7  95325192.28044  23279361.672                    23279373.148
 108494793.869 7  84541418.48846  20645874.547                    20645883.730
 118292956.816 6  92176362.54444  22510403.078                    22510413.348
 110942101.455 7  86448439.47346  21111572.469                    21111579.813
 128710673.618 6 100294067.83243  24492831.641                    24492841.949
 129822123.08915                  24704345.375
 110301026.829 7  85948921.130 7  20989582.953                    20989591.910
 116932619.267 7  91116337.27044  22251549.023                    22251558.629
 11  7 29 18 36  0.0000000  0  9G08G28G11G13G03G19G06G07G23
 118587939.578 7  92406262.80644  22566532.797                    22566542.891
 122820897.979 7  95704669.94944  23372040.820                    23372051.641
 122256673.317 7  95265038.76244  23264671.664                    23264682.527
 108555598.064 7  84588798.33546  20657445.391                    20657454.047
 118386040.572 6  92248895.30844  22528115.961                    22528126.254
 110975867.373 7  86474750.57546  21117998.000                    21118005.445
 128809036.352 6 100370714.07443  24511549.680                    24511559.781
 110256361.720 8  85914117.148 7  20981083.781                    20981092.098
 117035229.670 7  91196293.27644  22271075.195                    22271083.941
 11  7 29 18 36 30.0000000  0  9G08G28G11G13G03G19G06G07G23
 118514987.298 7  92349416.91944  22552650.008                    22552660.734
 122769312.354 7  95664473.41943  23362223.844                    23362235.457
 122179604.323 6  95204985.10744  23250005.094                    23250016.492
 108616923.181 7  84636584.09146  20669115.242                    20669124.336
 118479448.043 6  92321680.32144  22545890.805                    22545900.457
 111010219.747 7  86501518.64446  21124534.867                    21124542.629
 128907575.984 6 100447498.16043  24530300.188                    24530310.727
 110211880.149 7  85879456.199 7  20972619.070                    20972627.789
 117138108.353 7  91276458.33044  22290652.305                    22290661.426
 11  7 29 18 37  0.0000000  0 10G08G28G11G13G03G19G06G10G07G23
 118442041.714 7  92292576.25544  22538769.375                    22538779.863
 122717929.638 7  95624435.00644  23352446.578                    23352457.848
 122102664.852 7  95145032.38044  23235364.961                    23235375.707
 108678765.877 8  84684773.15946  20680883.219                    20680892.441
 118573175.439 7  92394714.61244  22563726.898                    22563736.891
 111045155.662 8  86528741.42046  21131183.250                    21131190.203
 129006288.804 6 100524417.20043  24549084.875                    24549094.953
 129985982.09115                  24735525.563
 110167582.081 7  85844938.239 7  20964189.727                    20964198.137
 117241250.906 7  91356828.97844  22310279.258                    22310289.426
